<?xml version='1.0' encoding='UTF-8'?><gpx version="1.1" creator="JPX - https://github.com/jenetics/jpx" xmlns="http://www.topografix.com/GPX/1/1"><trk><trkseg><trkpt lat="42.46652257179656" lon="14.103898080141585"><ele>99.0</ele><time>2026-04-11T15:44:52Z</time></trkpt><trkpt lat="42.466420775025014" lon="14.10385687408768"><ele>99.0</ele><time>2026-04-11T15:44:53Z</time></trkpt><trkpt lat="42.46631466750584" lon="14.103820120228841"><ele>99.0</ele><time>2026-04-11T15:44:54Z</time></trkpt><trkpt lat="42.46620137348848" lon="14.103798363048831"><ele>99.0</ele><time>2026-04-11T15:44:55Z</time></trkpt><trkpt lat="42.466085548464946" lon="14.103801526114308"><ele>99.0</ele><time>2026-04-11T15:44:56Z</time></trkpt><trkpt lat="42.46596177227699" lon="14.103809570544435"><ele>102.5</ele><time>2026-04-11T15:44:57Z</time></trkpt><trkpt lat="42.46583939984253" lon="14.10382276448454"><ele>106.0</ele><time>2026-04-11T15:44:58Z</time></trkpt><trkpt lat="42.46571484743983" lon="14.103838619542264"><ele>109.5</ele><time>2026-04-11T15:44:59Z</time></trkpt><trkpt lat="42.46558859136651" lon="14.103843111211253"><ele>113.0</ele><time>2026-04-11T15:45:00Z</time></trkpt><trkpt lat="42.46547135910862" lon="14.103826222064047"><ele>114.0</ele><time>2026-04-11T15:45:01Z</time></trkpt><trkpt lat="42.46536127283922" lon="14.103761127039727"><ele>115.00000000000001</ele><time>2026-04-11T15:45:02Z</time></trkpt><trkpt lat="42.46526141423601" lon="14.103730973299996"><ele>116.00000000000001</ele><time>2026-04-11T15:45:03Z</time></trkpt><trkpt lat="42.46516546354045" lon="14.10365411517356"><ele>117.0</ele><time>2026-04-11T15:45:04Z</time></trkpt><trkpt lat="42.465070316071035" lon="14.10359394649258"><ele>118.0</ele><time>2026-04-11T15:45:05Z</time></trkpt><trkpt lat="42.464979265999105" lon="14.103525958299386"><ele>118.0</ele><time>2026-04-11T15:45:06Z</time></trkpt><trkpt lat="42.46490458061808" lon="14.103445362483418"><ele>118.00000000000001</ele><time>2026-04-11T15:45:07Z</time></trkpt><trkpt lat="42.464846897077244" lon="14.103368996145303"><ele>118.00000000000001</ele><time>2026-04-11T15:45:08Z</time></trkpt><trkpt lat="42.46480085887936" lon="14.103306744256123"><ele>118.0</ele><time>2026-04-11T15:45:09Z</time></trkpt><trkpt lat="42.4647190084163" lon="14.103176999932495"><ele>118.0</ele><time>2026-04-11T15:45:11Z</time></trkpt><trkpt lat="42.464760497259036" lon="14.103021271724403"><ele>117.25</ele><time>2026-04-11T15:45:12Z</time></trkpt><trkpt lat="42.46474859734163" lon="14.102871156950494"><ele>116.5</ele><time>2026-04-11T15:45:13Z</time></trkpt><trkpt lat="42.46472902843562" lon="14.10269505175815"><ele>115.75</ele><time>2026-04-11T15:45:14Z</time></trkpt><trkpt lat="42.46468579334712" lon="14.102540354135979"><ele>115.0</ele><time>2026-04-11T15:45:15Z</time></trkpt><trkpt lat="42.46464704305095" lon="14.102381731022545"><ele>111.5</ele><time>2026-04-11T15:45:16Z</time></trkpt><trkpt lat="42.464585645369134" lon="14.102204969094224"><ele>108.0</ele><time>2026-04-11T15:45:17Z</time></trkpt><trkpt lat="42.464524940389886" lon="14.102019838525932"><ele>104.5</ele><time>2026-04-11T15:45:18Z</time></trkpt><trkpt lat="42.46446980515704" lon="14.101853430908319"><ele>101.0</ele><time>2026-04-11T15:45:19Z</time></trkpt><trkpt lat="42.464450551762795" lon="14.101675915963458"><ele>101.25</ele><time>2026-04-11T15:45:20Z</time></trkpt><trkpt lat="42.46441418017538" lon="14.10152506825588"><ele>101.5</ele><time>2026-04-11T15:45:21Z</time></trkpt><trkpt lat="42.464377800060426" lon="14.10136981916648"><ele>101.75</ele><time>2026-04-11T15:45:22Z</time></trkpt><trkpt lat="42.46430095287081" lon="14.101211987382806"><ele>102.0</ele><time>2026-04-11T15:45:23Z</time></trkpt><trkpt lat="42.46421338930166" lon="14.101052234026948"><ele>102.0</ele><time>2026-04-11T15:45:23.999Z</time></trkpt><trkpt lat="42.46413293265401" lon="14.100915235242741"><ele>102.0</ele><time>2026-04-11T15:45:24.999Z</time></trkpt><trkpt lat="42.46409039777307" lon="14.100770571173335"><ele>102.0</ele><time>2026-04-11T15:45:25.999Z</time></trkpt><trkpt lat="42.46405502104475" lon="14.100639663020944"><ele>102.0</ele><time>2026-04-11T15:45:26.999Z</time></trkpt><trkpt lat="42.46398934165907" lon="14.100517784763008"><ele>104.0</ele><time>2026-04-11T15:45:27.999Z</time></trkpt><trkpt lat="42.46389368715228" lon="14.100425641829226"><ele>106.0</ele><time>2026-04-11T15:45:28.999Z</time></trkpt><trkpt lat="42.46378422325015" lon="14.100362296759469"><ele>108.0</ele><time>2026-04-11T15:45:29.999Z</time></trkpt><trkpt lat="42.46367779747896" lon="14.10030227815892"><ele>110.0</ele><time>2026-04-11T15:45:30.999Z</time></trkpt><trkpt lat="42.46358390862541" lon="14.100212484217248"><ele>109.2</ele><time>2026-04-11T15:45:31.999Z</time></trkpt><trkpt lat="42.46350496896536" lon="14.100101010440154"><ele>108.4</ele><time>2026-04-11T15:45:32.999Z</time></trkpt><trkpt lat="42.463441178887976" lon="14.099993494900739"><ele>107.6</ele><time>2026-04-11T15:45:33.999Z</time></trkpt><trkpt lat="42.46338097074276" lon="14.099897837681592"><ele>106.8</ele><time>2026-04-11T15:45:34.999Z</time></trkpt><trkpt lat="42.46333849121383" lon="14.099786862890516"><ele>106.0</ele><time>2026-04-11T15:45:35.999Z</time></trkpt><trkpt lat="42.46328086216215" lon="14.09968551068397"><ele>106.0</ele><time>2026-04-11T15:45:36.999Z</time></trkpt><trkpt lat="42.46321206174486" lon="14.099592376797524"><ele>106.0</ele><time>2026-04-11T15:45:37.999Z</time></trkpt><trkpt lat="42.46315090952617" lon="14.099488095962283"><ele>106.0</ele><time>2026-04-11T15:45:38.999Z</time></trkpt><trkpt lat="42.46307784005234" lon="14.099385466214727"><ele>106.0</ele><time>2026-04-11T15:45:39.999Z</time></trkpt><trkpt lat="42.46299321921582" lon="14.099290492672841"><ele>106.0</ele><time>2026-04-11T15:45:40.999Z</time></trkpt><trkpt lat="42.46290013884347" lon="14.099206717176012"><ele>104.19999999999999</ele><time>2026-04-11T15:45:41.999Z</time></trkpt><trkpt lat="42.4628016816863" lon="14.099136738723185"><ele>102.39999999999999</ele><time>2026-04-11T15:45:42.999Z</time></trkpt><trkpt lat="42.462702899110546" lon="14.09906356331125"><ele>100.6</ele><time>2026-04-11T15:45:43.999Z</time></trkpt><trkpt lat="42.46261299981823" lon="14.098987484543304"><ele>98.8</ele><time>2026-04-11T15:45:44.999Z</time></trkpt><trkpt lat="42.46252242304686" lon="14.098900422806569"><ele>97.0</ele><time>2026-04-11T15:45:45.999Z</time></trkpt><trkpt lat="42.46242957922939" lon="14.098810606006355"><ele>97.0</ele><time>2026-04-11T15:45:46.999Z</time></trkpt><trkpt lat="42.46233519466967" lon="14.098712161600899"><ele>97.0</ele><time>2026-04-11T15:45:47.999Z</time></trkpt><trkpt lat="42.46224345513991" lon="14.098615639032163"><ele>97.0</ele><time>2026-04-11T15:45:48.999Z</time></trkpt><trkpt lat="42.462154182711394" lon="14.098515965404038"><ele>97.0</ele><time>2026-04-11T15:45:49.999Z</time></trkpt><trkpt lat="42.462068407445045" lon="14.09841294326198"><ele>92.75</ele><time>2026-04-11T15:45:50.999Z</time></trkpt><trkpt lat="42.46198599751829" lon="14.098303257337044"><ele>88.5</ele><time>2026-04-11T15:45:51.999Z</time></trkpt><trkpt lat="42.46190710018141" lon="14.09818632979221"><ele>84.25</ele><time>2026-04-11T15:45:52.999Z</time></trkpt><trkpt lat="42.461826086616654" lon="14.09804518532101"><ele>80.0</ele><time>2026-04-11T15:45:53.999Z</time></trkpt><trkpt lat="42.46174755576472" lon="14.097891179160353"><ele>80.0</ele><time>2026-04-11T15:45:54.999Z</time></trkpt><trkpt lat="42.461675654267914" lon="14.097737261930726"><ele>80.0</ele><time>2026-04-11T15:45:55.999Z</time></trkpt><trkpt lat="42.46161338641043" lon="14.097583617869589"><ele>80.0</ele><time>2026-04-11T15:45:56.999Z</time></trkpt><trkpt lat="42.46155213344709" lon="14.097427883706363"><ele>80.0</ele><time>2026-04-11T15:45:57.999Z</time></trkpt><trkpt lat="42.46149142300498" lon="14.097288907339696"><ele>80.75</ele><time>2026-04-11T15:45:58.999Z</time></trkpt><trkpt lat="42.46142973497117" lon="14.097153662309571"><ele>81.5</ele><time>2026-04-11T15:45:59.999Z</time></trkpt><trkpt lat="42.46138384542658" lon="14.097004175068085"><ele>82.25</ele><time>2026-04-11T15:46:00.999Z</time></trkpt><trkpt lat="42.461314798635385" lon="14.096871058232828"><ele>83.0</ele><time>2026-04-11T15:46:01.999Z</time></trkpt><trkpt lat="42.46126312054799" lon="14.096721511762953"><ele>79.0</ele><time>2026-04-11T15:46:02.999Z</time></trkpt><trkpt lat="42.461216069391845" lon="14.096569539811643"><ele>75.0</ele><time>2026-04-11T15:46:03.999Z</time></trkpt><trkpt lat="42.46118064783293" lon="14.096404854644199"><ele>71.0</ele><time>2026-04-11T15:46:04.999Z</time></trkpt><trkpt lat="42.461186601108956" lon="14.09622414033118"><ele>67.0</ele><time>2026-04-11T15:46:05.999Z</time></trkpt><trkpt lat="42.46119223481952" lon="14.096030237277295"><ele>67.0</ele><time>2026-04-11T15:46:06.999Z</time></trkpt><trkpt lat="42.461193305230005" lon="14.095821856407648"><ele>67.0</ele><time>2026-04-11T15:46:07.999Z</time></trkpt><trkpt lat="42.46121050677211" lon="14.095616210841634"><ele>67.0</ele><time>2026-04-11T15:46:08.999Z</time></trkpt><trkpt lat="42.461226120822595" lon="14.095416468421536"><ele>67.25</ele><time>2026-04-11T15:46:09.999Z</time></trkpt><trkpt lat="42.46124378997662" lon="14.095216072948121"><ele>67.5</ele><time>2026-04-11T15:46:10.999Z</time></trkpt><trkpt lat="42.46125702687272" lon="14.095035224766443"><ele>67.75</ele><time>2026-04-11T15:46:11.999Z</time></trkpt><trkpt lat="42.461269941529885" lon="14.09486838609285"><ele>68.0</ele><time>2026-04-11T15:46:12.999Z</time></trkpt><trkpt lat="42.46128011383514" lon="14.094710279511128"><ele>68.0</ele><time>2026-04-11T15:46:13.999Z</time></trkpt><trkpt lat="42.461283381451516" lon="14.094568809362531"><ele>68.0</ele><time>2026-04-11T15:46:14.999Z</time></trkpt><trkpt lat="42.46127637387772" lon="14.094429181440814"><ele>68.0</ele><time>2026-04-11T15:46:15.999Z</time></trkpt><trkpt lat="42.461257032811815" lon="14.094301624936058"><ele>68.0</ele><time>2026-04-11T15:46:16.999Z</time></trkpt><trkpt lat="42.46122952944008" lon="14.094209398723793"><ele>68.0</ele><time>2026-04-11T15:46:17.999Z</time></trkpt><trkpt lat="42.46119957620225" lon="14.094114662846552"><ele>67.2</ele><time>2026-04-11T15:46:19.999Z</time></trkpt><trkpt lat="42.46119992729449" lon="14.093985246845149"><ele>66.4</ele><time>2026-04-11T15:46:22.998Z</time></trkpt><trkpt lat="42.46126094899051" lon="14.093855459937627"><ele>65.60000000000001</ele><time>2026-04-11T15:46:24.998Z</time></trkpt><trkpt lat="42.46134236920937" lon="14.093735612015855"><ele>64.8</ele><time>2026-04-11T15:46:26.998Z</time></trkpt><trkpt lat="42.46140021931776" lon="14.09368815952877"><ele>64.0</ele><time>2026-04-11T15:46:27.998Z</time></trkpt><trkpt lat="42.46147149189602" lon="14.093654459923512"><ele>62.6</ele><time>2026-04-11T15:46:28.998Z</time></trkpt><trkpt lat="42.46156443719523" lon="14.093634274917429"><ele>61.2</ele><time>2026-04-11T15:46:29.998Z</time></trkpt><trkpt lat="42.46166783818603" lon="14.093623662996187"><ele>59.800000000000004</ele><time>2026-04-11T15:46:30.998Z</time></trkpt><trkpt lat="42.46177068498145" lon="14.093609233364884"><ele>58.400000000000006</ele><time>2026-04-11T15:46:31.998Z</time></trkpt><trkpt lat="42.461864766182885" lon="14.09359945133676"><ele>57.0</ele><time>2026-04-11T15:46:32.998Z</time></trkpt><trkpt lat="42.461959383679655" lon="14.093586580165445"><ele>57.0</ele><time>2026-04-11T15:46:33.998Z</time></trkpt><trkpt lat="42.462049360173715" lon="14.093576289345007"><ele>57.0</ele><time>2026-04-11T15:46:34.998Z</time></trkpt><trkpt lat="42.46214163409507" lon="14.093565630454219"><ele>57.0</ele><time>2026-04-11T15:46:35.998Z</time></trkpt><trkpt lat="42.462233887146645" lon="14.093551531767785"><ele>57.0</ele><time>2026-04-11T15:46:36.998Z</time></trkpt><trkpt lat="42.4623350651739" lon="14.093541485086293"><ele>57.0</ele><time>2026-04-11T15:46:37.998Z</time></trkpt><trkpt lat="42.462436005509204" lon="14.093534866987211"><ele>56.400000000000006</ele><time>2026-04-11T15:46:38.998Z</time></trkpt><trkpt lat="42.46253898898764" lon="14.0935239328354"><ele>55.800000000000004</ele><time>2026-04-11T15:46:39.998Z</time></trkpt><trkpt lat="42.46265214755332" lon="14.093503603021226"><ele>55.2</ele><time>2026-04-11T15:46:40.998Z</time></trkpt><trkpt lat="42.4627609814579" lon="14.093481574728314"><ele>54.6</ele><time>2026-04-11T15:46:41.998Z</time></trkpt><trkpt lat="42.46286052216209" lon="14.093467122037925"><ele>54.0</ele><time>2026-04-11T15:46:42.998Z</time></trkpt><trkpt lat="42.46295786921604" lon="14.093453090339363"><ele>54.0</ele><time>2026-04-11T15:46:43.998Z</time></trkpt><trkpt lat="42.46305687972244" lon="14.093439545429327"><ele>54.00000000000001</ele><time>2026-04-11T15:46:44.998Z</time></trkpt><trkpt lat="42.463150463665194" lon="14.093421417502203"><ele>54.00000000000001</ele><time>2026-04-11T15:46:45.998Z</time></trkpt><trkpt lat="42.46323411593454" lon="14.093410938649527"><ele>54.0</ele><time>2026-04-11T15:46:46.998Z</time></trkpt><trkpt lat="42.463334495721064" lon="14.093397600681328"><ele>54.0</ele><time>2026-04-11T15:46:48.998Z</time></trkpt><trkpt lat="42.46342456543532" lon="14.093412985883242"><ele>54.0</ele><time>2026-04-11T15:46:52.998Z</time></trkpt><trkpt lat="42.463483570447885" lon="14.093339746109805"><ele>54.00000000000001</ele><time>2026-04-11T15:46:53.998Z</time></trkpt><trkpt lat="42.46355305197165" lon="14.093222488688754"><ele>54.00000000000001</ele><time>2026-04-11T15:46:55.998Z</time></trkpt><trkpt lat="42.463646483577044" lon="14.093146806149882"><ele>54.0</ele><time>2026-04-11T15:46:57.998Z</time></trkpt><trkpt lat="42.463713058854566" lon="14.093137193991392"><ele>54.0</ele><time>2026-04-11T15:46:58.998Z</time></trkpt><trkpt lat="42.463797844390456" lon="14.093153678806168"><ele>53.400000000000006</ele><time>2026-04-11T15:47:00Z</time></trkpt><trkpt lat="42.46389003143923" lon="14.093194430532721"><ele>52.800000000000004</ele><time>2026-04-11T15:47:01Z</time></trkpt><trkpt lat="42.46400100166393" lon="14.093246944253215"><ele>52.2</ele><time>2026-04-11T15:47:02Z</time></trkpt><trkpt lat="42.464108243943784" lon="14.093283506828993"><ele>51.599999999999994</ele><time>2026-04-11T15:47:03Z</time></trkpt><trkpt lat="42.46421453823284" lon="14.093311301317994"><ele>51.0</ele><time>2026-04-11T15:47:04Z</time></trkpt><trkpt lat="42.4643365656087" lon="14.093325089817313"><ele>51.0</ele><time>2026-04-11T15:47:05Z</time></trkpt><trkpt lat="42.464467380824495" lon="14.093322949719479"><ele>51.0</ele><time>2026-04-11T15:47:06Z</time></trkpt><trkpt lat="42.46460458581751" lon="14.093300776142968"><ele>51.0</ele><time>2026-04-11T15:47:07Z</time></trkpt><trkpt lat="42.46474576611839" lon="14.093264914460983"><ele>51.0</ele><time>2026-04-11T15:47:08Z</time></trkpt><trkpt lat="42.46488175231448" lon="14.093209915838202"><ele>49.0</ele><time>2026-04-11T15:47:09Z</time></trkpt><trkpt lat="42.46500861267053" lon="14.093140666218417"><ele>47.0</ele><time>2026-04-11T15:47:10Z</time></trkpt><trkpt lat="42.46512413119692" lon="14.093047124994735"><ele>45.0</ele><time>2026-04-11T15:47:11Z</time></trkpt><trkpt lat="42.46523044282331" lon="14.092942193447431"><ele>43.0</ele><time>2026-04-11T15:47:12Z</time></trkpt><trkpt lat="42.46533425416198" lon="14.092833026778225"><ele>43.0</ele><time>2026-04-11T15:47:13Z</time></trkpt><trkpt lat="42.46542939247798" lon="14.09271855354829"><ele>43.0</ele><time>2026-04-11T15:47:14Z</time></trkpt><trkpt lat="42.46552101673966" lon="14.09258392666854"><ele>43.0</ele><time>2026-04-11T15:47:15Z</time></trkpt><trkpt lat="42.46560344541584" lon="14.092436416001302"><ele>43.0</ele><time>2026-04-11T15:47:16Z</time></trkpt><trkpt lat="42.46567374638698" lon="14.092286667877097"><ele>42.5</ele><time>2026-04-11T15:47:17Z</time></trkpt><trkpt lat="42.46574019479817" lon="14.092135758870333"><ele>42.0</ele><time>2026-04-11T15:47:18Z</time></trkpt><trkpt lat="42.46580625426378" lon="14.091980592213442"><ele>41.5</ele><time>2026-04-11T15:47:19Z</time></trkpt><trkpt lat="42.465880015565254" lon="14.091821161363955"><ele>41.0</ele><time>2026-04-11T15:47:20Z</time></trkpt><trkpt lat="42.46595669389219" lon="14.09166508202999"><ele>40.5</ele><time>2026-04-11T15:47:21Z</time></trkpt><trkpt lat="42.46603366663871" lon="14.091515330252957"><ele>40.0</ele><time>2026-04-11T15:47:22Z</time></trkpt><trkpt lat="42.46610973996425" lon="14.091380215925758"><ele>39.5</ele><time>2026-04-11T15:47:23Z</time></trkpt><trkpt lat="42.46619083722532" lon="14.091250225892251"><ele>39.0</ele><time>2026-04-11T15:47:24Z</time></trkpt><trkpt lat="42.46627498033753" lon="14.091119796701772"><ele>39.25</ele><time>2026-04-11T15:47:25Z</time></trkpt><trkpt lat="42.46636196994247" lon="14.090990464873803"><ele>39.5</ele><time>2026-04-11T15:47:26Z</time></trkpt><trkpt lat="42.46645740462443" lon="14.09085466515356"><ele>39.75</ele><time>2026-04-11T15:47:27Z</time></trkpt><trkpt lat="42.4665543385673" lon="14.09072291625023"><ele>40.0</ele><time>2026-04-11T15:47:28Z</time></trkpt><trkpt lat="42.46665101010448" lon="14.090603048355666"><ele>40.0</ele><time>2026-04-11T15:47:29Z</time></trkpt><trkpt lat="42.46674514089579" lon="14.090489536736396"><ele>40.0</ele><time>2026-04-11T15:47:29.999Z</time></trkpt><trkpt lat="42.46684688232203" lon="14.090377228228318"><ele>40.0</ele><time>2026-04-11T15:47:30.999Z</time></trkpt><trkpt lat="42.46694913560704" lon="14.090262130198557"><ele>40.0</ele><time>2026-04-11T15:47:31.999Z</time></trkpt><trkpt lat="42.46705474350131" lon="14.090135862952199"><ele>40.0</ele><time>2026-04-11T15:47:32.999Z</time></trkpt><trkpt lat="42.46715176119343" lon="14.090010492884478"><ele>40.0</ele><time>2026-04-11T15:47:33.999Z</time></trkpt><trkpt lat="42.46724468683606" lon="14.089890222720074"><ele>40.0</ele><time>2026-04-11T15:47:34.999Z</time></trkpt><trkpt lat="42.46734673533722" lon="14.089766847432198"><ele>40.0</ele><time>2026-04-11T15:47:35.999Z</time></trkpt><trkpt lat="42.4674494958045" lon="14.089638390976257"><ele>40.0</ele><time>2026-04-11T15:47:36.999Z</time></trkpt><trkpt lat="42.46755599200684" lon="14.089508457171847"><ele>40.0</ele><time>2026-04-11T15:47:37.999Z</time></trkpt><trkpt lat="42.46765480665717" lon="14.089386526609227"><ele>40.0</ele><time>2026-04-11T15:47:38.999Z</time></trkpt><trkpt lat="42.467749239981366" lon="14.0892717387267"><ele>40.0</ele><time>2026-04-11T15:47:39.999Z</time></trkpt><trkpt lat="42.467846620276575" lon="14.08915255274777"><ele>40.0</ele><time>2026-04-11T15:47:40.999Z</time></trkpt><trkpt lat="42.467949560587606" lon="14.08902500790267"><ele>40.0</ele><time>2026-04-11T15:47:41.999Z</time></trkpt><trkpt lat="42.46805674379457" lon="14.088893306904167"><ele>40.0</ele><time>2026-04-11T15:47:42.999Z</time></trkpt><trkpt lat="42.46816397432106" lon="14.088757618927072"><ele>40.0</ele><time>2026-04-11T15:47:43.999Z</time></trkpt><trkpt lat="42.46827409898533" lon="14.088624358239617"><ele>40.0</ele><time>2026-04-11T15:47:44.999Z</time></trkpt><trkpt lat="42.46837900957613" lon="14.08849551307215"><ele>40.0</ele><time>2026-04-11T15:47:45.999Z</time></trkpt><trkpt lat="42.46847992277095" lon="14.088372869809081"><ele>40.0</ele><time>2026-04-11T15:47:46.999Z</time></trkpt><trkpt lat="42.46858340799416" lon="14.088245790413906"><ele>40.0</ele><time>2026-04-11T15:47:47.999Z</time></trkpt><trkpt lat="42.46868962015248" lon="14.088117943250632"><ele>40.25</ele><time>2026-04-11T15:47:48.999Z</time></trkpt><trkpt lat="42.46879737172953" lon="14.087983068068263"><ele>40.5</ele><time>2026-04-11T15:47:49.999Z</time></trkpt><trkpt lat="42.468904274788926" lon="14.08784413161055"><ele>40.75</ele><time>2026-04-11T15:47:50.999Z</time></trkpt><trkpt lat="42.46901038407724" lon="14.087705971907567"><ele>41.0</ele><time>2026-04-11T15:47:51.999Z</time></trkpt><trkpt lat="42.469116323502796" lon="14.087576337584977"><ele>41.0</ele><time>2026-04-11T15:47:52.999Z</time></trkpt><trkpt lat="42.46921339245379" lon="14.087456597353317"><ele>41.0</ele><time>2026-04-11T15:47:53.999Z</time></trkpt><trkpt lat="42.46931472591056" lon="14.08733076731457"><ele>41.0</ele><time>2026-04-11T15:47:54.999Z</time></trkpt><trkpt lat="42.469424771448736" lon="14.087197662305238"><ele>41.0</ele><time>2026-04-11T15:47:55.999Z</time></trkpt><trkpt lat="42.46953676774841" lon="14.087064212999236"><ele>41.0</ele><time>2026-04-11T15:47:56.999Z</time></trkpt><trkpt lat="42.46965270262802" lon="14.086927558988165"><ele>41.0</ele><time>2026-04-11T15:47:57.999Z</time></trkpt><trkpt lat="42.46975788900097" lon="14.086799201657524"><ele>41.0</ele><time>2026-04-11T15:47:58.999Z</time></trkpt><trkpt lat="42.4698634177305" lon="14.086669719705004"><ele>41.0</ele><time>2026-04-11T15:47:59.999Z</time></trkpt><trkpt lat="42.46997197140856" lon="14.086534265195253"><ele>41.0</ele><time>2026-04-11T15:48:00.999Z</time></trkpt><trkpt lat="42.47007625460962" lon="14.086398397640606"><ele>41.0</ele><time>2026-04-11T15:48:01.999Z</time></trkpt><trkpt lat="42.47018435141739" lon="14.08626123461667"><ele>41.0</ele><time>2026-04-11T15:48:02.999Z</time></trkpt><trkpt lat="42.47029106049897" lon="14.086125567980304"><ele>41.0</ele><time>2026-04-11T15:48:03.999Z</time></trkpt><trkpt lat="42.47039834330037" lon="14.085991753026862"><ele>41.0</ele><time>2026-04-11T15:48:04.999Z</time></trkpt><trkpt lat="42.470504759697455" lon="14.085866760655595"><ele>41.0</ele><time>2026-04-11T15:48:05.999Z</time></trkpt><trkpt lat="42.47060571950703" lon="14.085738214080711"><ele>41.0</ele><time>2026-04-11T15:48:06.999Z</time></trkpt><trkpt lat="42.47070457288581" lon="14.085615994424591"><ele>41.0</ele><time>2026-04-11T15:48:07.999Z</time></trkpt><trkpt lat="42.47080827951648" lon="14.085494057479039"><ele>41.0</ele><time>2026-04-11T15:48:08.999Z</time></trkpt><trkpt lat="42.470914033521815" lon="14.08536622006843"><ele>41.0</ele><time>2026-04-11T15:48:09.999Z</time></trkpt><trkpt lat="42.471021479272935" lon="14.085235017761477"><ele>41.0</ele><time>2026-04-11T15:48:10.999Z</time></trkpt><trkpt lat="42.47113237801418" lon="14.085113694903349"><ele>41.0</ele><time>2026-04-11T15:48:11.999Z</time></trkpt><trkpt lat="42.471246439532855" lon="14.085015591260634"><ele>40.75</ele><time>2026-04-11T15:48:12.999Z</time></trkpt><trkpt lat="42.47136092890267" lon="14.084938596313831"><ele>40.5</ele><time>2026-04-11T15:48:13.999Z</time></trkpt><trkpt lat="42.4714732489628" lon="14.084861093528659"><ele>40.25</ele><time>2026-04-11T15:48:14.999Z</time></trkpt><trkpt lat="42.4715872635496" lon="14.084788234341326"><ele>40.0</ele><time>2026-04-11T15:48:15.999Z</time></trkpt><trkpt lat="42.47170101600687" lon="14.084723687901956"><ele>40.25</ele><time>2026-04-11T15:48:16.999Z</time></trkpt><trkpt lat="42.471812235558595" lon="14.084650863522578"><ele>40.5</ele><time>2026-04-11T15:48:17.999Z</time></trkpt><trkpt lat="42.47191477484518" lon="14.084576531461185"><ele>40.75</ele><time>2026-04-11T15:48:18.999Z</time></trkpt><trkpt lat="42.47201968469471" lon="14.084511565319088"><ele>41.0</ele><time>2026-04-11T15:48:19.999Z</time></trkpt><trkpt lat="42.472122001804486" lon="14.084451145739754"><ele>41.0</ele><time>2026-04-11T15:48:20.999Z</time></trkpt><trkpt lat="42.47222451117808" lon="14.084390014409422"><ele>41.0</ele><time>2026-04-11T15:48:21.999Z</time></trkpt><trkpt lat="42.47232400110816" lon="14.08432380817625"><ele>41.0</ele><time>2026-04-11T15:48:22.999Z</time></trkpt><trkpt lat="42.472420070320354" lon="14.084258454464626"><ele>41.0</ele><time>2026-04-11T15:48:23.999Z</time></trkpt><trkpt lat="42.472513133602696" lon="14.084200372964547"><ele>41.0</ele><time>2026-04-11T15:48:24.999Z</time></trkpt><trkpt lat="42.47260911187838" lon="14.084147020065958"><ele>41.0</ele><time>2026-04-11T15:48:25.999Z</time></trkpt><trkpt lat="42.472703752430476" lon="14.084087345556291"><ele>41.0</ele><time>2026-04-11T15:48:26.999Z</time></trkpt><trkpt lat="42.47279305638703" lon="14.084026738752529"><ele>41.0</ele><time>2026-04-11T15:48:27.999Z</time></trkpt><trkpt lat="42.472878961791466" lon="14.083964753144018"><ele>41.0</ele><time>2026-04-11T15:48:28.999Z</time></trkpt><trkpt lat="42.47296326253096" lon="14.083898735532706"><ele>41.0</ele><time>2026-04-11T15:48:29.999Z</time></trkpt><trkpt lat="42.47305256874041" lon="14.083819893773997"><ele>41.0</ele><time>2026-04-11T15:48:30.999Z</time></trkpt><trkpt lat="42.47314149170577" lon="14.083739392805963"><ele>41.0</ele><time>2026-04-11T15:48:31.998Z</time></trkpt><trkpt lat="42.47323640316071" lon="14.08364611512755"><ele>41.0</ele><time>2026-04-11T15:48:32.998Z</time></trkpt><trkpt lat="42.47334323703589" lon="14.083546892984353"><ele>41.0</ele><time>2026-04-11T15:48:33.998Z</time></trkpt><trkpt lat="42.47344654074201" lon="14.08345326461286"><ele>41.0</ele><time>2026-04-11T15:48:34.998Z</time></trkpt><trkpt lat="42.473555417570914" lon="14.083393551179473"><ele>41.0</ele><time>2026-04-11T15:48:35.998Z</time></trkpt><trkpt lat="42.47364750171627" lon="14.083304964020565"><ele>41.0</ele><time>2026-04-11T15:48:36.998Z</time></trkpt><trkpt lat="42.47375061725332" lon="14.083240596145318"><ele>41.0</ele><time>2026-04-11T15:48:37.998Z</time></trkpt><trkpt lat="42.47385228476727" lon="14.083180399609908"><ele>40.599999999999994</ele><time>2026-04-11T15:48:38.998Z</time></trkpt><trkpt lat="42.47394988591648" lon="14.083129531782635"><ele>40.199999999999996</ele><time>2026-04-11T15:48:39.998Z</time></trkpt><trkpt lat="42.47405217829551" lon="14.08308660275717"><ele>39.8</ele><time>2026-04-11T15:48:40.998Z</time></trkpt><trkpt lat="42.4741552960715" lon="14.08303884780719"><ele>39.4</ele><time>2026-04-11T15:48:41.998Z</time></trkpt><trkpt lat="42.47426161222868" lon="14.0829882197618"><ele>39.0</ele><time>2026-04-11T15:48:42.998Z</time></trkpt><trkpt lat="42.474369605211784" lon="14.082927371823999"><ele>39.0</ele><time>2026-04-11T15:48:43.998Z</time></trkpt><trkpt lat="42.47446980446998" lon="14.082865397513553"><ele>39.0</ele><time>2026-04-11T15:48:44.998Z</time></trkpt><trkpt lat="42.47456227051088" lon="14.082794516765654"><ele>39.0</ele><time>2026-04-11T15:48:45.998Z</time></trkpt><trkpt lat="42.47466985020682" lon="14.082740491884428"><ele>39.0</ele><time>2026-04-11T15:48:46.998Z</time></trkpt><trkpt lat="42.47477105692088" lon="14.08265334605667"><ele>38.5</ele><time>2026-04-11T15:48:47.998Z</time></trkpt><trkpt lat="42.474874363655715" lon="14.08259328028114"><ele>38.0</ele><time>2026-04-11T15:48:48.998Z</time></trkpt><trkpt lat="42.47497669055936" lon="14.082525113778951"><ele>37.5</ele><time>2026-04-11T15:48:49.998Z</time></trkpt><trkpt lat="42.475078223602466" lon="14.082451338091055"><ele>37.0</ele><time>2026-04-11T15:48:50.998Z</time></trkpt><trkpt lat="42.47518447700792" lon="14.08238487224657"><ele>37.0</ele><time>2026-04-11T15:48:51.998Z</time></trkpt><trkpt lat="42.47529188880029" lon="14.08232473633331"><ele>37.0</ele><time>2026-04-11T15:48:52.998Z</time></trkpt><trkpt lat="42.47541467141832" lon="14.08230632371566"><ele>37.0</ele><time>2026-04-11T15:48:53.998Z</time></trkpt><trkpt lat="42.47554408165574" lon="14.082275726706332"><ele>37.0</ele><time>2026-04-11T15:48:54.998Z</time></trkpt><trkpt lat="42.475681134222484" lon="14.082287720690909"><ele>35.333333333333336</ele><time>2026-04-11T15:48:55.998Z</time></trkpt><trkpt lat="42.47582790780396" lon="14.082318027068283"><ele>33.666666666666664</ele><time>2026-04-11T15:48:56.998Z</time></trkpt><trkpt lat="42.4759776488801" lon="14.082398356658414"><ele>32.0</ele><time>2026-04-11T15:48:57.998Z</time></trkpt><trkpt lat="42.47613363072751" lon="14.082442022925298"><ele>31.5</ele><time>2026-04-11T15:48:58.998Z</time></trkpt><trkpt lat="42.476269029467645" lon="14.082505064266297"><ele>31.0</ele><time>2026-04-11T15:48:59.998Z</time></trkpt><trkpt lat="42.476398940076116" lon="14.082562219933635"><ele>30.5</ele><time>2026-04-11T15:49:00.998Z</time></trkpt><trkpt lat="42.476533893423415" lon="14.082616921007466"><ele>30.0</ele><time>2026-04-11T15:49:01.998Z</time></trkpt><trkpt lat="42.476672978703405" lon="14.082679116745844"><ele>29.666666666666664</ele><time>2026-04-11T15:49:02.998Z</time></trkpt><trkpt lat="42.47681341954917" lon="14.082740307821751"><ele>29.333333333333332</ele><time>2026-04-11T15:49:03.998Z</time></trkpt><trkpt lat="42.47696011010934" lon="14.082803218333588"><ele>29.0</ele><time>2026-04-11T15:49:04.998Z</time></trkpt><trkpt lat="42.47710418945118" lon="14.082857896788855"><ele>29.0</ele><time>2026-04-11T15:49:06Z</time></trkpt><trkpt lat="42.47724765618992" lon="14.08291626561613"><ele>29.0</ele><time>2026-04-11T15:49:07Z</time></trkpt><trkpt lat="42.47738953785364" lon="14.082975555200495"><ele>29.0</ele><time>2026-04-11T15:49:08Z</time></trkpt><trkpt lat="42.477529263733445" lon="14.083036159565252"><ele>29.0</ele><time>2026-04-11T15:49:09Z</time></trkpt><trkpt lat="42.47766148418714" lon="14.083091439717618"><ele>29.0</ele><time>2026-04-11T15:49:10Z</time></trkpt><trkpt lat="42.47780170803846" lon="14.083149137572143"><ele>29.0</ele><time>2026-04-11T15:49:11Z</time></trkpt><trkpt lat="42.4779425494647" lon="14.083205481542258"><ele>29.0</ele><time>2026-04-11T15:49:12Z</time></trkpt><trkpt lat="42.47807857849092" lon="14.083258177275836"><ele>29.0</ele><time>2026-04-11T15:49:13Z</time></trkpt><trkpt lat="42.47821946052237" lon="14.083315884398123"><ele>28.5</ele><time>2026-04-11T15:49:14Z</time></trkpt><trkpt lat="42.47835763183129" lon="14.083374270075467"><ele>28.0</ele><time>2026-04-11T15:49:15Z</time></trkpt><trkpt lat="42.47849197144962" lon="14.083430402059065"><ele>27.5</ele><time>2026-04-11T15:49:16Z</time></trkpt><trkpt lat="42.47862047995378" lon="14.083486255607273"><ele>27.0</ele><time>2026-04-11T15:49:17Z</time></trkpt><trkpt lat="42.47875544906205" lon="14.083546400073113"><ele>27.0</ele><time>2026-04-11T15:49:18Z</time></trkpt><trkpt lat="42.4789241168817" lon="14.083612736275473"><ele>27.0</ele><time>2026-04-11T15:49:19Z</time></trkpt><trkpt lat="42.47906318447816" lon="14.08366947054706"><ele>27.0</ele><time>2026-04-11T15:49:20Z</time></trkpt><trkpt lat="42.47919753640792" lon="14.083720416594861"><ele>27.0</ele><time>2026-04-11T15:49:20.999Z</time></trkpt><trkpt lat="42.47933079840393" lon="14.083774147564348"><ele>27.0</ele><time>2026-04-11T15:49:21.999Z</time></trkpt><trkpt lat="42.47946557106961" lon="14.083827398259901"><ele>27.0</ele><time>2026-04-11T15:49:22.999Z</time></trkpt><trkpt lat="42.479604476161235" lon="14.083880368576903"><ele>27.0</ele><time>2026-04-11T15:49:23.998Z</time></trkpt><trkpt lat="42.47973894760822" lon="14.083935037615166"><ele>27.0</ele><time>2026-04-11T15:49:24.998Z</time></trkpt><trkpt lat="42.479870921218314" lon="14.08399111961093"><ele>27.0</ele><time>2026-04-11T15:49:25.998Z</time></trkpt><trkpt lat="42.479997514267914" lon="14.084040635919926"><ele>27.0</ele><time>2026-04-11T15:49:26.998Z</time></trkpt><trkpt lat="42.48012515765191" lon="14.084097134616046"><ele>27.0</ele><time>2026-04-11T15:49:27.998Z</time></trkpt><trkpt lat="42.48024512173119" lon="14.084153902398029"><ele>27.25</ele><time>2026-04-11T15:49:28.997Z</time></trkpt><trkpt lat="42.480361287204715" lon="14.08421420689005"><ele>27.5</ele><time>2026-04-11T15:49:29.997Z</time></trkpt><trkpt lat="42.48047287243444" lon="14.084281637285342"><ele>27.75</ele><time>2026-04-11T15:49:30.997Z</time></trkpt><trkpt lat="42.48057721641302" lon="14.084352647787282"><ele>28.0</ele><time>2026-04-11T15:49:31.997Z</time></trkpt><trkpt lat="42.48066733596814" lon="14.084427679752553"><ele>28.000000000000004</ele><time>2026-04-11T15:49:32.997Z</time></trkpt><trkpt lat="42.480752338324756" lon="14.084507127377824"><ele>28.0</ele><time>2026-04-11T15:49:33.997Z</time></trkpt><trkpt lat="42.480824711316316" lon="14.084571645978375"><ele>28.0</ele><time>2026-04-11T15:49:34.996Z</time></trkpt><trkpt lat="42.480887897028175" lon="14.084630252146274"><ele>28.0</ele><time>2026-04-11T15:49:35.996Z</time></trkpt><trkpt lat="42.480949429076595" lon="14.084679198579382"><ele>28.000000000000004</ele><time>2026-04-11T15:49:36.996Z</time></trkpt><trkpt lat="42.48100438937545" lon="14.084721982775676"><ele>28.0</ele><time>2026-04-11T15:49:37.996Z</time></trkpt><trkpt lat="42.48109950600372" lon="14.08479377591217"><ele>28.000000000000004</ele><time>2026-04-11T15:49:39.996Z</time></trkpt><trkpt lat="42.48120265091943" lon="14.084888483913868"><ele>28.0</ele><time>2026-04-11T15:49:41.996Z</time></trkpt><trkpt lat="42.481238391854404" lon="14.084959437859565"><ele>28.0</ele><time>2026-04-11T15:49:42.996Z</time></trkpt><trkpt lat="42.48131917864317" lon="14.085044363899748"><ele>28.0</ele><time>2026-04-11T15:49:44.995Z</time></trkpt><trkpt lat="42.48137241186462" lon="14.08513012813003"><ele>28.000000000000004</ele><time>2026-04-11T15:49:46.995Z</time></trkpt><trkpt lat="42.481385998835385" lon="14.08522625301459"><ele>28.0</ele><time>2026-04-11T15:49:48.995Z</time></trkpt><trkpt lat="42.48131850293475" lon="14.085159722571598"><ele>28.000000000000004</ele><time>2026-04-11T15:49:55.995Z</time></trkpt><trkpt lat="42.48124819470988" lon="14.085095160288946"><ele>28.0</ele><time>2026-04-11T15:49:56.995Z</time></trkpt><trkpt lat="42.481185528313055" lon="14.08503761474252"><ele>28.0</ele><time>2026-04-11T15:49:57.995Z</time></trkpt><trkpt lat="42.48110613540253" lon="14.084968299520412"><ele>28.0</ele><time>2026-04-11T15:49:58.995Z</time></trkpt><trkpt lat="42.48101960293255" lon="14.084893887805995"><ele>28.000000000000004</ele><time>2026-04-11T15:49:59.995Z</time></trkpt><trkpt lat="42.48095424941235" lon="14.084836565652573"><ele>28.0</ele><time>2026-04-11T15:50:00.995Z</time></trkpt><trkpt lat="42.4808857008956" lon="14.084773461407005"><ele>28.0</ele><time>2026-04-11T15:50:02.995Z</time></trkpt><trkpt lat="42.48105989623764" lon="14.084574786534313"><ele>28.0</ele><time>2026-04-11T15:50:27.994Z</time></trkpt><trkpt lat="42.481145325316554" lon="14.08464105918483"><ele>28.0</ele><time>2026-04-11T15:50:28.994Z</time></trkpt><trkpt lat="42.48125027129171" lon="14.084711695925"><ele>28.0</ele><time>2026-04-11T15:50:29.994Z</time></trkpt><trkpt lat="42.481350658780755" lon="14.084764257427915"><ele>28.25</ele><time>2026-04-11T15:50:30.994Z</time></trkpt><trkpt lat="42.481460050149096" lon="14.084821986862933"><ele>28.5</ele><time>2026-04-11T15:50:31.994Z</time></trkpt><trkpt lat="42.48156993251445" lon="14.084888403643541"><ele>28.75</ele><time>2026-04-11T15:50:32.994Z</time></trkpt><trkpt lat="42.48167259513297" lon="14.08494697967083"><ele>29.0</ele><time>2026-04-11T15:50:33.994Z</time></trkpt><trkpt lat="42.48176860283346" lon="14.08499709131636"><ele>29.0</ele><time>2026-04-11T15:50:34.994Z</time></trkpt><trkpt lat="42.48186995733861" lon="14.085048864903886"><ele>29.0</ele><time>2026-04-11T15:50:35.994Z</time></trkpt><trkpt lat="42.48197499279047" lon="14.085104658711565"><ele>29.0</ele><time>2026-04-11T15:50:36.994Z</time></trkpt><trkpt lat="42.48208763273671" lon="14.085169506698904"><ele>29.0</ele><time>2026-04-11T15:50:37.994Z</time></trkpt><trkpt lat="42.48220221941494" lon="14.085233117281266"><ele>29.5</ele><time>2026-04-11T15:50:38.994Z</time></trkpt><trkpt lat="42.48230407719717" lon="14.085293256922588"><ele>30.0</ele><time>2026-04-11T15:50:39.994Z</time></trkpt><trkpt lat="42.48241215547066" lon="14.085356068028222"><ele>30.5</ele><time>2026-04-11T15:50:40.994Z</time></trkpt><trkpt lat="42.48252466574871" lon="14.085413355435497"><ele>31.0</ele><time>2026-04-11T15:50:41.994Z</time></trkpt><trkpt lat="42.48264290126775" lon="14.085481217904777"><ele>31.0</ele><time>2026-04-11T15:50:42.994Z</time></trkpt><trkpt lat="42.48277016968065" lon="14.085543275993372"><ele>31.0</ele><time>2026-04-11T15:50:43.994Z</time></trkpt><trkpt lat="42.48291079082953" lon="14.085618407516453"><ele>31.0</ele><time>2026-04-11T15:50:44.994Z</time></trkpt><trkpt lat="42.48305659397688" lon="14.085718076596907"><ele>33.66666666666667</ele><time>2026-04-11T15:50:45.994Z</time></trkpt><trkpt lat="42.483195294073624" lon="14.08584541035869"><ele>36.333333333333336</ele><time>2026-04-11T15:50:46.994Z</time></trkpt><trkpt lat="42.48331650842835" lon="14.086002419226224"><ele>39.0</ele><time>2026-04-11T15:50:47.994Z</time></trkpt><trkpt lat="42.48343179927388" lon="14.086178017090353"><ele>39.0</ele><time>2026-04-11T15:50:48.994Z</time></trkpt><trkpt lat="42.483530057695866" lon="14.086378034444381"><ele>39.0</ele><time>2026-04-11T15:50:49.994Z</time></trkpt><trkpt lat="42.48361654285636" lon="14.08661508618329"><ele>39.0</ele><time>2026-04-11T15:50:50.993Z</time></trkpt><trkpt lat="42.48369515111571" lon="14.08686864473584"><ele>39.333333333333336</ele><time>2026-04-11T15:50:51.993Z</time></trkpt><trkpt lat="42.483776981734124" lon="14.087129435174225"><ele>39.66666666666667</ele><time>2026-04-11T15:50:52.993Z</time></trkpt><trkpt lat="42.48386434709895" lon="14.087398738628837"><ele>40.0</ele><time>2026-04-11T15:50:53.993Z</time></trkpt><trkpt lat="42.48394424436281" lon="14.087645532596552"><ele>40.0</ele><time>2026-04-11T15:50:54.993Z</time></trkpt><trkpt lat="42.484019144413345" lon="14.087871514256346"><ele>40.0</ele><time>2026-04-11T15:50:55.993Z</time></trkpt><trkpt lat="42.48410480688722" lon="14.08808188441125"><ele>40.0</ele><time>2026-04-11T15:50:56.993Z</time></trkpt><trkpt lat="42.4842207129999" lon="14.088293496880972"><ele>37.333333333333336</ele><time>2026-04-11T15:50:57.993Z</time></trkpt><trkpt lat="42.48434991162988" lon="14.088482545865283"><ele>34.666666666666664</ele><time>2026-04-11T15:50:58.993Z</time></trkpt><trkpt lat="42.48446964454329" lon="14.088647292144612"><ele>32.0</ele><time>2026-04-11T15:50:59.993Z</time></trkpt><trkpt lat="42.48456819224086" lon="14.088796532844643"><ele>34.5</ele><time>2026-04-11T15:51:00.993Z</time></trkpt><trkpt lat="42.48466366518868" lon="14.08892098642735"><ele>37.0</ele><time>2026-04-11T15:51:01.993Z</time></trkpt><trkpt lat="42.48476754503428" lon="14.089008790266957"><ele>39.5</ele><time>2026-04-11T15:51:02.993Z</time></trkpt><trkpt lat="42.48487586525124" lon="14.089037287493715"><ele>42.0</ele><time>2026-04-11T15:51:03.993Z</time></trkpt><trkpt lat="42.48498041760426" lon="14.089005663363663"><ele>42.0</ele><time>2026-04-11T15:51:04.993Z</time></trkpt><trkpt lat="42.48507664427753" lon="14.088916679511183"><ele>42.0</ele><time>2026-04-11T15:51:05.993Z</time></trkpt><trkpt lat="42.48515328516482" lon="14.088775738770302"><ele>42.0</ele><time>2026-04-11T15:51:06.993Z</time></trkpt><trkpt lat="42.48520581633938" lon="14.088595126214168"><ele>42.0</ele><time>2026-04-11T15:51:07.993Z</time></trkpt><trkpt lat="42.48525118116313" lon="14.088388587203957"><ele>44.66666666666667</ele><time>2026-04-11T15:51:08.993Z</time></trkpt><trkpt lat="42.485310724831585" lon="14.088178040623784"><ele>47.333333333333336</ele><time>2026-04-11T15:51:09.993Z</time></trkpt><trkpt lat="42.485396368697245" lon="14.0879694964726"><ele>50.0</ele><time>2026-04-11T15:51:10.995Z</time></trkpt><trkpt lat="42.48550557616044" lon="14.087769063463254"><ele>50.0</ele><time>2026-04-11T15:51:11.995Z</time></trkpt><trkpt lat="42.48563716923057" lon="14.087583104937634"><ele>50.0</ele><time>2026-04-11T15:51:12.995Z</time></trkpt><trkpt lat="42.4857704675022" lon="14.087409472824357"><ele>50.0</ele><time>2026-04-11T15:51:13.995Z</time></trkpt><trkpt lat="42.48587822395444" lon="14.087247452393651"><ele>51.6</ele><time>2026-04-11T15:51:14.995Z</time></trkpt><trkpt lat="42.48597294043487" lon="14.087103837447327"><ele>53.2</ele><time>2026-04-11T15:51:15.996Z</time></trkpt><trkpt lat="42.486064504021876" lon="14.086976615675452"><ele>54.8</ele><time>2026-04-11T15:51:16.996Z</time></trkpt><trkpt lat="42.48614193154914" lon="14.086880827159593"><ele>56.4</ele><time>2026-04-11T15:51:17.996Z</time></trkpt><trkpt lat="42.48618020691767" lon="14.086799699743784"><ele>58.0</ele><time>2026-04-11T15:51:18.997Z</time></trkpt><trkpt lat="42.48619267995779" lon="14.086703059644945"><ele>58.00000000000001</ele><time>2026-04-11T15:51:19.997Z</time></trkpt><trkpt lat="42.48617638653882" lon="14.086614006742055"><ele>58.0</ele><time>2026-04-11T15:51:20.997Z</time></trkpt><trkpt lat="42.48613154367813" lon="14.086539218631966"><ele>58.00000000000001</ele><time>2026-04-11T15:51:21.997Z</time></trkpt><trkpt lat="42.48607138448091" lon="14.08648843595348"><ele>58.00000000000001</ele><time>2026-04-11T15:51:22.997Z</time></trkpt><trkpt lat="42.48599934100018" lon="14.086477417122413"><ele>58.0</ele><time>2026-04-11T15:51:23.998Z</time></trkpt><trkpt lat="42.485926074892284" lon="14.086500146675554"><ele>58.00000000000001</ele><time>2026-04-11T15:51:24.998Z</time></trkpt><trkpt lat="42.485853252640084" lon="14.086557660830884"><ele>58.00000000000001</ele><time>2026-04-11T15:51:25.998Z</time></trkpt><trkpt lat="42.4857701511317" lon="14.086640851610662"><ele>58.0</ele><time>2026-04-11T15:51:26.998Z</time></trkpt><trkpt lat="42.485661295075396" lon="14.086752572554493"><ele>58.0</ele><time>2026-04-11T15:51:27.998Z</time></trkpt><trkpt lat="42.485539225590806" lon="14.08686275387798"><ele>58.0</ele><time>2026-04-11T15:51:28.998Z</time></trkpt><trkpt lat="42.485435733946616" lon="14.086962614012105"><ele>58.0</ele><time>2026-04-11T15:51:29.998Z</time></trkpt><trkpt lat="42.48534564836834" lon="14.087058704493026"><ele>58.599999999999994</ele><time>2026-04-11T15:51:30.998Z</time></trkpt><trkpt lat="42.48526009206825" lon="14.087159874726087"><ele>59.199999999999996</ele><time>2026-04-11T15:51:31.998Z</time></trkpt><trkpt lat="42.48517907247924" lon="14.087244773736323"><ele>59.8</ele><time>2026-04-11T15:51:32.999Z</time></trkpt><trkpt lat="42.48510564662958" lon="14.087298203543954"><ele>60.4</ele><time>2026-04-11T15:51:33.999Z</time></trkpt><trkpt lat="42.48502540658977" lon="14.08732136202982"><ele>61.0</ele><time>2026-04-11T15:51:34.999Z</time></trkpt><trkpt lat="42.48494167889497" lon="14.087306453516897"><ele>60.99999999999999</ele><time>2026-04-11T15:51:35.999Z</time></trkpt><trkpt lat="42.484867239942034" lon="14.087251385796359"><ele>61.0</ele><time>2026-04-11T15:51:36.999Z</time></trkpt><trkpt lat="42.48480950617671" lon="14.087158374560218"><ele>61.0</ele><time>2026-04-11T15:51:37.999Z</time></trkpt><trkpt lat="42.48478470462867" lon="14.087044960788916"><ele>61.0</ele><time>2026-04-11T15:51:38.999Z</time></trkpt><trkpt lat="42.48478159769191" lon="14.086930277001127"><ele>60.99999999999999</ele><time>2026-04-11T15:51:39.999Z</time></trkpt><trkpt lat="42.48480858976796" lon="14.086808922454383"><ele>61.0</ele><time>2026-04-11T15:51:40.999Z</time></trkpt><trkpt lat="42.48486259580153" lon="14.086672851109878"><ele>62.0</ele><time>2026-04-11T15:51:41.999Z</time></trkpt><trkpt lat="42.484933030934336" lon="14.086515043132934"><ele>63.0</ele><time>2026-04-11T15:51:42.999Z</time></trkpt><trkpt lat="42.485007953636256" lon="14.086344851924808"><ele>64.0</ele><time>2026-04-11T15:51:43.999Z</time></trkpt><trkpt lat="42.48507438481714" lon="14.086182181895165"><ele>65.0</ele><time>2026-04-11T15:51:44.999Z</time></trkpt><trkpt lat="42.4851466534335" lon="14.086011272112145"><ele>65.0</ele><time>2026-04-11T15:51:45.999Z</time></trkpt><trkpt lat="42.485230416570005" lon="14.085829517133961"><ele>65.0</ele><time>2026-04-11T15:51:46.999Z</time></trkpt><trkpt lat="42.48531722254594" lon="14.085637632282102"><ele>65.0</ele><time>2026-04-11T15:51:47.999Z</time></trkpt><trkpt lat="42.48539985796381" lon="14.085438329316466"><ele>66.33333333333334</ele><time>2026-04-11T15:51:48.999Z</time></trkpt><trkpt lat="42.48548210139263" lon="14.085244843493449"><ele>67.66666666666667</ele><time>2026-04-11T15:51:49.999Z</time></trkpt><trkpt lat="42.48555734704645" lon="14.085068775436802"><ele>69.0</ele><time>2026-04-11T15:51:50.999Z</time></trkpt><trkpt lat="42.48563033265726" lon="14.084890987337976"><ele>69.5</ele><time>2026-04-11T15:51:51.999Z</time></trkpt><trkpt lat="42.48570953296071" lon="14.08470901458481"><ele>70.0</ele><time>2026-04-11T15:51:52.999Z</time></trkpt><trkpt lat="42.48577755962506" lon="14.08453512926201"><ele>70.5</ele><time>2026-04-11T15:51:53.999Z</time></trkpt><trkpt lat="42.48586357539798" lon="14.084377815799048"><ele>71.0</ele><time>2026-04-11T15:51:54.999Z</time></trkpt><trkpt lat="42.485937502537084" lon="14.084209626355479"><ele>71.25</ele><time>2026-04-11T15:51:55.999Z</time></trkpt><trkpt lat="42.48599842324237" lon="14.084037925586353"><ele>71.5</ele><time>2026-04-11T15:51:56.999Z</time></trkpt><trkpt lat="42.48606293229793" lon="14.083883541810355"><ele>71.75</ele><time>2026-04-11T15:51:57.999Z</time></trkpt><trkpt lat="42.48612676355321" lon="14.083721632250043"><ele>72.0</ele><time>2026-04-11T15:51:58.999Z</time></trkpt><trkpt lat="42.48618239410196" lon="14.083542433762991"><ele>72.0</ele><time>2026-04-11T15:51:59.999Z</time></trkpt><trkpt lat="42.48621835710601" lon="14.083333728817"><ele>72.0</ele><time>2026-04-11T15:52:00.999Z</time></trkpt><trkpt lat="42.48624437955085" lon="14.083111591404638"><ele>72.0</ele><time>2026-04-11T15:52:01.999Z</time></trkpt><trkpt lat="42.48626474424774" lon="14.082882414766859"><ele>75.25</ele><time>2026-04-11T15:52:02.999Z</time></trkpt><trkpt lat="42.48628768393552" lon="14.082675411917712"><ele>78.5</ele><time>2026-04-11T15:52:03.999Z</time></trkpt><trkpt lat="42.48631838190539" lon="14.082489845586286"><ele>81.75</ele><time>2026-04-11T15:52:04.999Z</time></trkpt><trkpt lat="42.4863455679115" lon="14.082309811094046"><ele>85.0</ele><time>2026-04-11T15:52:05.999Z</time></trkpt><trkpt lat="42.48637108783927" lon="14.082129680378973"><ele>85.25</ele><time>2026-04-11T15:52:06.999Z</time></trkpt><trkpt lat="42.4863923144722" lon="14.081956939374306"><ele>85.5</ele><time>2026-04-11T15:52:07.999Z</time></trkpt><trkpt lat="42.486401671307235" lon="14.081789367807028"><ele>85.75</ele><time>2026-04-11T15:52:08.999Z</time></trkpt><trkpt lat="42.4863971003265" lon="14.081614281882743"><ele>86.0</ele><time>2026-04-11T15:52:09.999Z</time></trkpt><trkpt lat="42.48636938625124" lon="14.081431478575274"><ele>86.25</ele><time>2026-04-11T15:52:10.999Z</time></trkpt><trkpt lat="42.486320014591385" lon="14.081245306588611"><ele>86.5</ele><time>2026-04-11T15:52:11.999Z</time></trkpt><trkpt lat="42.48626023105285" lon="14.081059659396772"><ele>86.75</ele><time>2026-04-11T15:52:12.999Z</time></trkpt><trkpt lat="42.48619989080233" lon="14.080894890306041"><ele>87.0</ele><time>2026-04-11T15:52:13.999Z</time></trkpt><trkpt lat="42.48614285461518" lon="14.080742891840922"><ele>86.6</ele><time>2026-04-11T15:52:14.999Z</time></trkpt><trkpt lat="42.4860999138736" lon="14.080604607469903"><ele>86.19999999999999</ele><time>2026-04-11T15:52:15.999Z</time></trkpt><trkpt lat="42.48608053089547" lon="14.080472625377569"><ele>85.8</ele><time>2026-04-11T15:52:16.999Z</time></trkpt><trkpt lat="42.486090213784365" lon="14.080339762423597"><ele>85.4</ele><time>2026-04-11T15:52:17.999Z</time></trkpt><trkpt lat="42.48612636524163" lon="14.08020769208763"><ele>85.0</ele><time>2026-04-11T15:52:18.999Z</time></trkpt><trkpt lat="42.48618642423749" lon="14.08009667617463"><ele>85.75</ele><time>2026-04-11T15:52:19.999Z</time></trkpt><trkpt lat="42.48627061362562" lon="14.080004551606535"><ele>86.5</ele><time>2026-04-11T15:52:20.999Z</time></trkpt><trkpt lat="42.48637358705604" lon="14.07992092314526"><ele>87.25</ele><time>2026-04-11T15:52:21.999Z</time></trkpt><trkpt lat="42.48649132089137" lon="14.079841304706017"><ele>88.0</ele><time>2026-04-11T15:52:22.999Z</time></trkpt><trkpt lat="42.48661911676696" lon="14.079757058250065"><ele>88.0</ele><time>2026-04-11T15:52:23.999Z</time></trkpt><trkpt lat="42.48674320520874" lon="14.079669088734171"><ele>88.0</ele><time>2026-04-11T15:52:24.999Z</time></trkpt><trkpt lat="42.48685672554265" lon="14.079579489570468"><ele>88.0</ele><time>2026-04-11T15:52:25.999Z</time></trkpt><trkpt lat="42.48697043358979" lon="14.079492778011996"><ele>88.0</ele><time>2026-04-11T15:52:26.999Z</time></trkpt><trkpt lat="42.48708345892353" lon="14.07941404403909"><ele>89.4</ele><time>2026-04-11T15:52:27.999Z</time></trkpt><trkpt lat="42.48718487109621" lon="14.079344091811105"><ele>90.80000000000001</ele><time>2026-04-11T15:52:28.999Z</time></trkpt><trkpt lat="42.48727676080245" lon="14.079279552502697"><ele>92.2</ele><time>2026-04-11T15:52:29.999Z</time></trkpt><trkpt lat="42.48735723259937" lon="14.079219092407126"><ele>93.6</ele><time>2026-04-11T15:52:30.999Z</time></trkpt><trkpt lat="42.48743346619652" lon="14.079168636839665"><ele>95.0</ele><time>2026-04-11T15:52:31.999Z</time></trkpt><trkpt lat="42.487501306586836" lon="14.07914249896235"><ele>95.0</ele><time>2026-04-11T15:52:32.999Z</time></trkpt><trkpt lat="42.487564267619156" lon="14.079148461645875"><ele>95.0</ele><time>2026-04-11T15:52:33.999Z</time></trkpt><trkpt lat="42.48763066070282" lon="14.079164020609777"><ele>95.0</ele><time>2026-04-11T15:52:34.999Z</time></trkpt><trkpt lat="42.48769337443222" lon="14.079148839122468"><ele>95.0</ele><time>2026-04-11T15:52:35.999Z</time></trkpt><trkpt lat="42.48776921549471" lon="14.079019159753031"><ele>95.0</ele><time>2026-04-11T15:52:37.999Z</time></trkpt><trkpt lat="42.48774923382845" lon="14.078854072683495"><ele>95.0</ele><time>2026-04-11T15:52:39.999Z</time></trkpt><trkpt lat="42.48769041601526" lon="14.078790759000176"><ele>95.2</ele><time>2026-04-11T15:52:40.999Z</time></trkpt><trkpt lat="42.48762432797048" lon="14.07872540720511"><ele>95.4</ele><time>2026-04-11T15:52:41.999Z</time></trkpt><trkpt lat="42.48755976812769" lon="14.078643781931165"><ele>95.6</ele><time>2026-04-11T15:52:42.999Z</time></trkpt><trkpt lat="42.487506908823" lon="14.078520069255635"><ele>95.8</ele><time>2026-04-11T15:52:43.999Z</time></trkpt><trkpt lat="42.48745683659558" lon="14.078372487149307"><ele>96.0</ele><time>2026-04-11T15:52:44.999Z</time></trkpt><trkpt lat="42.48739661706068" lon="14.078205824195992"><ele>96.0</ele><time>2026-04-11T15:52:45.999Z</time></trkpt><trkpt lat="42.48733706121282" lon="14.078043140698902"><ele>96.0</ele><time>2026-04-11T15:52:46.999Z</time></trkpt><trkpt lat="42.48727738214958" lon="14.077878540608193"><ele>96.0</ele><time>2026-04-11T15:52:47.999Z</time></trkpt><trkpt lat="42.487221820416245" lon="14.077693826565968"><ele>96.0</ele><time>2026-04-11T15:52:48.999Z</time></trkpt><trkpt lat="42.48717792950308" lon="14.077496647234737"><ele>95.0</ele><time>2026-04-11T15:52:49.999Z</time></trkpt><trkpt lat="42.487143995963905" lon="14.077284165172951"><ele>94.0</ele><time>2026-04-11T15:52:50.999Z</time></trkpt><trkpt lat="42.48712484494166" lon="14.07705758581005"><ele>93.0</ele><time>2026-04-11T15:52:51.999Z</time></trkpt><trkpt lat="42.48711393130999" lon="14.076834434144605"><ele>93.0</ele><time>2026-04-11T15:52:52.999Z</time></trkpt><trkpt lat="42.48711733753118" lon="14.076603579571302"><ele>93.0</ele><time>2026-04-11T15:52:53.999Z</time></trkpt><trkpt lat="42.487132122380615" lon="14.07635983379394"><ele>93.0</ele><time>2026-04-11T15:52:54.999Z</time></trkpt><trkpt lat="42.487171721008046" lon="14.076123083614604"><ele>93.0</ele><time>2026-04-11T15:52:55.999Z</time></trkpt><trkpt lat="42.48723255630702" lon="14.07589530369888"><ele>93.0</ele><time>2026-04-11T15:52:56.999Z</time></trkpt><trkpt lat="42.487295531209384" lon="14.07567442663927"><ele>93.0</ele><time>2026-04-11T15:52:57.999Z</time></trkpt><trkpt lat="42.48735288942317" lon="14.075493211106188"><ele>93.25</ele><time>2026-04-11T15:52:58.999Z</time></trkpt><trkpt lat="42.48740204197619" lon="14.075333001867945"><ele>93.5</ele><time>2026-04-11T15:52:59.999Z</time></trkpt><trkpt lat="42.487427109073295" lon="14.075153675329544"><ele>93.75</ele><time>2026-04-11T15:53:00.999Z</time></trkpt><trkpt lat="42.48743496205217" lon="14.074935929975497"><ele>94.0</ele><time>2026-04-11T15:53:01.999Z</time></trkpt><trkpt lat="42.487410316944576" lon="14.074700563295906"><ele>93.33333333333333</ele><time>2026-04-11T15:53:02.999Z</time></trkpt><trkpt lat="42.48738152631273" lon="14.074477422654288"><ele>92.66666666666667</ele><time>2026-04-11T15:53:03.999Z</time></trkpt><trkpt lat="42.48735449838837" lon="14.0742705398051"><ele>92.0</ele><time>2026-04-11T15:53:04.998Z</time></trkpt><trkpt lat="42.48734950923939" lon="14.074069934839125"><ele>92.0</ele><time>2026-04-11T15:53:05.998Z</time></trkpt><trkpt lat="42.48736684557866" lon="14.073890701558454"><ele>92.0</ele><time>2026-04-11T15:53:06.998Z</time></trkpt><trkpt lat="42.48740659651757" lon="14.073706189820651"><ele>92.0</ele><time>2026-04-11T15:53:07.998Z</time></trkpt><trkpt lat="42.48746318960556" lon="14.073542143841314"><ele>92.0</ele><time>2026-04-11T15:53:08.998Z</time></trkpt><trkpt lat="42.48755524703059" lon="14.073373859432364"><ele>91.25</ele><time>2026-04-11T15:53:09.998Z</time></trkpt><trkpt lat="42.48767771518344" lon="14.073248672242574"><ele>90.5</ele><time>2026-04-11T15:53:10.998Z</time></trkpt><trkpt lat="42.48777538655901" lon="14.073128086079107"><ele>89.75</ele><time>2026-04-11T15:53:11.998Z</time></trkpt><trkpt lat="42.48786665174755" lon="14.07304142912129"><ele>89.0</ele><time>2026-04-11T15:53:12.998Z</time></trkpt><trkpt lat="42.48793539103975" lon="14.07292312834765"><ele>90.2</ele><time>2026-04-11T15:53:13.998Z</time></trkpt><trkpt lat="42.4879766384936" lon="14.072783827867482"><ele>91.4</ele><time>2026-04-11T15:53:14.998Z</time></trkpt><trkpt lat="42.48797668482381" lon="14.07262772653069"><ele>92.6</ele><time>2026-04-11T15:53:15.998Z</time></trkpt><trkpt lat="42.48794657129775" lon="14.072487965520912"><ele>93.8</ele><time>2026-04-11T15:53:17Z</time></trkpt><trkpt lat="42.48787568989458" lon="14.072371171562484"><ele>95.0</ele><time>2026-04-11T15:53:18Z</time></trkpt><trkpt lat="42.4877786816374" lon="14.072296388365409"><ele>95.25</ele><time>2026-04-11T15:53:19Z</time></trkpt><trkpt lat="42.48765134436678" lon="14.072251188655997"><ele>95.5</ele><time>2026-04-11T15:53:20Z</time></trkpt><trkpt lat="42.48750954654217" lon="14.072246256581543"><ele>95.75</ele><time>2026-04-11T15:53:21Z</time></trkpt><trkpt lat="42.48734907422634" lon="14.072246962876944"><ele>96.0</ele><time>2026-04-11T15:53:22Z</time></trkpt><trkpt lat="42.487191721917966" lon="14.072217785254"><ele>93.5</ele><time>2026-04-11T15:53:23Z</time></trkpt><trkpt lat="42.48703990206991" lon="14.07217365397019"><ele>91.0</ele><time>2026-04-11T15:53:24Z</time></trkpt><trkpt lat="42.486901282429706" lon="14.072124349572306"><ele>88.5</ele><time>2026-04-11T15:53:25Z</time></trkpt><trkpt lat="42.48678147972063" lon="14.07206599749752"><ele>86.0</ele><time>2026-04-11T15:53:26Z</time></trkpt><trkpt lat="42.486675789595175" lon="14.071998010487837"><ele>86.0</ele><time>2026-04-11T15:53:27Z</time></trkpt><trkpt lat="42.48658660623234" lon="14.071898417755735"><ele>86.0</ele><time>2026-04-11T15:53:28Z</time></trkpt><trkpt lat="42.48651106934251" lon="14.071766698109943"><ele>86.0</ele><time>2026-04-11T15:53:29Z</time></trkpt><trkpt lat="42.48644610307736" lon="14.071607857424059"><ele>86.0</ele><time>2026-04-11T15:53:30Z</time></trkpt><trkpt lat="42.48639477691053" lon="14.071419895827697"><ele>86.5</ele><time>2026-04-11T15:53:31Z</time></trkpt><trkpt lat="42.486352989039275" lon="14.07121640794403"><ele>87.0</ele><time>2026-04-11T15:53:32Z</time></trkpt><trkpt lat="42.486310498871354" lon="14.071028771466576"><ele>87.5</ele><time>2026-04-11T15:53:33Z</time></trkpt><trkpt lat="42.48627561218165" lon="14.070852700507928"><ele>88.0</ele><time>2026-04-11T15:53:34Z</time></trkpt><trkpt lat="42.48624999869177" lon="14.070691808917422"><ele>87.5</ele><time>2026-04-11T15:53:35Z</time></trkpt><trkpt lat="42.486238264302926" lon="14.07052700125581"><ele>87.0</ele><time>2026-04-11T15:53:36Z</time></trkpt><trkpt lat="42.486244737570665" lon="14.070354447642803"><ele>86.5</ele><time>2026-04-11T15:53:37Z</time></trkpt><trkpt lat="42.486264883733774" lon="14.070176359955152"><ele>86.0</ele><time>2026-04-11T15:53:38Z</time></trkpt><trkpt lat="42.4862873400112" lon="14.069980999634383"><ele>83.66666666666667</ele><time>2026-04-11T15:53:39Z</time></trkpt><trkpt lat="42.48631257599665" lon="14.06977441557692"><ele>81.33333333333333</ele><time>2026-04-11T15:53:40Z</time></trkpt><trkpt lat="42.486344480196514" lon="14.069556189821965"><ele>79.0</ele><time>2026-04-11T15:53:41Z</time></trkpt><trkpt lat="42.48637628090968" lon="14.069343896209936"><ele>79.0</ele><time>2026-04-11T15:53:42Z</time></trkpt><trkpt lat="42.48640162104595" lon="14.069118645547698"><ele>79.0</ele><time>2026-04-11T15:53:43Z</time></trkpt><trkpt lat="42.486423854305556" lon="14.068902173981751"><ele>79.0</ele><time>2026-04-11T15:53:44Z</time></trkpt><trkpt lat="42.48643687472487" lon="14.068695240124782"><ele>78.33333333333333</ele><time>2026-04-11T15:53:45Z</time></trkpt><trkpt lat="42.486443037089835" lon="14.06847642026969"><ele>77.66666666666667</ele><time>2026-04-11T15:53:46Z</time></trkpt><trkpt lat="42.48643818031593" lon="14.068248663496147"><ele>77.0</ele><time>2026-04-11T15:53:47Z</time></trkpt><trkpt lat="42.48642354286796" lon="14.068013639474886"><ele>77.0</ele><time>2026-04-11T15:53:48Z</time></trkpt><trkpt lat="42.486408976310074" lon="14.067776527756106"><ele>77.0</ele><time>2026-04-11T15:53:49Z</time></trkpt><trkpt lat="42.48639720395476" lon="14.067536505911818"><ele>77.0</ele><time>2026-04-11T15:53:50Z</time></trkpt><trkpt lat="42.48638761251613" lon="14.06729297214476"><ele>76.66666666666667</ele><time>2026-04-11T15:53:51Z</time></trkpt><trkpt lat="42.486377675812754" lon="14.067046577998276"><ele>76.33333333333333</ele><time>2026-04-11T15:53:52Z</time></trkpt><trkpt lat="42.486366444459264" lon="14.066797647189228"><ele>76.0</ele><time>2026-04-11T15:53:53Z</time></trkpt><trkpt lat="42.48635791287107" lon="14.0665477811845"><ele>76.66666666666666</ele><time>2026-04-11T15:53:54Z</time></trkpt><trkpt lat="42.48634910644696" lon="14.066294199193141"><ele>77.33333333333333</ele><time>2026-04-11T15:53:55Z</time></trkpt><trkpt lat="42.486334745793364" lon="14.06603228857305"><ele>78.0</ele><time>2026-04-11T15:53:56Z</time></trkpt><trkpt lat="42.48631955321837" lon="14.065769703574048"><ele>78.66666666666667</ele><time>2026-04-11T15:53:57Z</time></trkpt><trkpt lat="42.486304895286054" lon="14.065517527686874"><ele>79.33333333333334</ele><time>2026-04-11T15:53:58Z</time></trkpt><trkpt lat="42.48629652097651" lon="14.065262378323432"><ele>80.0</ele><time>2026-04-11T15:53:59Z</time></trkpt><trkpt lat="42.48629173585801" lon="14.064985243391494"><ele>80.33333333333334</ele><time>2026-04-11T15:54:00Z</time></trkpt><trkpt lat="42.4862798317163" lon="14.064710089316957"><ele>80.66666666666667</ele><time>2026-04-11T15:54:01Z</time></trkpt><trkpt lat="42.4862641028491" lon="14.064456891709593"><ele>81.0</ele><time>2026-04-11T15:54:02Z</time></trkpt><trkpt lat="42.48624970952895" lon="14.064209954412464"><ele>75.33333333333333</ele><time>2026-04-11T15:54:03Z</time></trkpt><trkpt lat="42.486233759084435" lon="14.063949925494128"><ele>69.66666666666666</ele><time>2026-04-11T15:54:04Z</time></trkpt><trkpt lat="42.48620583511068" lon="14.063685391733438"><ele>64.0</ele><time>2026-04-11T15:54:05Z</time></trkpt><trkpt lat="42.48617511642591" lon="14.06343461148075"><ele>65.66666666666666</ele><time>2026-04-11T15:54:06Z</time></trkpt><trkpt lat="42.48614766991698" lon="14.063197926105955"><ele>67.33333333333333</ele><time>2026-04-11T15:54:07Z</time></trkpt><trkpt lat="42.486121861109346" lon="14.062970861387317"><ele>69.0</ele><time>2026-04-11T15:54:08Z</time></trkpt><trkpt lat="42.48610104155767" lon="14.062752520101704"><ele>69.0</ele><time>2026-04-11T15:54:09Z</time></trkpt><trkpt lat="42.48608173563779" lon="14.062538728967969"><ele>69.0</ele><time>2026-04-11T15:54:09.999Z</time></trkpt><trkpt lat="42.486062079763066" lon="14.062332968751969"><ele>69.0</ele><time>2026-04-11T15:54:10.999Z</time></trkpt><trkpt lat="42.486038319186804" lon="14.062132743281254"><ele>69.75</ele><time>2026-04-11T15:54:11.999Z</time></trkpt><trkpt lat="42.486014224997696" lon="14.061943876203626"><ele>70.5</ele><time>2026-04-11T15:54:12.999Z</time></trkpt><trkpt lat="42.48599173954189" lon="14.061772230125385"><ele>71.25</ele><time>2026-04-11T15:54:13.999Z</time></trkpt><trkpt lat="42.48596118325995" lon="14.061599623510169"><ele>72.0</ele><time>2026-04-11T15:54:14.999Z</time></trkpt><trkpt lat="42.48591712883923" lon="14.061446897696916"><ele>72.6</ele><time>2026-04-11T15:54:15.999Z</time></trkpt><trkpt lat="42.48585411664223" lon="14.061314262028672"><ele>73.2</ele><time>2026-04-11T15:54:16.999Z</time></trkpt><trkpt lat="42.48578649258538" lon="14.061193389040596"><ele>73.8</ele><time>2026-04-11T15:54:17.999Z</time></trkpt><trkpt lat="42.48572133785405" lon="14.061082040683347"><ele>74.4</ele><time>2026-04-11T15:54:18.999Z</time></trkpt><trkpt lat="42.48566762516984" lon="14.060959173828854"><ele>75.0</ele><time>2026-04-11T15:54:19.999Z</time></trkpt><trkpt lat="42.485633690054485" lon="14.060828340795153"><ele>74.6</ele><time>2026-04-11T15:54:20.999Z</time></trkpt><trkpt lat="42.48562200967344" lon="14.060692430244938"><ele>74.2</ele><time>2026-04-11T15:54:21.999Z</time></trkpt><trkpt lat="42.48563247165439" lon="14.060559700500338"><ele>73.8</ele><time>2026-04-11T15:54:22.999Z</time></trkpt><trkpt lat="42.485666967043635" lon="14.060437045066843"><ele>73.4</ele><time>2026-04-11T15:54:23.999Z</time></trkpt><trkpt lat="42.485695426848906" lon="14.06032109072141"><ele>73.0</ele><time>2026-04-11T15:54:24.999Z</time></trkpt><trkpt lat="42.48571534339124" lon="14.060231873540735"><ele>73.0</ele><time>2026-04-11T15:54:25.999Z</time></trkpt><trkpt lat="42.48577420817136" lon="14.060097695135843"><ele>73.0</ele><time>2026-04-11T15:54:27.999Z</time></trkpt><trkpt lat="42.4858739707808" lon="14.060094879746401"><ele>73.0</ele><time>2026-04-11T15:54:29.999Z</time></trkpt><trkpt lat="42.48595492008015" lon="14.060096802021004"><ele>73.0</ele><time>2026-04-11T15:54:30.999Z</time></trkpt><trkpt lat="42.48605325110134" lon="14.060095551968033"><ele>73.0</ele><time>2026-04-11T15:54:31.999Z</time></trkpt><trkpt lat="42.48616848867289" lon="14.060090963044628"><ele>74.75</ele><time>2026-04-11T15:54:32.999Z</time></trkpt><trkpt lat="42.48627732225684" lon="14.060060913072665"><ele>76.5</ele><time>2026-04-11T15:54:33.999Z</time></trkpt><trkpt lat="42.48639104569441" lon="14.060052075337111"><ele>78.25</ele><time>2026-04-11T15:54:34.999Z</time></trkpt><trkpt lat="42.48652114113116" lon="14.060032851645568"><ele>80.0</ele><time>2026-04-11T15:54:35.999Z</time></trkpt><trkpt lat="42.486660874546516" lon="14.060020948225802"><ele>80.0</ele><time>2026-04-11T15:54:36.999Z</time></trkpt><trkpt lat="42.48680913477812" lon="14.060004510510588"><ele>80.0</ele><time>2026-04-11T15:54:37.999Z</time></trkpt><trkpt lat="42.48695239445142" lon="14.059978621860768"><ele>80.0</ele><time>2026-04-11T15:54:38.999Z</time></trkpt><trkpt lat="42.48710998735852" lon="14.059953461455509"><ele>82.0</ele><time>2026-04-11T15:54:39.999Z</time></trkpt><trkpt lat="42.48726359862822" lon="14.059920308752941"><ele>84.0</ele><time>2026-04-11T15:54:40.999Z</time></trkpt><trkpt lat="42.487419566622556" lon="14.05987447253624"><ele>86.0</ele><time>2026-04-11T15:54:41.999Z</time></trkpt><trkpt lat="42.48758428155435" lon="14.05983233367575"><ele>86.0</ele><time>2026-04-11T15:54:42.999Z</time></trkpt><trkpt lat="42.48774364007151" lon="14.059794475896615"><ele>86.0</ele><time>2026-04-11T15:54:43.999Z</time></trkpt><trkpt lat="42.48790561022859" lon="14.05975919325963"><ele>86.0</ele><time>2026-04-11T15:54:44.999Z</time></trkpt><trkpt lat="42.48805932070217" lon="14.059721474181751"><ele>89.0</ele><time>2026-04-11T15:54:45.999Z</time></trkpt><trkpt lat="42.48821281426079" lon="14.05968634623262"><ele>92.0</ele><time>2026-04-11T15:54:46.999Z</time></trkpt><trkpt lat="42.48836579659238" lon="14.059651546406181"><ele>95.0</ele><time>2026-04-11T15:54:47.999Z</time></trkpt><trkpt lat="42.48850717566928" lon="14.059657265577234"><ele>95.0</ele><time>2026-04-11T15:54:48.999Z</time></trkpt><trkpt lat="42.488648198278334" lon="14.059661788832452"><ele>95.0</ele><time>2026-04-11T15:54:49.999Z</time></trkpt><trkpt lat="42.48879627043577" lon="14.059652477263276"><ele>95.0</ele><time>2026-04-11T15:54:50.999Z</time></trkpt><trkpt lat="42.48894077823628" lon="14.059662104931459"><ele>95.0</ele><time>2026-04-11T15:54:51.999Z</time></trkpt><trkpt lat="42.48908698040881" lon="14.05968558897193"><ele>95.25</ele><time>2026-04-11T15:54:52.999Z</time></trkpt><trkpt lat="42.48922585338569" lon="14.059717275727902"><ele>95.5</ele><time>2026-04-11T15:54:53.999Z</time></trkpt><trkpt lat="42.489372190115674" lon="14.059757000684044"><ele>95.75</ele><time>2026-04-11T15:54:54.999Z</time></trkpt><trkpt lat="42.489504577839256" lon="14.05979194805879"><ele>96.0</ele><time>2026-04-11T15:54:55.999Z</time></trkpt><trkpt lat="42.48963465275183" lon="14.059824587508817"><ele>96.0</ele><time>2026-04-11T15:54:56.999Z</time></trkpt><trkpt lat="42.489763780076586" lon="14.05985974205335"><ele>96.0</ele><time>2026-04-11T15:54:57.999Z</time></trkpt><trkpt lat="42.489896045715355" lon="14.059881449699676"><ele>96.0</ele><time>2026-04-11T15:54:58.999Z</time></trkpt><trkpt lat="42.49002779786005" lon="14.059886736823458"><ele>96.0</ele><time>2026-04-11T15:54:59.999Z</time></trkpt><trkpt lat="42.490163072848325" lon="14.059884746878199"><ele>96.0</ele><time>2026-04-11T15:55:00.999Z</time></trkpt><trkpt lat="42.4902949263622" lon="14.0598877344457"><ele>96.0</ele><time>2026-04-11T15:55:01.999Z</time></trkpt><trkpt lat="42.49043185707939" lon="14.059889298505473"><ele>96.0</ele><time>2026-04-11T15:55:02.999Z</time></trkpt><trkpt lat="42.49056949536131" lon="14.059887882852607"><ele>96.0</ele><time>2026-04-11T15:55:03.999Z</time></trkpt><trkpt lat="42.49069655799059" lon="14.059885637995361"><ele>94.75</ele><time>2026-04-11T15:55:04.999Z</time></trkpt><trkpt lat="42.49081498733522" lon="14.059891876286814"><ele>93.5</ele><time>2026-04-11T15:55:05.999Z</time></trkpt><trkpt lat="42.49093114552144" lon="14.059924891565464"><ele>92.25</ele><time>2026-04-11T15:55:06.999Z</time></trkpt><trkpt lat="42.49104935568405" lon="14.059981179825847"><ele>91.0</ele><time>2026-04-11T15:55:07.999Z</time></trkpt><trkpt lat="42.49117182678646" lon="14.060067665906805"><ele>94.5</ele><time>2026-04-11T15:55:08.999Z</time></trkpt><trkpt lat="42.49129074612338" lon="14.060153960123683"><ele>98.0</ele><time>2026-04-11T15:55:09.999Z</time></trkpt><trkpt lat="42.49141573990927" lon="14.060244123706665"><ele>101.5</ele><time>2026-04-11T15:55:10.999Z</time></trkpt><trkpt lat="42.49154525657959" lon="14.06032666412615"><ele>105.0</ele><time>2026-04-11T15:55:11.999Z</time></trkpt><trkpt lat="42.491689595752945" lon="14.060390758236236"><ele>105.0</ele><time>2026-04-11T15:55:12.999Z</time></trkpt><trkpt lat="42.49184254310374" lon="14.060425880054874"><ele>105.0</ele><time>2026-04-11T15:55:13.999Z</time></trkpt><trkpt lat="42.492008729731474" lon="14.060464113467809"><ele>105.0</ele><time>2026-04-11T15:55:14.999Z</time></trkpt><trkpt lat="42.49216670215295" lon="14.060511495751834"><ele>103.66666666666666</ele><time>2026-04-11T15:55:15.999Z</time></trkpt><trkpt lat="42.492328360627276" lon="14.060576334555208"><ele>102.33333333333333</ele><time>2026-04-11T15:55:16.999Z</time></trkpt><trkpt lat="42.49249369507779" lon="14.060658157815705"><ele>101.0</ele><time>2026-04-11T15:55:17.999Z</time></trkpt><trkpt lat="42.492641216057876" lon="14.060743819390751"><ele>105.33333333333333</ele><time>2026-04-11T15:55:18.998Z</time></trkpt><trkpt lat="42.49277499546786" lon="14.060828560818724"><ele>109.66666666666666</ele><time>2026-04-11T15:55:19.998Z</time></trkpt><trkpt lat="42.492918207907536" lon="14.060909202700605"><ele>114.0</ele><time>2026-04-11T15:55:20.998Z</time></trkpt><trkpt lat="42.49306903767245" lon="14.060989891752868"><ele>114.0</ele><time>2026-04-11T15:55:21.998Z</time></trkpt><trkpt lat="42.49322539170273" lon="14.061067266170438"><ele>114.0</ele><time>2026-04-11T15:55:23Z</time></trkpt><trkpt lat="42.493383109817316" lon="14.06113792103743"><ele>114.0</ele><time>2026-04-11T15:55:24Z</time></trkpt><trkpt lat="42.49352674110912" lon="14.06117512571534"><ele>114.0</ele><time>2026-04-11T15:55:25Z</time></trkpt><trkpt lat="42.49367138736856" lon="14.061210560944453"><ele>114.0</ele><time>2026-04-11T15:55:26Z</time></trkpt><trkpt lat="42.49383141065254" lon="14.061280841506349"><ele>114.0</ele><time>2026-04-11T15:55:27Z</time></trkpt><trkpt lat="42.493986591257446" lon="14.061399661131679"><ele>113.66666666666666</ele><time>2026-04-11T15:55:28Z</time></trkpt><trkpt lat="42.49415363497825" lon="14.061494286918284"><ele>113.33333333333333</ele><time>2026-04-11T15:55:29Z</time></trkpt><trkpt lat="42.49430326363905" lon="14.061604670633676"><ele>113.0</ele><time>2026-04-11T15:55:30Z</time></trkpt><trkpt lat="42.49447167584668" lon="14.061699332636831"><ele>115.33333333333333</ele><time>2026-04-11T15:55:30.999Z</time></trkpt><trkpt lat="42.49466140437322" lon="14.061772996080052"><ele>117.66666666666666</ele><time>2026-04-11T15:55:31.999Z</time></trkpt><trkpt lat="42.494854630722266" lon="14.061832559993132"><ele>120.0</ele><time>2026-04-11T15:55:33Z</time></trkpt><trkpt lat="42.495049907094675" lon="14.061897102053905"><ele>120.0</ele><time>2026-04-11T15:55:34Z</time></trkpt><trkpt lat="42.4952270273094" lon="14.061959892157699"><ele>120.0</ele><time>2026-04-11T15:55:35Z</time></trkpt><trkpt lat="42.495382407049966" lon="14.06201571756933"><ele>120.0</ele><time>2026-04-11T15:55:36Z</time></trkpt><trkpt lat="42.49552535155127" lon="14.062052502425722"><ele>122.0</ele><time>2026-04-11T15:55:37Z</time></trkpt><trkpt lat="42.49566273492288" lon="14.062057383930908"><ele>124.0</ele><time>2026-04-11T15:55:38Z</time></trkpt><trkpt lat="42.49579408070511" lon="14.062026590710262"><ele>126.0</ele><time>2026-04-11T15:55:39Z</time></trkpt><trkpt lat="42.495915569315024" lon="14.061963897640181"><ele>128.0</ele><time>2026-04-11T15:55:40Z</time></trkpt><trkpt lat="42.496029042515964" lon="14.061876994679071"><ele>128.0</ele><time>2026-04-11T15:55:41Z</time></trkpt><trkpt lat="42.496163677676236" lon="14.061821851294745"><ele>128.0</ele><time>2026-04-11T15:55:42Z</time></trkpt><trkpt lat="42.49630782335699" lon="14.061738393455693"><ele>128.0</ele><time>2026-04-11T15:55:43Z</time></trkpt><trkpt lat="42.49647373174102" lon="14.06170482890917"><ele>131.66666666666666</ele><time>2026-04-11T15:55:44Z</time></trkpt><trkpt lat="42.49662389775015" lon="14.061609188311923"><ele>135.33333333333334</ele><time>2026-04-11T15:55:45Z</time></trkpt><trkpt lat="42.49676674445999" lon="14.0615068955113"><ele>139.0</ele><time>2026-04-11T15:55:46Z</time></trkpt><trkpt lat="42.496905146578854" lon="14.061404479230228"><ele>139.0</ele><time>2026-04-11T15:55:47Z</time></trkpt><trkpt lat="42.49705541136452" lon="14.061342431431996"><ele>139.0</ele><time>2026-04-11T15:55:48Z</time></trkpt><trkpt lat="42.49721360719703" lon="14.061280589684582"><ele>139.0</ele><time>2026-04-11T15:55:49Z</time></trkpt><trkpt lat="42.49737454851452" lon="14.061231552148703"><ele>139.0</ele><time>2026-04-11T15:55:50Z</time></trkpt><trkpt lat="42.49754657874532" lon="14.061186784930356"><ele>139.0</ele><time>2026-04-11T15:55:51Z</time></trkpt><trkpt lat="42.49771733974484" lon="14.061142508353669"><ele>139.0</ele><time>2026-04-11T15:55:52Z</time></trkpt><trkpt lat="42.49788916688358" lon="14.061072339794624"><ele>140.0</ele><time>2026-04-11T15:55:53Z</time></trkpt><trkpt lat="42.49806958571252" lon="14.06101903987673"><ele>141.0</ele><time>2026-04-11T15:55:54Z</time></trkpt><trkpt lat="42.49823630096657" lon="14.060961759293649"><ele>142.0</ele><time>2026-04-11T15:55:55Z</time></trkpt><trkpt lat="42.498390352481216" lon="14.060904668917464"><ele>142.0</ele><time>2026-04-11T15:55:56Z</time></trkpt><trkpt lat="42.49852697409718" lon="14.060862234023478"><ele>142.0</ele><time>2026-04-11T15:55:57Z</time></trkpt><trkpt lat="42.49865788583896" lon="14.060829318145531"><ele>142.0</ele><time>2026-04-11T15:55:58Z</time></trkpt><trkpt lat="42.498775363262276" lon="14.060807507234856"><ele>142.0</ele><time>2026-04-11T15:55:59Z</time></trkpt><trkpt lat="42.498903855630545" lon="14.060817597216277"><ele>143.0</ele><time>2026-04-11T15:56:00Z</time></trkpt><trkpt lat="42.49904218463314" lon="14.060846754103855"><ele>144.0</ele><time>2026-04-11T15:56:01Z</time></trkpt><trkpt lat="42.49918834067268" lon="14.060890062824607"><ele>145.0</ele><time>2026-04-11T15:56:02Z</time></trkpt><trkpt lat="42.49934285281504" lon="14.060955279280524"><ele>145.0</ele><time>2026-04-11T15:56:03Z</time></trkpt><trkpt lat="42.49949503735901" lon="14.061040420490816"><ele>145.0</ele><time>2026-04-11T15:56:04Z</time></trkpt><trkpt lat="42.49965249808258" lon="14.06114235677005"><ele>145.0</ele><time>2026-04-11T15:56:05Z</time></trkpt><trkpt lat="42.49980370528544" lon="14.061238112031097"><ele>145.25</ele><time>2026-04-11T15:56:06Z</time></trkpt><trkpt lat="42.49994255781938" lon="14.061331628256019"><ele>145.5</ele><time>2026-04-11T15:56:07Z</time></trkpt><trkpt lat="42.50006849452034" lon="14.061409604415454"><ele>145.75</ele><time>2026-04-11T15:56:08Z</time></trkpt><trkpt lat="42.50019867875855" lon="14.061468814538767"><ele>146.0</ele><time>2026-04-11T15:56:09Z</time></trkpt><trkpt lat="42.500353707887285" lon="14.061496994186504"><ele>145.25</ele><time>2026-04-11T15:56:10Z</time></trkpt><trkpt lat="42.500505890416875" lon="14.06149617002763"><ele>144.5</ele><time>2026-04-11T15:56:11Z</time></trkpt><trkpt lat="42.50064489071364" lon="14.061492597277464"><ele>143.75</ele><time>2026-04-11T15:56:12Z</time></trkpt><trkpt lat="42.50076615163974" lon="14.061484311420488"><ele>143.0</ele><time>2026-04-11T15:56:13Z</time></trkpt><trkpt lat="42.50087722168762" lon="14.061478253268868"><ele>143.0</ele><time>2026-04-11T15:56:14Z</time></trkpt><trkpt lat="42.50097962741882" lon="14.061480748016079"><ele>143.0</ele><time>2026-04-11T15:56:15Z</time></trkpt><trkpt lat="42.50105784955002" lon="14.06149987273197"><ele>143.0</ele><time>2026-04-11T15:56:16Z</time></trkpt><trkpt lat="42.5011479441511" lon="14.061502762450566"><ele>143.0</ele><time>2026-04-11T15:56:17Z</time></trkpt><trkpt lat="42.501262797210536" lon="14.061508644815842"><ele>143.0</ele><time>2026-04-11T15:56:18Z</time></trkpt><trkpt lat="42.5013815937409" lon="14.061529565939296"><ele>143.25</ele><time>2026-04-11T15:56:19Z</time></trkpt><trkpt lat="42.5015117391097" lon="14.06155040488694"><ele>143.5</ele><time>2026-04-11T15:56:20Z</time></trkpt><trkpt lat="42.501647420752484" lon="14.06159592335618"><ele>143.75</ele><time>2026-04-11T15:56:21Z</time></trkpt><trkpt lat="42.5017903870669" lon="14.061650639305753"><ele>144.0</ele><time>2026-04-11T15:56:21.999Z</time></trkpt><trkpt lat="42.50193861816413" lon="14.061708291351183"><ele>148.0</ele><time>2026-04-11T15:56:22.999Z</time></trkpt><trkpt lat="42.50208796318904" lon="14.061763651942304"><ele>152.0</ele><time>2026-04-11T15:56:23.999Z</time></trkpt><trkpt lat="42.50224160909476" lon="14.061833884585182"><ele>156.0</ele><time>2026-04-11T15:56:24.999Z</time></trkpt><trkpt lat="42.50238256897993" lon="14.061909986022096"><ele>156.0</ele><time>2026-04-11T15:56:25.999Z</time></trkpt><trkpt lat="42.502508953750954" lon="14.061995270212591"><ele>156.0</ele><time>2026-04-11T15:56:26.999Z</time></trkpt><trkpt lat="42.502642965425416" lon="14.062086394130912"><ele>156.0</ele><time>2026-04-11T15:56:27.999Z</time></trkpt><trkpt lat="42.502775083916994" lon="14.062167436491903"><ele>156.0</ele><time>2026-04-11T15:56:28.999Z</time></trkpt><trkpt lat="42.502900802571695" lon="14.062247823013626"><ele>156.5</ele><time>2026-04-11T15:56:29.999Z</time></trkpt><trkpt lat="42.50301981855989" lon="14.0623277130833"><ele>157.0</ele><time>2026-04-11T15:56:30.999Z</time></trkpt><trkpt lat="42.50314630356951" lon="14.062414303208062"><ele>157.5</ele><time>2026-04-11T15:56:31.999Z</time></trkpt><trkpt lat="42.50328345357108" lon="14.062539236176027"><ele>158.0</ele><time>2026-04-11T15:56:32.999Z</time></trkpt><trkpt lat="42.50342484501855" lon="14.062692980984869"><ele>158.0</ele><time>2026-04-11T15:56:33.999Z</time></trkpt><trkpt lat="42.50356514504436" lon="14.062844031045671"><ele>158.0</ele><time>2026-04-11T15:56:34.999Z</time></trkpt><trkpt lat="42.50371385901355" lon="14.062983988216441"><ele>158.0</ele><time>2026-04-11T15:56:35.999Z</time></trkpt><trkpt lat="42.5038783023885" lon="14.063109975632775"><ele>158.66666666666666</ele><time>2026-04-11T15:56:36.999Z</time></trkpt><trkpt lat="42.50405569145085" lon="14.063218742558842"><ele>159.33333333333334</ele><time>2026-04-11T15:56:37.999Z</time></trkpt><trkpt lat="42.504230645558295" lon="14.063323245603709"><ele>160.0</ele><time>2026-04-11T15:56:38.999Z</time></trkpt><trkpt lat="42.5043875965194" lon="14.063425698141447"><ele>160.0</ele><time>2026-04-11T15:56:39.999Z</time></trkpt><trkpt lat="42.50453386539396" lon="14.063526992733983"><ele>160.0</ele><time>2026-04-11T15:56:40.999Z</time></trkpt><trkpt lat="42.50468169709644" lon="14.063649844472028"><ele>160.0</ele><time>2026-04-11T15:56:41.999Z</time></trkpt><trkpt lat="42.504813581721066" lon="14.063810148576668"><ele>161.0</ele><time>2026-04-11T15:56:42.999Z</time></trkpt><trkpt lat="42.50494776351828" lon="14.06391830600736"><ele>162.0</ele><time>2026-04-11T15:56:43.999Z</time></trkpt><trkpt lat="42.505055748445834" lon="14.064017253016035"><ele>163.0</ele><time>2026-04-11T15:56:44.999Z</time></trkpt><trkpt lat="42.505162279124384" lon="14.064075290142094"><ele>164.0</ele><time>2026-04-11T15:56:45.999Z</time></trkpt><trkpt lat="42.50527228286229" lon="14.064101900361797"><ele>164.0</ele><time>2026-04-11T15:56:46.999Z</time></trkpt><trkpt lat="42.50538458572367" lon="14.064084779957117"><ele>164.0</ele><time>2026-04-11T15:56:47.999Z</time></trkpt><trkpt lat="42.505518973328265" lon="14.064056963198947"><ele>164.0</ele><time>2026-04-11T15:56:48.999Z</time></trkpt><trkpt lat="42.505663330718484" lon="14.064028126571829"><ele>164.0</ele><time>2026-04-11T15:56:49.999Z</time></trkpt><trkpt lat="42.50580014161707" lon="14.06401523160458"><ele>164.5</ele><time>2026-04-11T15:56:50.999Z</time></trkpt><trkpt lat="42.505933059639204" lon="14.064042255314881"><ele>165.0</ele><time>2026-04-11T15:56:51.999Z</time></trkpt><trkpt lat="42.506080499472795" lon="14.064032803761902"><ele>165.5</ele><time>2026-04-11T15:56:52.999Z</time></trkpt><trkpt lat="42.50621947636986" lon="14.064049788903814"><ele>166.0</ele><time>2026-04-11T15:56:53.999Z</time></trkpt><trkpt lat="42.506339184705034" lon="14.06406374861972"><ele>167.0</ele><time>2026-04-11T15:56:54.999Z</time></trkpt><trkpt lat="42.50644663741296" lon="14.064068766101183"><ele>168.0</ele><time>2026-04-11T15:56:55.999Z</time></trkpt><trkpt lat="42.50653773062759" lon="14.064075739856952"><ele>169.0</ele><time>2026-04-11T15:56:56.999Z</time></trkpt><trkpt lat="42.506613318819554" lon="14.064083577256422"><ele>170.0</ele><time>2026-04-11T15:56:57.999Z</time></trkpt><trkpt lat="42.506710046565125" lon="14.064115986635171"><ele>171.0</ele><time>2026-04-11T15:56:59.999Z</time></trkpt><trkpt lat="42.506728232555375" lon="14.064254973288996"><ele>171.60000000000002</ele><time>2026-04-11T15:57:04.999Z</time></trkpt><trkpt lat="42.5066676183211" lon="14.064321329559318"><ele>172.2</ele><time>2026-04-11T15:57:05.999Z</time></trkpt><trkpt lat="42.50658204948017" lon="14.06439174117538"><ele>172.8</ele><time>2026-04-11T15:57:06.999Z</time></trkpt><trkpt lat="42.506504679313416" lon="14.06447682740512"><ele>173.39999999999998</ele><time>2026-04-11T15:57:07.999Z</time></trkpt><trkpt lat="42.50641664576751" lon="14.064580107928789"><ele>174.0</ele><time>2026-04-11T15:57:08.999Z</time></trkpt><trkpt lat="42.506313120677234" lon="14.064699194794716"><ele>173.75</ele><time>2026-04-11T15:57:09.999Z</time></trkpt><trkpt lat="42.5062162329802" lon="14.06481175365552"><ele>173.5</ele><time>2026-04-11T15:57:10.999Z</time></trkpt><trkpt lat="42.5061194400607" lon="14.064925887327389"><ele>173.25</ele><time>2026-04-11T15:57:11.999Z</time></trkpt><trkpt lat="42.50601751577788" lon="14.06504250489096"><ele>173.0</ele><time>2026-04-11T15:57:12.999Z</time></trkpt><trkpt lat="42.50590853157511" lon="14.06516043232931"><ele>174.0</ele><time>2026-04-11T15:57:13.999Z</time></trkpt><trkpt lat="42.50580348964378" lon="14.065276633874964"><ele>175.0</ele><time>2026-04-11T15:57:14.999Z</time></trkpt><trkpt lat="42.505711211068395" lon="14.065390408257434"><ele>176.0</ele><time>2026-04-11T15:57:15.999Z</time></trkpt><trkpt lat="42.5056161948367" lon="14.065492273478586"><ele>177.0</ele><time>2026-04-11T15:57:16.999Z</time></trkpt><trkpt lat="42.50552270565352" lon="14.065601525490324"><ele>177.0</ele><time>2026-04-11T15:57:17.999Z</time></trkpt><trkpt lat="42.50542220767685" lon="14.065716868725438"><ele>177.0</ele><time>2026-04-11T15:57:18.999Z</time></trkpt><trkpt lat="42.50531446646854" lon="14.065837058418436"><ele>177.0</ele><time>2026-04-11T15:57:19.999Z</time></trkpt><trkpt lat="42.50520439402612" lon="14.065945612298831"><ele>177.0</ele><time>2026-04-11T15:57:20.999Z</time></trkpt><trkpt lat="42.50508183945" lon="14.066038486271932"><ele>177.5</ele><time>2026-04-11T15:57:21.999Z</time></trkpt><trkpt lat="42.50495567641368" lon="14.066122709031141"><ele>178.0</ele><time>2026-04-11T15:57:22.999Z</time></trkpt><trkpt lat="42.504822783887896" lon="14.066200037425713"><ele>178.5</ele><time>2026-04-11T15:57:23.999Z</time></trkpt><trkpt lat="42.504688993391895" lon="14.06628008118851"><ele>179.0</ele><time>2026-04-11T15:57:24.999Z</time></trkpt><trkpt lat="42.50455004865909" lon="14.066350985576538"><ele>178.0</ele><time>2026-04-11T15:57:25.999Z</time></trkpt><trkpt lat="42.50441766175993" lon="14.066418633328002"><ele>177.0</ele><time>2026-04-11T15:57:26.999Z</time></trkpt><trkpt lat="42.504285709078125" lon="14.066481977848104"><ele>176.0</ele><time>2026-04-11T15:57:28Z</time></trkpt><trkpt lat="42.504139839879976" lon="14.06654254879645"><ele>175.0</ele><time>2026-04-11T15:57:29Z</time></trkpt><trkpt lat="42.50398586458851" lon="14.06659007958963"><ele>174.33333333333334</ele><time>2026-04-11T15:57:30Z</time></trkpt><trkpt lat="42.50382722314483" lon="14.06663002493915"><ele>173.66666666666666</ele><time>2026-04-11T15:57:31Z</time></trkpt><trkpt lat="42.503674501666225" lon="14.066665452064477"><ele>173.0</ele><time>2026-04-11T15:57:32Z</time></trkpt><trkpt lat="42.5035315007826" lon="14.066709452453482"><ele>172.66666666666666</ele><time>2026-04-11T15:57:33Z</time></trkpt><trkpt lat="42.503380405942984" lon="14.066750071090823"><ele>172.33333333333334</ele><time>2026-04-11T15:57:34Z</time></trkpt><trkpt lat="42.50322635228919" lon="14.066788978065638"><ele>172.0</ele><time>2026-04-11T15:57:35Z</time></trkpt><trkpt lat="42.503075498768716" lon="14.06683614568095"><ele>172.0</ele><time>2026-04-11T15:57:36Z</time></trkpt><trkpt lat="42.50292095021712" lon="14.066882746372029"><ele>172.0</ele><time>2026-04-11T15:57:37Z</time></trkpt><trkpt lat="42.50277693855448" lon="14.066925504365212"><ele>172.0</ele><time>2026-04-11T15:57:38Z</time></trkpt><trkpt lat="42.50263987919886" lon="14.066964582866184"><ele>172.0</ele><time>2026-04-11T15:57:39Z</time></trkpt><trkpt lat="42.50250057339418" lon="14.067000202548343"><ele>172.0</ele><time>2026-04-11T15:57:40Z</time></trkpt><trkpt lat="42.5023566522426" lon="14.067043650880446"><ele>172.0</ele><time>2026-04-11T15:57:41Z</time></trkpt><trkpt lat="42.50220605175835" lon="14.067088162740738"><ele>172.0</ele><time>2026-04-11T15:57:42Z</time></trkpt><trkpt lat="42.502044436850305" lon="14.067126964306773"><ele>170.0</ele><time>2026-04-11T15:57:43Z</time></trkpt><trkpt lat="42.50188068357375" lon="14.06714355044695"><ele>168.0</ele><time>2026-04-11T15:57:44Z</time></trkpt><trkpt lat="42.50171532451411" lon="14.06714344696305"><ele>166.0</ele><time>2026-04-11T15:57:45Z</time></trkpt><trkpt lat="42.50153762550518" lon="14.067126088705272"><ele>166.0</ele><time>2026-04-11T15:57:46Z</time></trkpt><trkpt lat="42.50135124625444" lon="14.06710286018662"><ele>166.0</ele><time>2026-04-11T15:57:47Z</time></trkpt><trkpt lat="42.50115806968426" lon="14.067080288685702"><ele>166.0</ele><time>2026-04-11T15:57:48Z</time></trkpt><trkpt lat="42.50096700266655" lon="14.067060486102354"><ele>165.66666666666669</ele><time>2026-04-11T15:57:49Z</time></trkpt><trkpt lat="42.50078638006786" lon="14.067042377486503"><ele>165.33333333333334</ele><time>2026-04-11T15:57:50Z</time></trkpt><trkpt lat="42.50061618590135" lon="14.06702942359506"><ele>165.0</ele><time>2026-04-11T15:57:51Z</time></trkpt><trkpt lat="42.500446659208016" lon="14.06701310883791"><ele>165.66666666666666</ele><time>2026-04-11T15:57:52Z</time></trkpt><trkpt lat="42.50026963830135" lon="14.06699680747922"><ele>166.33333333333331</ele><time>2026-04-11T15:57:53Z</time></trkpt><trkpt lat="42.50009058302368" lon="14.066983053067322"><ele>167.0</ele><time>2026-04-11T15:57:54Z</time></trkpt><trkpt lat="42.49991726097496" lon="14.066978819040228"><ele>167.0</ele><time>2026-04-11T15:57:55Z</time></trkpt><trkpt lat="42.49975582753934" lon="14.06698293980426"><ele>167.0</ele><time>2026-04-11T15:57:56Z</time></trkpt><trkpt lat="42.49960213712077" lon="14.067005964905015"><ele>167.0</ele><time>2026-04-11T15:57:57Z</time></trkpt><trkpt lat="42.499425515808994" lon="14.067051949603393"><ele>167.66666666666666</ele><time>2026-04-11T15:57:58Z</time></trkpt><trkpt lat="42.49924707669953" lon="14.0671325833847"><ele>168.33333333333334</ele><time>2026-04-11T15:57:59Z</time></trkpt><trkpt lat="42.4990672962019" lon="14.06724079431103"><ele>169.0</ele><time>2026-04-11T15:58:00Z</time></trkpt><trkpt lat="42.4988976505268" lon="14.067352993240647"><ele>169.0</ele><time>2026-04-11T15:58:01Z</time></trkpt><trkpt lat="42.498746907688265" lon="14.067441759439443"><ele>169.0</ele><time>2026-04-11T15:58:02Z</time></trkpt><trkpt lat="42.498616365164686" lon="14.067510304947353"><ele>169.0</ele><time>2026-04-11T15:58:03Z</time></trkpt><trkpt lat="42.49848438563316" lon="14.067574397826709"><ele>169.0</ele><time>2026-04-11T15:58:04Z</time></trkpt><trkpt lat="42.49833887090094" lon="14.067621788491307"><ele>166.33333333333334</ele><time>2026-04-11T15:58:05Z</time></trkpt><trkpt lat="42.49817764082173" lon="14.06764307365943"><ele>163.66666666666666</ele><time>2026-04-11T15:58:06Z</time></trkpt><trkpt lat="42.49800820860319" lon="14.067633834048005"><ele>161.0</ele><time>2026-04-11T15:58:07Z</time></trkpt><trkpt lat="42.49782227999611" lon="14.067600068678345"><ele>158.33333333333331</ele><time>2026-04-11T15:58:08Z</time></trkpt><trkpt lat="42.49762522303165" lon="14.067566132506695"><ele>155.66666666666666</ele><time>2026-04-11T15:58:09Z</time></trkpt><trkpt lat="42.49742369562659" lon="14.06752420948668"><ele>153.0</ele><time>2026-04-11T15:58:10Z</time></trkpt><trkpt lat="42.49722850658196" lon="14.067488559845442"><ele>153.66666666666666</ele><time>2026-04-11T15:58:11Z</time></trkpt><trkpt lat="42.49704247293416" lon="14.067449201735535"><ele>154.33333333333331</ele><time>2026-04-11T15:58:12Z</time></trkpt><trkpt lat="42.49686134970961" lon="14.067419176842714"><ele>155.0</ele><time>2026-04-11T15:58:13Z</time></trkpt><trkpt lat="42.496683381316856" lon="14.067388450948862"><ele>155.0</ele><time>2026-04-11T15:58:14Z</time></trkpt><trkpt lat="42.49651494723473" lon="14.067362253060592"><ele>155.0</ele><time>2026-04-11T15:58:15Z</time></trkpt><trkpt lat="42.49636483730396" lon="14.067351311666771"><ele>155.0</ele><time>2026-04-11T15:58:16Z</time></trkpt><trkpt lat="42.49620207152734" lon="14.067360244877333"><ele>154.33333333333331</ele><time>2026-04-11T15:58:17Z</time></trkpt><trkpt lat="42.49602776384671" lon="14.067397905115323"><ele>153.66666666666666</ele><time>2026-04-11T15:58:18Z</time></trkpt><trkpt lat="42.495840087948274" lon="14.067470733130378"><ele>153.0</ele><time>2026-04-11T15:58:19Z</time></trkpt><trkpt lat="42.4956723409364" lon="14.067563202184463"><ele>150.75</ele><time>2026-04-11T15:58:20Z</time></trkpt><trkpt lat="42.495526468380206" lon="14.067660039286078"><ele>148.5</ele><time>2026-04-11T15:58:21Z</time></trkpt><trkpt lat="42.495411209721894" lon="14.067755830668316"><ele>146.25</ele><time>2026-04-11T15:58:22Z</time></trkpt><trkpt lat="42.49529060103302" lon="14.06787274980115"><ele>144.0</ele><time>2026-04-11T15:58:23Z</time></trkpt><trkpt lat="42.495173998004695" lon="14.068024271674403"><ele>143.0</ele><time>2026-04-11T15:58:24Z</time></trkpt><trkpt lat="42.49505006589946" lon="14.068204242962118"><ele>142.0</ele><time>2026-04-11T15:58:25Z</time></trkpt><trkpt lat="42.49491902200744" lon="14.068393216568705"><ele>141.0</ele><time>2026-04-11T15:58:26Z</time></trkpt><trkpt lat="42.49478506457138" lon="14.068586184879948"><ele>138.66666666666666</ele><time>2026-04-11T15:58:27Z</time></trkpt><trkpt lat="42.49465089867607" lon="14.06878434174792"><ele>136.33333333333331</ele><time>2026-04-11T15:58:28Z</time></trkpt><trkpt lat="42.49450967893657" lon="14.068994480239326"><ele>134.0</ele><time>2026-04-11T15:58:29Z</time></trkpt><trkpt lat="42.49436700124315" lon="14.069201217738126"><ele>131.33333333333331</ele><time>2026-04-11T15:58:30Z</time></trkpt><trkpt lat="42.494225484506224" lon="14.06940364512349"><ele>128.66666666666666</ele><time>2026-04-11T15:58:31Z</time></trkpt><trkpt lat="42.494080403779506" lon="14.069609763698441"><ele>126.0</ele><time>2026-04-11T15:58:32Z</time></trkpt><trkpt lat="42.49393286893724" lon="14.069825215267443"><ele>124.66666666666666</ele><time>2026-04-11T15:58:33Z</time></trkpt><trkpt lat="42.49378504556975" lon="14.070041083119923"><ele>123.33333333333333</ele><time>2026-04-11T15:58:34Z</time></trkpt><trkpt lat="42.49363795893274" lon="14.070257582783896"><ele>122.0</ele><time>2026-04-11T15:58:35Z</time></trkpt><trkpt lat="42.493488853477515" lon="14.070474166158517"><ele>121.66666666666666</ele><time>2026-04-11T15:58:36Z</time></trkpt><trkpt lat="42.493333648470966" lon="14.070690325896408"><ele>121.33333333333334</ele><time>2026-04-11T15:58:36.999Z</time></trkpt><trkpt lat="42.49318757541423" lon="14.070908636400889"><ele>121.0</ele><time>2026-04-11T15:58:37.999Z</time></trkpt><trkpt lat="42.493042732961484" lon="14.07112602895898"><ele>119.33333333333334</ele><time>2026-04-11T15:58:38.999Z</time></trkpt><trkpt lat="42.492899002481224" lon="14.071339074399022"><ele>117.66666666666666</ele><time>2026-04-11T15:58:39.999Z</time></trkpt><trkpt lat="42.49274838919421" lon="14.071550826923126"><ele>116.0</ele><time>2026-04-11T15:58:40.999Z</time></trkpt><trkpt lat="42.49260188209289" lon="14.071760605236427"><ele>115.0</ele><time>2026-04-11T15:58:41.999Z</time></trkpt><trkpt lat="42.49244863954742" lon="14.071978706212395"><ele>114.0</ele><time>2026-04-11T15:58:42.999Z</time></trkpt><trkpt lat="42.49229756682365" lon="14.072196764987304"><ele>113.0</ele><time>2026-04-11T15:58:43.999Z</time></trkpt><trkpt lat="42.49214930236076" lon="14.0724138925932"><ele>112.33333333333333</ele><time>2026-04-11T15:58:44.999Z</time></trkpt><trkpt lat="42.49200281529898" lon="14.072627045555736"><ele>111.66666666666666</ele><time>2026-04-11T15:58:45.999Z</time></trkpt><trkpt lat="42.49186286498122" lon="14.072828045055104"><ele>111.0</ele><time>2026-04-11T15:58:46.999Z</time></trkpt><trkpt lat="42.49172229946175" lon="14.0730280406025"><ele>111.0</ele><time>2026-04-11T15:58:47.999Z</time></trkpt><trkpt lat="42.4915850668917" lon="14.073233592140086"><ele>111.0</ele><time>2026-04-11T15:58:48.999Z</time></trkpt><trkpt lat="42.49144560886478" lon="14.073433396701638"><ele>111.0</ele><time>2026-04-11T15:58:49.999Z</time></trkpt><trkpt lat="42.4913081460365" lon="14.073631097751113"><ele>110.33333333333334</ele><time>2026-04-11T15:58:50.999Z</time></trkpt><trkpt lat="42.49118047454043" lon="14.073815433438053"><ele>109.66666666666667</ele><time>2026-04-11T15:58:51.999Z</time></trkpt><trkpt lat="42.491053866048574" lon="14.073993675911037"><ele>109.0</ele><time>2026-04-11T15:58:52.999Z</time></trkpt><trkpt lat="42.49092432312137" lon="14.074177851441329"><ele>108.66666666666667</ele><time>2026-04-11T15:58:53.999Z</time></trkpt><trkpt lat="42.49079195990983" lon="14.074373513702477"><ele>108.33333333333334</ele><time>2026-04-11T15:58:54.999Z</time></trkpt><trkpt lat="42.49066429767084" lon="14.07458241894556"><ele>108.0</ele><time>2026-04-11T15:58:55.999Z</time></trkpt><trkpt lat="42.490544287918155" lon="14.074801378614838"><ele>107.66666666666666</ele><time>2026-04-11T15:58:56.999Z</time></trkpt><trkpt lat="42.49043289364714" lon="14.075034860808625"><ele>107.33333333333333</ele><time>2026-04-11T15:58:57.999Z</time></trkpt><trkpt lat="42.4903144679594" lon="14.07527062057083"><ele>107.0</ele><time>2026-04-11T15:58:58.999Z</time></trkpt><trkpt lat="42.49019751930761" lon="14.075496756034356"><ele>107.0</ele><time>2026-04-11T15:58:59.999Z</time></trkpt><trkpt lat="42.49007815794831" lon="14.07573122127467"><ele>107.0</ele><time>2026-04-11T15:59:00.999Z</time></trkpt><trkpt lat="42.489964526890326" lon="14.075959826315312"><ele>107.0</ele><time>2026-04-11T15:59:01.999Z</time></trkpt><trkpt lat="42.48985169212236" lon="14.076182379488246"><ele>106.0</ele><time>2026-04-11T15:59:02.999Z</time></trkpt><trkpt lat="42.489743763835754" lon="14.076390955885685"><ele>105.0</ele><time>2026-04-11T15:59:03.999Z</time></trkpt><trkpt lat="42.48963960142715" lon="14.076594446354395"><ele>104.0</ele><time>2026-04-11T15:59:04.999Z</time></trkpt><trkpt lat="42.48954088065863" lon="14.076784534653425"><ele>102.66666666666666</ele><time>2026-04-11T15:59:05.999Z</time></trkpt><trkpt lat="42.489442466667654" lon="14.076970630884317"><ele>101.33333333333334</ele><time>2026-04-11T15:59:06.999Z</time></trkpt><trkpt lat="42.4893513340538" lon="14.077150292882534"><ele>100.0</ele><time>2026-04-11T15:59:07.999Z</time></trkpt><trkpt lat="42.48926394499675" lon="14.077323054697976"><ele>100.25</ele><time>2026-04-11T15:59:08.999Z</time></trkpt><trkpt lat="42.48917657027623" lon="14.07748996266565"><ele>100.5</ele><time>2026-04-11T15:59:09.999Z</time></trkpt><trkpt lat="42.489093931726785" lon="14.07765098466913"><ele>100.75</ele><time>2026-04-11T15:59:10.999Z</time></trkpt><trkpt lat="42.48901428594917" lon="14.077803787121422"><ele>101.0</ele><time>2026-04-11T15:59:11.999Z</time></trkpt><trkpt lat="42.48893095098171" lon="14.077947110599435"><ele>101.0</ele><time>2026-04-11T15:59:12.999Z</time></trkpt><trkpt lat="42.4888353696777" lon="14.07807787819012"><ele>101.0</ele><time>2026-04-11T15:59:13.999Z</time></trkpt><trkpt lat="42.48871503244817" lon="14.07819548789508"><ele>101.0</ele><time>2026-04-11T15:59:14.999Z</time></trkpt><trkpt lat="42.488578034156156" lon="14.078294969396966"><ele>101.0</ele><time>2026-04-11T15:59:15.999Z</time></trkpt><trkpt lat="42.48844653424644" lon="14.078384857108656"><ele>100.75</ele><time>2026-04-11T15:59:16.999Z</time></trkpt><trkpt lat="42.48832150854571" lon="14.078472728067847"><ele>100.5</ele><time>2026-04-11T15:59:17.999Z</time></trkpt><trkpt lat="42.48819808039973" lon="14.078556708109817"><ele>100.25</ele><time>2026-04-11T15:59:18.999Z</time></trkpt><trkpt lat="42.488085142515565" lon="14.078635951451258"><ele>100.0</ele><time>2026-04-11T15:59:19.999Z</time></trkpt><trkpt lat="42.48799138370382" lon="14.078706705166212"><ele>99.4</ele><time>2026-04-11T15:59:20.999Z</time></trkpt><trkpt lat="42.48790531789078" lon="14.078765918639277"><ele>98.8</ele><time>2026-04-11T15:59:21.999Z</time></trkpt><trkpt lat="42.487817079558255" lon="14.078810991319427"><ele>98.19999999999999</ele><time>2026-04-11T15:59:22.999Z</time></trkpt><trkpt lat="42.48772345637483" lon="14.07882917588691"><ele>97.6</ele><time>2026-04-11T15:59:23.999Z</time></trkpt><trkpt lat="42.48763198121402" lon="14.078827949688982"><ele>97.0</ele><time>2026-04-11T15:59:24.999Z</time></trkpt><trkpt lat="42.48754995364861" lon="14.078855738338008"><ele>97.0</ele><time>2026-04-11T15:59:25.999Z</time></trkpt><trkpt lat="42.48748211036908" lon="14.078940421392588"><ele>97.0</ele><time>2026-04-11T15:59:26.999Z</time></trkpt><trkpt lat="42.48741272342145" lon="14.079069102956474"><ele>97.0</ele><time>2026-04-11T15:59:27.999Z</time></trkpt><trkpt lat="42.48731326963159" lon="14.079205571235386"><ele>97.0</ele><time>2026-04-11T15:59:28.999Z</time></trkpt><trkpt lat="42.48719233935536" lon="14.079308517359856"><ele>94.0</ele><time>2026-04-11T15:59:29.999Z</time></trkpt><trkpt lat="42.487052953035615" lon="14.079406919494485"><ele>91.0</ele><time>2026-04-11T15:59:30.999Z</time></trkpt><trkpt lat="42.48690956109012" lon="14.079514880616292"><ele>88.0</ele><time>2026-04-11T15:59:31.999Z</time></trkpt><trkpt lat="42.48675103021172" lon="14.079626554026119"><ele>88.0</ele><time>2026-04-11T15:59:32.999Z</time></trkpt><trkpt lat="42.48659971654118" lon="14.079736915653923"><ele>88.0</ele><time>2026-04-11T15:59:34.001Z</time></trkpt><trkpt lat="42.48645759863675" lon="14.079837781929616"><ele>88.0</ele><time>2026-04-11T15:59:35.001Z</time></trkpt><trkpt lat="42.486344658637286" lon="14.079918338805257"><ele>87.4</ele><time>2026-04-11T15:59:36.001Z</time></trkpt><trkpt lat="42.48625045205617" lon="14.079990754857382"><ele>86.80000000000001</ele><time>2026-04-11T15:59:37.001Z</time></trkpt><trkpt lat="42.48617600498525" lon="14.080059567688343"><ele>86.2</ele><time>2026-04-11T15:59:38.001Z</time></trkpt><trkpt lat="42.48611177491282" lon="14.080153214961031"><ele>85.6</ele><time>2026-04-11T15:59:39.001Z</time></trkpt><trkpt lat="42.48606246667897" lon="14.080265767140064"><ele>85.0</ele><time>2026-04-11T15:59:40.001Z</time></trkpt><trkpt lat="42.486042715065736" lon="14.080399208630238"><ele>85.0</ele><time>2026-04-11T15:59:41.001Z</time></trkpt><trkpt lat="42.48605345176519" lon="14.080549220459286"><ele>85.0</ele><time>2026-04-11T15:59:42.001Z</time></trkpt><trkpt lat="42.48609124934804" lon="14.080710077801994"><ele>85.0</ele><time>2026-04-11T15:59:43.001Z</time></trkpt><trkpt lat="42.486148561775885" lon="14.08087764551238"><ele>85.0</ele><time>2026-04-11T15:59:44.001Z</time></trkpt><trkpt lat="42.48622725630726" lon="14.081051586989407"><ele>85.25</ele><time>2026-04-11T15:59:45.001Z</time></trkpt><trkpt lat="42.48628552842059" lon="14.081226162639387"><ele>85.5</ele><time>2026-04-11T15:59:46.001Z</time></trkpt><trkpt lat="42.48632829044513" lon="14.081398996976883"><ele>85.75</ele><time>2026-04-11T15:59:47.001Z</time></trkpt><trkpt lat="42.486361206923476" lon="14.081565711837804"><ele>86.0</ele><time>2026-04-11T15:59:48.001Z</time></trkpt><trkpt lat="42.48637310308809" lon="14.081737136232874"><ele>86.0</ele><time>2026-04-11T15:59:49Z</time></trkpt><trkpt lat="42.48636259906667" lon="14.081924812182535"><ele>86.0</ele><time>2026-04-11T15:59:50Z</time></trkpt><trkpt lat="42.4863430825508" lon="14.082136016034225"><ele>86.0</ele><time>2026-04-11T15:59:51Z</time></trkpt><trkpt lat="42.486313199870196" lon="14.082346165121852"><ele>85.66666666666667</ele><time>2026-04-11T15:59:52Z</time></trkpt><trkpt lat="42.486282349599925" lon="14.08256063632431"><ele>85.33333333333333</ele><time>2026-04-11T15:59:53Z</time></trkpt><trkpt lat="42.48625911254757" lon="14.082780415948509"><ele>85.0</ele><time>2026-04-11T15:59:54Z</time></trkpt><trkpt lat="42.48623061927974" lon="14.082995887411958"><ele>81.0</ele><time>2026-04-11T15:59:55Z</time></trkpt><trkpt lat="42.48619689856386" lon="14.083204331410604"><ele>77.0</ele><time>2026-04-11T15:59:56Z</time></trkpt><trkpt lat="42.486167407444" lon="14.083402753103506"><ele>73.0</ele><time>2026-04-11T15:59:57Z</time></trkpt><trkpt lat="42.486133423818806" lon="14.0835971634548"><ele>72.66666666666666</ele><time>2026-04-11T15:59:58Z</time></trkpt><trkpt lat="42.4860823197208" lon="14.083784397724667"><ele>72.33333333333333</ele><time>2026-04-11T15:59:59Z</time></trkpt><trkpt lat="42.485999418046866" lon="14.083981975342635"><ele>72.0</ele><time>2026-04-11T16:00:00Z</time></trkpt><trkpt lat="42.485910895798504" lon="14.084187215689122"><ele>71.66666666666667</ele><time>2026-04-11T16:00:01Z</time></trkpt><trkpt lat="42.48582298224767" lon="14.084386576237465"><ele>71.33333333333334</ele><time>2026-04-11T16:00:02Z</time></trkpt><trkpt lat="42.48573449456011" lon="14.084573985534217"><ele>71.0</ele><time>2026-04-11T16:00:03Z</time></trkpt><trkpt lat="42.48565280424314" lon="14.08476542574902"><ele>70.33333333333334</ele><time>2026-04-11T16:00:04Z</time></trkpt><trkpt lat="42.48557386399648" lon="14.084951929554263"><ele>69.66666666666667</ele><time>2026-04-11T16:00:05Z</time></trkpt><trkpt lat="42.48549372956952" lon="14.085134010390002"><ele>69.0</ele><time>2026-04-11T16:00:06Z</time></trkpt><trkpt lat="42.48541582213936" lon="14.08531462903392"><ele>68.25</ele><time>2026-04-11T16:00:07Z</time></trkpt><trkpt lat="42.485339909043084" lon="14.085491327528139"><ele>67.5</ele><time>2026-04-11T16:00:08Z</time></trkpt><trkpt lat="42.48526505573529" lon="14.085664980829222"><ele>66.75</ele><time>2026-04-11T16:00:09Z</time></trkpt><trkpt lat="42.48519011665212" lon="14.085835456476824"><ele>66.0</ele><time>2026-04-11T16:00:10Z</time></trkpt><trkpt lat="42.48512089055449" lon="14.086001248935872"><ele>65.75</ele><time>2026-04-11T16:00:11Z</time></trkpt><trkpt lat="42.48505227500518" lon="14.086168084021498"><ele>65.5</ele><time>2026-04-11T16:00:12Z</time></trkpt><trkpt lat="42.48498152205753" lon="14.086320488603812"><ele>65.25</ele><time>2026-04-11T16:00:13Z</time></trkpt><trkpt lat="42.484915798526366" lon="14.08647444986868"><ele>65.0</ele><time>2026-04-11T16:00:14Z</time></trkpt><trkpt lat="42.48485745286256" lon="14.086613012604271"><ele>64.2</ele><time>2026-04-11T16:00:15Z</time></trkpt><trkpt lat="42.484805235359225" lon="14.086737074460569"><ele>63.4</ele><time>2026-04-11T16:00:16Z</time></trkpt><trkpt lat="42.484765380353075" lon="14.08685204747717"><ele>62.599999999999994</ele><time>2026-04-11T16:00:17Z</time></trkpt><trkpt lat="42.48474599587434" lon="14.086968125438835"><ele>61.8</ele><time>2026-04-11T16:00:18Z</time></trkpt><trkpt lat="42.48475117781885" lon="14.087087348018441"><ele>61.0</ele><time>2026-04-11T16:00:19Z</time></trkpt><trkpt lat="42.48478788225868" lon="14.087199208196626"><ele>61.0</ele><time>2026-04-11T16:00:20Z</time></trkpt><trkpt lat="42.48485562294882" lon="14.087298965658167"><ele>60.99999999999999</ele><time>2026-04-11T16:00:21Z</time></trkpt><trkpt lat="42.48494529149156" lon="14.08735952175565"><ele>60.99999999999999</ele><time>2026-04-11T16:00:22Z</time></trkpt><trkpt lat="42.48505089015506" lon="14.087377002097393"><ele>61.0</ele><time>2026-04-11T16:00:23Z</time></trkpt><trkpt lat="42.4851489152113" lon="14.087333507466765"><ele>61.0</ele><time>2026-04-11T16:00:24Z</time></trkpt><trkpt lat="42.4852545173188" lon="14.087244521553947"><ele>61.0</ele><time>2026-04-11T16:00:25Z</time></trkpt><trkpt lat="42.48536067356572" lon="14.087120007691112"><ele>61.0</ele><time>2026-04-11T16:00:26Z</time></trkpt><trkpt lat="42.48546710263196" lon="14.086990988845942"><ele>61.0</ele><time>2026-04-11T16:00:27Z</time></trkpt><trkpt lat="42.48556654244144" lon="14.086876079475257"><ele>61.0</ele><time>2026-04-11T16:00:28Z</time></trkpt><trkpt lat="42.48566991851651" lon="14.086783793773698"><ele>60.4</ele><time>2026-04-11T16:00:29Z</time></trkpt><trkpt lat="42.485761210396625" lon="14.086703475883935"><ele>59.8</ele><time>2026-04-11T16:00:30Z</time></trkpt><trkpt lat="42.485833947339756" lon="14.086636083481105"><ele>59.199999999999996</ele><time>2026-04-11T16:00:31Z</time></trkpt><trkpt lat="42.48589934496381" lon="14.086581804368802"><ele>58.599999999999994</ele><time>2026-04-11T16:00:32Z</time></trkpt><trkpt lat="42.48596109344987" lon="14.086535618585028"><ele>58.0</ele><time>2026-04-11T16:00:33Z</time></trkpt><trkpt lat="42.48607555257053" lon="14.086552470558017"><ele>58.00000000000001</ele><time>2026-04-11T16:00:35Z</time></trkpt><trkpt lat="42.48611904982848" lon="14.086618461449628"><ele>58.0</ele><time>2026-04-11T16:00:36Z</time></trkpt><trkpt lat="42.4861411653987" lon="14.086706384445893"><ele>58.00000000000001</ele><time>2026-04-11T16:00:37Z</time></trkpt><trkpt lat="42.48612670901624" lon="14.086796871491385"><ele>58.00000000000001</ele><time>2026-04-11T16:00:38Z</time></trkpt><trkpt lat="42.48609345270045" lon="14.086876100249006"><ele>58.0</ele><time>2026-04-11T16:00:39Z</time></trkpt><trkpt lat="42.48603741120713" lon="14.086937471261038"><ele>58.00000000000001</ele><time>2026-04-11T16:00:40Z</time></trkpt><trkpt lat="42.4859745866134" lon="14.087018567315868"><ele>58.00000000000001</ele><time>2026-04-11T16:00:41Z</time></trkpt><trkpt lat="42.485910127959514" lon="14.08711685843867"><ele>58.0</ele><time>2026-04-11T16:00:42Z</time></trkpt><trkpt lat="42.48582970277927" lon="14.087228908345478"><ele>58.0</ele><time>2026-04-11T16:00:43Z</time></trkpt><trkpt lat="42.4857526584281" lon="14.087345152774779"><ele>58.0</ele><time>2026-04-11T16:00:44Z</time></trkpt><trkpt lat="42.48567785027377" lon="14.087454564010367"><ele>58.0</ele><time>2026-04-11T16:00:45Z</time></trkpt><trkpt lat="42.4856033213791" lon="14.087566324762925"><ele>57.25</ele><time>2026-04-11T16:00:46Z</time></trkpt><trkpt lat="42.48552401485799" lon="14.087687159782913"><ele>56.5</ele><time>2026-04-11T16:00:47Z</time></trkpt><trkpt lat="42.48545386322337" lon="14.087805605020073"><ele>55.75</ele><time>2026-04-11T16:00:48Z</time></trkpt><trkpt lat="42.48538849763352" lon="14.08792697323535"><ele>55.0</ele><time>2026-04-11T16:00:49Z</time></trkpt><trkpt lat="42.48532813540989" lon="14.088059532471371"><ele>55.0</ele><time>2026-04-11T16:00:50Z</time></trkpt><trkpt lat="42.48527953151827" lon="14.088210456261333"><ele>55.0</ele><time>2026-04-11T16:00:50.999Z</time></trkpt><trkpt lat="42.485230302566734" lon="14.088372991571852"><ele>55.0</ele><time>2026-04-11T16:00:51.999Z</time></trkpt><trkpt lat="42.48518125624813" lon="14.088536461036174"><ele>55.0</ele><time>2026-04-11T16:00:53.999Z</time></trkpt><trkpt lat="42.48515019660985" lon="14.088627349865739"><ele>52.83333333333333</ele><time>2026-04-11T16:00:54.999Z</time></trkpt><trkpt lat="42.485114865624354" lon="14.088712317178581"><ele>50.666666666666664</ele><time>2026-04-11T16:00:55.999Z</time></trkpt><trkpt lat="42.485075937465545" lon="14.088806511956435"><ele>48.5</ele><time>2026-04-11T16:00:56.999Z</time></trkpt><trkpt lat="42.48502500866377" lon="14.088896151299926"><ele>46.33333333333333</ele><time>2026-04-11T16:00:57.999Z</time></trkpt><trkpt lat="42.4849555201435" lon="14.088962170794955"><ele>44.166666666666664</ele><time>2026-04-11T16:00:58.999Z</time></trkpt><trkpt lat="42.484865586480716" lon="14.088979289332052"><ele>42.0</ele><time>2026-04-11T16:00:59.999Z</time></trkpt><trkpt lat="42.484768874371404" lon="14.08894836184729"><ele>42.0</ele><time>2026-04-11T16:01:00.999Z</time></trkpt><trkpt lat="42.48467273167502" lon="14.088881917672245"><ele>42.0</ele><time>2026-04-11T16:01:01.999Z</time></trkpt><trkpt lat="42.484593004427" lon="14.08875623960457"><ele>42.0</ele><time>2026-04-11T16:01:02.999Z</time></trkpt><trkpt lat="42.48450754630008" lon="14.08862839466656"><ele>42.0</ele><time>2026-04-11T16:01:03.999Z</time></trkpt><trkpt lat="42.48441101269688" lon="14.088503392694435"><ele>41.5</ele><time>2026-04-11T16:01:04.999Z</time></trkpt><trkpt lat="42.48431516364407" lon="14.088357606783834"><ele>41.0</ele><time>2026-04-11T16:01:05.999Z</time></trkpt><trkpt lat="42.484215868034745" lon="14.088212576476293"><ele>40.5</ele><time>2026-04-11T16:01:06.999Z</time></trkpt><trkpt lat="42.484131206367145" lon="14.088068538728617"><ele>40.0</ele><time>2026-04-11T16:01:07.999Z</time></trkpt><trkpt lat="42.48407159584474" lon="14.087897771949512"><ele>40.0</ele><time>2026-04-11T16:01:08.999Z</time></trkpt><trkpt lat="42.484001922325476" lon="14.087707718522447"><ele>40.0</ele><time>2026-04-11T16:01:09.999Z</time></trkpt><trkpt lat="42.483922245866005" lon="14.087508510909037"><ele>40.0</ele><time>2026-04-11T16:01:10.999Z</time></trkpt><trkpt lat="42.483855885317965" lon="14.08728637072502"><ele>37.66666666666667</ele><time>2026-04-11T16:01:11.999Z</time></trkpt><trkpt lat="42.48379272917023" lon="14.087086360011773"><ele>35.333333333333336</ele><time>2026-04-11T16:01:12.999Z</time></trkpt><trkpt lat="42.48373453239658" lon="14.086895591260381"><ele>33.0</ele><time>2026-04-11T16:01:13.999Z</time></trkpt><trkpt lat="42.48367397840866" lon="14.086710649956949"><ele>35.0</ele><time>2026-04-11T16:01:14.999Z</time></trkpt><trkpt lat="42.48360994995956" lon="14.08651713100453"><ele>37.0</ele><time>2026-04-11T16:01:15.999Z</time></trkpt><trkpt lat="42.483544743861984" lon="14.086333311328325"><ele>39.0</ele><time>2026-04-11T16:01:16.999Z</time></trkpt><trkpt lat="42.4834705818966" lon="14.086164307686094"><ele>39.0</ele><time>2026-04-11T16:01:17.999Z</time></trkpt><trkpt lat="42.48337776672731" lon="14.086002911312072"><ele>39.0</ele><time>2026-04-11T16:01:18.999Z</time></trkpt><trkpt lat="42.483269162028876" lon="14.085857928481786"><ele>39.0</ele><time>2026-04-11T16:01:19.999Z</time></trkpt><trkpt lat="42.48314732321553" lon="14.085734941965086"><ele>36.333333333333336</ele><time>2026-04-11T16:01:20.999Z</time></trkpt><trkpt lat="42.483010286051446" lon="14.085621851992915"><ele>33.66666666666667</ele><time>2026-04-11T16:01:21.999Z</time></trkpt><trkpt lat="42.48285697466104" lon="14.085518855302787"><ele>31.0</ele><time>2026-04-11T16:01:22.999Z</time></trkpt><trkpt lat="42.48269336868533" lon="14.085440902166322"><ele>31.0</ele><time>2026-04-11T16:01:23.999Z</time></trkpt><trkpt lat="42.48253834823036" lon="14.085360512797429"><ele>31.0</ele><time>2026-04-11T16:01:24.999Z</time></trkpt><trkpt lat="42.48238830125127" lon="14.085289696368681"><ele>31.0</ele><time>2026-04-11T16:01:25.999Z</time></trkpt><trkpt lat="42.482250531471536" lon="14.085212305946948"><ele>31.0</ele><time>2026-04-11T16:01:26.999Z</time></trkpt><trkpt lat="42.48211796981183" lon="14.085135021756304"><ele>31.0</ele><time>2026-04-11T16:01:27.999Z</time></trkpt><trkpt lat="42.481978554115486" lon="14.085058894430938"><ele>31.0</ele><time>2026-04-11T16:01:28.999Z</time></trkpt><trkpt lat="42.48183444659968" lon="14.08497585797327"><ele>31.0</ele><time>2026-04-11T16:01:29.999Z</time></trkpt><trkpt lat="42.481680643009994" lon="14.084891960959848"><ele>31.0</ele><time>2026-04-11T16:01:30.999Z</time></trkpt><trkpt lat="42.48152345476121" lon="14.084808060615119"><ele>31.0</ele><time>2026-04-11T16:01:31.999Z</time></trkpt><trkpt lat="42.48137747484176" lon="14.08472756617025"><ele>30.25</ele><time>2026-04-11T16:01:32.999Z</time></trkpt><trkpt lat="42.48123761333637" lon="14.084650468071557"><ele>29.5</ele><time>2026-04-11T16:01:33.999Z</time></trkpt><trkpt lat="42.48110053225672" lon="14.084577821296028"><ele>28.75</ele><time>2026-04-11T16:01:34.999Z</time></trkpt><trkpt lat="42.48096333453481" lon="14.08449965122002"><ele>28.0</ele><time>2026-04-11T16:01:35.999Z</time></trkpt><trkpt lat="42.48082755659096" lon="14.084422243442377"><ele>28.0</ele><time>2026-04-11T16:01:36.999Z</time></trkpt><trkpt lat="42.48068838617" lon="14.084345198885838"><ele>28.0</ele><time>2026-04-11T16:01:37.999Z</time></trkpt><trkpt lat="42.48054324340119" lon="14.084265216291838"><ele>28.0</ele><time>2026-04-11T16:01:38.999Z</time></trkpt><trkpt lat="42.48039528076084" lon="14.084185158189975"><ele>28.333333333333336</ele><time>2026-04-11T16:01:40.001Z</time></trkpt><trkpt lat="42.48024771594841" lon="14.084109640913953"><ele>28.666666666666664</ele><time>2026-04-11T16:01:41.001Z</time></trkpt><trkpt lat="42.48009814730003" lon="14.08403676198875"><ele>29.0</ele><time>2026-04-11T16:01:42.001Z</time></trkpt><trkpt lat="42.47995756271668" lon="14.083985208386652"><ele>28.5</ele><time>2026-04-11T16:01:43.001Z</time></trkpt><trkpt lat="42.47981977629177" lon="14.083931087136076"><ele>28.0</ele><time>2026-04-11T16:01:44.001Z</time></trkpt><trkpt lat="42.47967952957028" lon="14.083873968157214"><ele>27.5</ele><time>2026-04-11T16:01:45.001Z</time></trkpt><trkpt lat="42.47953162192736" lon="14.083809347847275"><ele>27.0</ele><time>2026-04-11T16:01:46.001Z</time></trkpt><trkpt lat="42.479369344728205" lon="14.083742323107307"><ele>27.0</ele><time>2026-04-11T16:01:47.001Z</time></trkpt><trkpt lat="42.47920475896109" lon="14.083680131981644"><ele>27.0</ele><time>2026-04-11T16:01:48.001Z</time></trkpt><trkpt lat="42.47903042322211" lon="14.083610727557051"><ele>27.0</ele><time>2026-04-11T16:01:49.001Z</time></trkpt><trkpt lat="42.47885697786421" lon="14.083538537168549"><ele>27.0</ele><time>2026-04-11T16:01:50.001Z</time></trkpt><trkpt lat="42.47867990824292" lon="14.083466913122813"><ele>27.0</ele><time>2026-04-11T16:01:51.001Z</time></trkpt><trkpt lat="42.47849936661016" lon="14.083390673190834"><ele>27.0</ele><time>2026-04-11T16:01:52.001Z</time></trkpt><trkpt lat="42.478321633549825" lon="14.083316052931476"><ele>27.666666666666664</ele><time>2026-04-11T16:01:53.001Z</time></trkpt><trkpt lat="42.47814339232705" lon="14.083248422746587"><ele>28.333333333333332</ele><time>2026-04-11T16:01:54.001Z</time></trkpt><trkpt lat="42.47796630622962" lon="14.083182926838035"><ele>29.0</ele><time>2026-04-11T16:01:55.001Z</time></trkpt><trkpt lat="42.477792428029254" lon="14.083110649617888"><ele>29.0</ele><time>2026-04-11T16:01:56.001Z</time></trkpt><trkpt lat="42.47761497078453" lon="14.083035541163559"><ele>29.0</ele><time>2026-04-11T16:01:57.001Z</time></trkpt><trkpt lat="42.4774362046817" lon="14.08295841438977"><ele>29.0</ele><time>2026-04-11T16:01:58.001Z</time></trkpt><trkpt lat="42.47724659792525" lon="14.082878743315135"><ele>29.0</ele><time>2026-04-11T16:01:59.001Z</time></trkpt><trkpt lat="42.477059233567495" lon="14.082804692635982"><ele>29.0</ele><time>2026-04-11T16:02:00.001Z</time></trkpt><trkpt lat="42.47686682636063" lon="14.082728945387867"><ele>29.0</ele><time>2026-04-11T16:02:01.001Z</time></trkpt><trkpt lat="42.47667514490291" lon="14.08265075196238"><ele>29.0</ele><time>2026-04-11T16:02:02.001Z</time></trkpt><trkpt lat="42.47648095952295" lon="14.082571015364444"><ele>29.0</ele><time>2026-04-11T16:02:03Z</time></trkpt><trkpt lat="42.47627938592802" lon="14.08248529533282"><ele>29.0</ele><time>2026-04-11T16:02:04Z</time></trkpt><trkpt lat="42.47608994446537" lon="14.082406246081332"><ele>30.0</ele><time>2026-04-11T16:02:05Z</time></trkpt><trkpt lat="42.475923042113585" lon="14.082336345112616"><ele>31.0</ele><time>2026-04-11T16:02:06Z</time></trkpt><trkpt lat="42.47577440119076" lon="14.082281544834986"><ele>32.0</ele><time>2026-04-11T16:02:07Z</time></trkpt><trkpt lat="42.47562628330784" lon="14.082241563195186"><ele>32.0</ele><time>2026-04-11T16:02:08Z</time></trkpt><trkpt lat="42.47546925408016" lon="14.082238087552797"><ele>32.0</ele><time>2026-04-11T16:02:09Z</time></trkpt><trkpt lat="42.475304014133826" lon="14.082278797690035"><ele>32.0</ele><time>2026-04-11T16:02:10Z</time></trkpt><trkpt lat="42.47514675497773" lon="14.082350740987769"><ele>33.0</ele><time>2026-04-11T16:02:11Z</time></trkpt><trkpt lat="42.47500369120871" lon="14.082447938989821"><ele>34.0</ele><time>2026-04-11T16:02:12Z</time></trkpt><trkpt lat="42.474859005431036" lon="14.082564036747408"><ele>35.0</ele><time>2026-04-11T16:02:13Z</time></trkpt><trkpt lat="42.47473136428266" lon="14.08266145046505"><ele>36.0</ele><time>2026-04-11T16:02:14Z</time></trkpt><trkpt lat="42.47459668764705" lon="14.082745998890884"><ele>37.0</ele><time>2026-04-11T16:02:15Z</time></trkpt><trkpt lat="42.47446237343678" lon="14.082823282038534"><ele>38.0</ele><time>2026-04-11T16:02:16Z</time></trkpt><trkpt lat="42.47432483322449" lon="14.082902458371041"><ele>39.0</ele><time>2026-04-11T16:02:17Z</time></trkpt><trkpt lat="42.47419403575959" lon="14.082982365907744"><ele>39.0</ele><time>2026-04-11T16:02:18Z</time></trkpt><trkpt lat="42.47407181591085" lon="14.083041628162315"><ele>39.0</ele><time>2026-04-11T16:02:19Z</time></trkpt><trkpt lat="42.47394499160873" lon="14.083103524192593"><ele>39.0</ele><time>2026-04-11T16:02:19.999Z</time></trkpt><trkpt lat="42.47381554921587" lon="14.083164075925298"><ele>39.0</ele><time>2026-04-11T16:02:20.999Z</time></trkpt><trkpt lat="42.473694050802436" lon="14.08324704075581"><ele>39.5</ele><time>2026-04-11T16:02:21.999Z</time></trkpt><trkpt lat="42.47357738672327" lon="14.083329004286949"><ele>40.0</ele><time>2026-04-11T16:02:22.999Z</time></trkpt><trkpt lat="42.47347158739437" lon="14.083409375350243"><ele>40.5</ele><time>2026-04-11T16:02:23.999Z</time></trkpt><trkpt lat="42.47337605327632" lon="14.083489673971526"><ele>41.0</ele><time>2026-04-11T16:02:24.999Z</time></trkpt><trkpt lat="42.473284031805534" lon="14.083569585621344"><ele>41.0</ele><time>2026-04-11T16:02:25.999Z</time></trkpt><trkpt lat="42.473112771293906" lon="14.083725595464157"><ele>41.0</ele><time>2026-04-11T16:02:27.999Z</time></trkpt><trkpt lat="42.47301073200195" lon="14.083809534181096"><ele>41.0</ele><time>2026-04-11T16:02:28.999Z</time></trkpt><trkpt lat="42.47290033940563" lon="14.083900890316997"><ele>41.0</ele><time>2026-04-11T16:02:29.999Z</time></trkpt><trkpt lat="42.47277625063102" lon="14.083992538755913"><ele>41.0</ele><time>2026-04-11T16:02:30.999Z</time></trkpt><trkpt lat="42.47264333367331" lon="14.084078226786627"><ele>41.0</ele><time>2026-04-11T16:02:31.999Z</time></trkpt><trkpt lat="42.47248803994349" lon="14.08417937081074"><ele>41.0</ele><time>2026-04-11T16:02:32.999Z</time></trkpt><trkpt lat="42.472336034514484" lon="14.08427649210666"><ele>41.0</ele><time>2026-04-11T16:02:33.999Z</time></trkpt><trkpt lat="42.472180045650994" lon="14.084373961432728"><ele>41.0</ele><time>2026-04-11T16:02:34.999Z</time></trkpt><trkpt lat="42.472037357295086" lon="14.084464029252723"><ele>41.25</ele><time>2026-04-11T16:02:35.999Z</time></trkpt><trkpt lat="42.471899967235835" lon="14.084549866469791"><ele>41.5</ele><time>2026-04-11T16:02:36.999Z</time></trkpt><trkpt lat="42.47176641091095" lon="14.084636419473307"><ele>41.75</ele><time>2026-04-11T16:02:37.999Z</time></trkpt><trkpt lat="42.471637453842355" lon="14.08472008351994"><ele>42.0</ele><time>2026-04-11T16:02:38.999Z</time></trkpt><trkpt lat="42.47151476404779" lon="14.084796544856319"><ele>42.0</ele><time>2026-04-11T16:02:39.999Z</time></trkpt><trkpt lat="42.47139480534736" lon="14.08486855488249"><ele>42.0</ele><time>2026-04-11T16:02:40.999Z</time></trkpt><trkpt lat="42.47128184524465" lon="14.084947883751724"><ele>42.0</ele><time>2026-04-11T16:02:41.999Z</time></trkpt><trkpt lat="42.471174994193845" lon="14.085033068140358"><ele>42.0</ele><time>2026-04-11T16:02:42.999Z</time></trkpt><trkpt lat="42.47107898630636" lon="14.08512585744825"><ele>41.75</ele><time>2026-04-11T16:02:43.999Z</time></trkpt><trkpt lat="42.47097850406903" lon="14.085224160890414"><ele>41.5</ele><time>2026-04-11T16:02:44.999Z</time></trkpt><trkpt lat="42.470878659497664" lon="14.085339182667207"><ele>41.25</ele><time>2026-04-11T16:02:45.999Z</time></trkpt><trkpt lat="42.47077683119048" lon="14.085470200776966"><ele>41.0</ele><time>2026-04-11T16:02:46.999Z</time></trkpt><trkpt lat="42.4706784397231" lon="14.085603406189657"><ele>41.0</ele><time>2026-04-11T16:02:47.999Z</time></trkpt><trkpt lat="42.47057788943737" lon="14.085727976452098"><ele>41.0</ele><time>2026-04-11T16:02:48.999Z</time></trkpt><trkpt lat="42.47047734616282" lon="14.085848570908606"><ele>41.0</ele><time>2026-04-11T16:02:49.999Z</time></trkpt><trkpt lat="42.47037431575197" lon="14.085971753566945"><ele>41.0</ele><time>2026-04-11T16:02:50.999Z</time></trkpt><trkpt lat="42.47027105401889" lon="14.086099045049648"><ele>41.0</ele><time>2026-04-11T16:02:51.999Z</time></trkpt><trkpt lat="42.47016411073875" lon="14.086228217211724"><ele>41.0</ele><time>2026-04-11T16:02:52.999Z</time></trkpt><trkpt lat="42.47007212245492" lon="14.086346148760569"><ele>41.0</ele><time>2026-04-11T16:02:53.999Z</time></trkpt><trkpt lat="42.46997766202964" lon="14.086465895802105"><ele>41.0</ele><time>2026-04-11T16:02:54.999Z</time></trkpt><trkpt lat="42.46989103572764" lon="14.08657638658108"><ele>41.0</ele><time>2026-04-11T16:02:55.999Z</time></trkpt><trkpt lat="42.46980184395538" lon="14.086683649673464"><ele>41.0</ele><time>2026-04-11T16:02:56.999Z</time></trkpt><trkpt lat="42.46970946300178" lon="14.0867893943915"><ele>41.0</ele><time>2026-04-11T16:02:57.999Z</time></trkpt><trkpt lat="42.46961368702796" lon="14.086904659838662"><ele>41.0</ele><time>2026-04-11T16:02:58.999Z</time></trkpt><trkpt lat="42.469512153909" lon="14.087028957241705"><ele>41.0</ele><time>2026-04-11T16:02:59.999Z</time></trkpt><trkpt lat="42.469410794558" lon="14.08715712253588"><ele>41.0</ele><time>2026-04-11T16:03:00.999Z</time></trkpt><trkpt lat="42.469305283653846" lon="14.087293290865905"><ele>41.0</ele><time>2026-04-11T16:03:01.999Z</time></trkpt><trkpt lat="42.46919702541187" lon="14.087432225210627"><ele>41.0</ele><time>2026-04-11T16:03:02.999Z</time></trkpt><trkpt lat="42.46908858161211" lon="14.087575493744387"><ele>41.0</ele><time>2026-04-11T16:03:03.999Z</time></trkpt><trkpt lat="42.468970512804134" lon="14.08771513893291"><ele>41.0</ele><time>2026-04-11T16:03:04.998Z</time></trkpt><trkpt lat="42.46884888731596" lon="14.087857933190275"><ele>41.0</ele><time>2026-04-11T16:03:05.998Z</time></trkpt><trkpt lat="42.46873424915674" lon="14.08799668177161"><ele>40.75</ele><time>2026-04-11T16:03:06.998Z</time></trkpt><trkpt lat="42.468625950414435" lon="14.088128776702469"><ele>40.5</ele><time>2026-04-11T16:03:07.998Z</time></trkpt><trkpt lat="42.46852426729097" lon="14.088261118292195"><ele>40.25</ele><time>2026-04-11T16:03:08.998Z</time></trkpt><trkpt lat="42.46842056203953" lon="14.088396833294118"><ele>40.0</ele><time>2026-04-11T16:03:09.998Z</time></trkpt><trkpt lat="42.46830999920296" lon="14.088532050904504"><ele>40.0</ele><time>2026-04-11T16:03:10.998Z</time></trkpt><trkpt lat="42.468193027458376" lon="14.08866931668082"><ele>40.0</ele><time>2026-04-11T16:03:11.998Z</time></trkpt><trkpt lat="42.46807767485341" lon="14.08880982516264"><ele>40.0</ele><time>2026-04-11T16:03:12.998Z</time></trkpt><trkpt lat="42.46796326993265" lon="14.088947221408384"><ele>40.0</ele><time>2026-04-11T16:03:13.998Z</time></trkpt><trkpt lat="42.46785364020546" lon="14.089080787889458"><ele>40.0</ele><time>2026-04-11T16:03:14.998Z</time></trkpt><trkpt lat="42.46774285776635" lon="14.089216128970364"><ele>40.0</ele><time>2026-04-11T16:03:15.998Z</time></trkpt><trkpt lat="42.46763458396499" lon="14.089349114066042"><ele>40.0</ele><time>2026-04-11T16:03:16.998Z</time></trkpt><trkpt lat="42.46752978547963" lon="14.089483130748913"><ele>40.0</ele><time>2026-04-11T16:03:17.998Z</time></trkpt><trkpt lat="42.46742727124121" lon="14.089604968793308"><ele>40.0</ele><time>2026-04-11T16:03:18.998Z</time></trkpt><trkpt lat="42.4673234520634" lon="14.089733919854323"><ele>40.0</ele><time>2026-04-11T16:03:19.998Z</time></trkpt><trkpt lat="42.46721086249152" lon="14.089868816123063"><ele>40.0</ele><time>2026-04-11T16:03:20.998Z</time></trkpt><trkpt lat="42.46709587068854" lon="14.09000921252011"><ele>40.0</ele><time>2026-04-11T16:03:21.998Z</time></trkpt><trkpt lat="42.46698731260431" lon="14.090141539014475"><ele>40.0</ele><time>2026-04-11T16:03:22.998Z</time></trkpt><trkpt lat="42.4668753940285" lon="14.090278361992738"><ele>40.0</ele><time>2026-04-11T16:03:23.998Z</time></trkpt><trkpt lat="42.46676836523009" lon="14.09041010775768"><ele>40.0</ele><time>2026-04-11T16:03:24.998Z</time></trkpt><trkpt lat="42.46665321069753" lon="14.090553801334003"><ele>40.0</ele><time>2026-04-11T16:03:25.998Z</time></trkpt><trkpt lat="42.46653583855249" lon="14.090704567675315"><ele>40.0</ele><time>2026-04-11T16:03:26.998Z</time></trkpt><trkpt lat="42.46642727721487" lon="14.090849639052275"><ele>40.0</ele><time>2026-04-11T16:03:27.998Z</time></trkpt><trkpt lat="42.4663236779989" lon="14.090990597175367"><ele>39.75</ele><time>2026-04-11T16:03:28.998Z</time></trkpt><trkpt lat="42.466233165780416" lon="14.091129497282108"><ele>39.5</ele><time>2026-04-11T16:03:29.998Z</time></trkpt><trkpt lat="42.466144367985066" lon="14.09126678109601"><ele>39.25</ele><time>2026-04-11T16:03:30.998Z</time></trkpt><trkpt lat="42.46605658998142" lon="14.091414744960693"><ele>39.0</ele><time>2026-04-11T16:03:31.998Z</time></trkpt><trkpt lat="42.465960501934354" lon="14.091587480519221"><ele>39.5</ele><time>2026-04-11T16:03:32.998Z</time></trkpt><trkpt lat="42.46587020277192" lon="14.09176588596287"><ele>40.0</ele><time>2026-04-11T16:03:33.998Z</time></trkpt><trkpt lat="42.46579527748506" lon="14.09193265075335"><ele>40.5</ele><time>2026-04-11T16:03:34.998Z</time></trkpt><trkpt lat="42.465725341459645" lon="14.092093770319702"><ele>41.0</ele><time>2026-04-11T16:03:35.998Z</time></trkpt><trkpt lat="42.46565886524712" lon="14.09225211690896"><ele>41.0</ele><time>2026-04-11T16:03:36.998Z</time></trkpt><trkpt lat="42.4655834341426" lon="14.092400532086815"><ele>41.0</ele><time>2026-04-11T16:03:37.998Z</time></trkpt><trkpt lat="42.46550293963795" lon="14.092548036596957"><ele>41.0</ele><time>2026-04-11T16:03:38.998Z</time></trkpt><trkpt lat="42.46541775268604" lon="14.092688705417538"><ele>41.0</ele><time>2026-04-11T16:03:39.998Z</time></trkpt><trkpt lat="42.46531778448414" lon="14.092828110804467"><ele>41.5</ele><time>2026-04-11T16:03:40.998Z</time></trkpt><trkpt lat="42.46521210548187" lon="14.092930525621856"><ele>42.0</ele><time>2026-04-11T16:03:41.998Z</time></trkpt><trkpt lat="42.465109589983975" lon="14.093011495676492"><ele>42.5</ele><time>2026-04-11T16:03:42.998Z</time></trkpt><trkpt lat="42.46500309114412" lon="14.09308813736297"><ele>43.0</ele><time>2026-04-11T16:03:43.998Z</time></trkpt><trkpt lat="42.46488916460495" lon="14.093159004016847"><ele>43.0</ele><time>2026-04-11T16:03:44.998Z</time></trkpt><trkpt lat="42.464768549531726" lon="14.09322145154324"><ele>43.0</ele><time>2026-04-11T16:03:46Z</time></trkpt><trkpt lat="42.464638788379276" lon="14.093263686236426"><ele>43.0</ele><time>2026-04-11T16:03:47Z</time></trkpt><trkpt lat="42.46452042095871" lon="14.09328495899252"><ele>43.0</ele><time>2026-04-11T16:03:48Z</time></trkpt><trkpt lat="42.4644034021345" lon="14.093289633152324"><ele>43.4</ele><time>2026-04-11T16:03:49Z</time></trkpt><trkpt lat="42.464283519149056" lon="14.093283198371601"><ele>43.8</ele><time>2026-04-11T16:03:50Z</time></trkpt><trkpt lat="42.4641757867248" lon="14.093261352770261"><ele>44.2</ele><time>2026-04-11T16:03:51Z</time></trkpt><trkpt lat="42.46407540072695" lon="14.093232527401332"><ele>44.6</ele><time>2026-04-11T16:03:52Z</time></trkpt><trkpt lat="42.463979709454456" lon="14.093197072325665"><ele>45.0</ele><time>2026-04-11T16:03:53Z</time></trkpt><trkpt lat="42.46389190029439" lon="14.093160384577507"><ele>45.0</ele><time>2026-04-11T16:03:54Z</time></trkpt><trkpt lat="42.46381274903211" lon="14.093122083558153"><ele>45.0</ele><time>2026-04-11T16:03:55Z</time></trkpt><trkpt lat="42.46374512596872" lon="14.093091912642276"><ele>45.0</ele><time>2026-04-11T16:03:56Z</time></trkpt><trkpt lat="42.46368149202702" lon="14.0930731926817"><ele>45.0</ele><time>2026-04-11T16:03:57Z</time></trkpt><trkpt lat="42.463617418462334" lon="14.093068055056033"><ele>45.0</ele><time>2026-04-11T16:03:58Z</time></trkpt><trkpt lat="42.463553840800735" lon="14.093093760096588"><ele>45.0</ele><time>2026-04-11T16:03:59Z</time></trkpt><trkpt lat="42.46350170862279" lon="14.093146862563264"><ele>45.0</ele><time>2026-04-11T16:04:00Z</time></trkpt><trkpt lat="42.46342564870049" lon="14.093272452209016"><ele>47.25</ele><time>2026-04-11T16:04:02Z</time></trkpt><trkpt lat="42.46330428866147" lon="14.093368468261824"><ele>49.5</ele><time>2026-04-11T16:04:04Z</time></trkpt><trkpt lat="42.4632050262873" lon="14.09338903655441"><ele>51.75</ele><time>2026-04-11T16:04:05Z</time></trkpt><trkpt lat="42.46309126734067" lon="14.09340479537465"><ele>54.0</ele><time>2026-04-11T16:04:06Z</time></trkpt><trkpt lat="42.462973034894524" lon="14.093421337674124"><ele>54.0</ele><time>2026-04-11T16:04:07Z</time></trkpt><trkpt lat="42.462860302839985" lon="14.093434831762233"><ele>54.0</ele><time>2026-04-11T16:04:08Z</time></trkpt><trkpt lat="42.46273109755278" lon="14.093454475638186"><ele>54.0</ele><time>2026-04-11T16:04:09Z</time></trkpt><trkpt lat="42.46259241991181" lon="14.093472727173472"><ele>54.0</ele><time>2026-04-11T16:04:10Z</time></trkpt><trkpt lat="42.462445310223984" lon="14.093496837866834"><ele>54.0</ele><time>2026-04-11T16:04:11Z</time></trkpt><trkpt lat="42.462293539628014" lon="14.093517860880429"><ele>54.0</ele><time>2026-04-11T16:04:12Z</time></trkpt><trkpt lat="42.4621335756456" lon="14.093537851760239"><ele>54.0</ele><time>2026-04-11T16:04:12.999Z</time></trkpt><trkpt lat="42.461990110801665" lon="14.093560183862241"><ele>54.75</ele><time>2026-04-11T16:04:13.999Z</time></trkpt><trkpt lat="42.46185150798018" lon="14.093573239446268"><ele>55.5</ele><time>2026-04-11T16:04:14.999Z</time></trkpt><trkpt lat="42.46172192961773" lon="14.093586112227172"><ele>56.25</ele><time>2026-04-11T16:04:15.999Z</time></trkpt><trkpt lat="42.46160057622994" lon="14.093606106025607"><ele>57.0</ele><time>2026-04-11T16:04:16.999Z</time></trkpt><trkpt lat="42.46149546308691" lon="14.093616671627693"><ele>57.0</ele><time>2026-04-11T16:04:17.999Z</time></trkpt><trkpt lat="42.46140924751964" lon="14.093619096839793"><ele>57.0</ele><time>2026-04-11T16:04:18.999Z</time></trkpt><trkpt lat="42.46133008194742" lon="14.09359806319658"><ele>57.0</ele><time>2026-04-11T16:04:19.999Z</time></trkpt><trkpt lat="42.461253229074316" lon="14.093557612703771"><ele>57.0</ele><time>2026-04-11T16:04:20.999Z</time></trkpt><trkpt lat="42.46118594397949" lon="14.09352688020915"><ele>57.0</ele><time>2026-04-11T16:04:21.999Z</time></trkpt><trkpt lat="42.4611216096623" lon="14.093531873487763"><ele>57.0</ele><time>2026-04-11T16:04:22.999Z</time></trkpt><trkpt lat="42.461060317106295" lon="14.093571239144545"><ele>58.166666666666664</ele><time>2026-04-11T16:04:23.999Z</time></trkpt><trkpt lat="42.46102260600497" lon="14.093644818656164"><ele>59.33333333333333</ele><time>2026-04-11T16:04:24.999Z</time></trkpt><trkpt lat="42.461018118895026" lon="14.09373566777611"><ele>60.5</ele><time>2026-04-11T16:04:25.999Z</time></trkpt><trkpt lat="42.46104402776694" lon="14.093836137573863"><ele>61.666666666666664</ele><time>2026-04-11T16:04:26.999Z</time></trkpt><trkpt lat="42.46109252187812" lon="14.093944272993609"><ele>62.83333333333333</ele><time>2026-04-11T16:04:27.999Z</time></trkpt><trkpt lat="42.46115812127272" lon="14.094073254563808"><ele>64.0</ele><time>2026-04-11T16:04:28.999Z</time></trkpt><trkpt lat="42.46120974239318" lon="14.094223338024417"><ele>65.0</ele><time>2026-04-11T16:04:29.999Z</time></trkpt><trkpt lat="42.46124690742593" lon="14.094384883419238"><ele>66.0</ele><time>2026-04-11T16:04:30.999Z</time></trkpt><trkpt lat="42.46126542804104" lon="14.094556650876818"><ele>67.0</ele><time>2026-04-11T16:04:31.999Z</time></trkpt><trkpt lat="42.46126620977478" lon="14.094747907664141"><ele>68.0</ele><time>2026-04-11T16:04:32.999Z</time></trkpt><trkpt lat="42.46125382037346" lon="14.094947883557053"><ele>68.0</ele><time>2026-04-11T16:04:33.999Z</time></trkpt><trkpt lat="42.46123313554726" lon="14.0951584372121"><ele>68.0</ele><time>2026-04-11T16:04:34.999Z</time></trkpt><trkpt lat="42.461210477437106" lon="14.095373262176665"><ele>68.0</ele><time>2026-04-11T16:04:35.999Z</time></trkpt><trkpt lat="42.461194356872575" lon="14.095591481449766"><ele>67.75</ele><time>2026-04-11T16:04:36.999Z</time></trkpt><trkpt lat="42.461181779616666" lon="14.09578820927131"><ele>67.5</ele><time>2026-04-11T16:04:37.999Z</time></trkpt><trkpt lat="42.46116890146199" lon="14.095972118769636"><ele>67.25</ele><time>2026-04-11T16:04:38.999Z</time></trkpt><trkpt lat="42.46115640573537" lon="14.096154205639555"><ele>67.0</ele><time>2026-04-11T16:04:39.999Z</time></trkpt><trkpt lat="42.46115000953166" lon="14.096325950009417"><ele>67.0</ele><time>2026-04-11T16:04:40.999Z</time></trkpt><trkpt lat="42.46117178921381" lon="14.096506484610229"><ele>67.0</ele><time>2026-04-11T16:04:41.999Z</time></trkpt><trkpt lat="42.461223770129386" lon="14.0966924554349"><ele>67.0</ele><time>2026-04-11T16:04:42.999Z</time></trkpt><trkpt lat="42.461292352807355" lon="14.096885739661987"><ele>67.0</ele><time>2026-04-11T16:04:43.999Z</time></trkpt><trkpt lat="42.46137019134983" lon="14.097077721766096"><ele>71.33333333333333</ele><time>2026-04-11T16:04:44.999Z</time></trkpt><trkpt lat="42.46145608643607" lon="14.097272819364683"><ele>75.66666666666667</ele><time>2026-04-11T16:04:45.999Z</time></trkpt><trkpt lat="42.46154011327487" lon="14.09745302716094"><ele>80.0</ele><time>2026-04-11T16:04:46.999Z</time></trkpt><trkpt lat="42.46161598978582" lon="14.09763577707335"><ele>80.0</ele><time>2026-04-11T16:04:47.999Z</time></trkpt><trkpt lat="42.46169241599837" lon="14.097826734693687"><ele>80.0</ele><time>2026-04-11T16:04:48.999Z</time></trkpt><trkpt lat="42.46177536893138" lon="14.098005070007016"><ele>80.0</ele><time>2026-04-11T16:04:49.999Z</time></trkpt><trkpt lat="42.46186068890355" lon="14.09816394473854"><ele>79.33333333333334</ele><time>2026-04-11T16:04:50.999Z</time></trkpt><trkpt lat="42.46196371666193" lon="14.098311644947728"><ele>78.66666666666667</ele><time>2026-04-11T16:04:51.999Z</time></trkpt><trkpt lat="42.46207955098099" lon="14.098455314900127"><ele>78.0</ele><time>2026-04-11T16:04:52.999Z</time></trkpt><trkpt lat="42.46220031306839" lon="14.098596009452939"><ele>84.33333333333334</ele><time>2026-04-11T16:04:53.999Z</time></trkpt><trkpt lat="42.46232489016062" lon="14.098743791523532"><ele>90.66666666666667</ele><time>2026-04-11T16:04:54.999Z</time></trkpt><trkpt lat="42.46245619646612" lon="14.098878249862999"><ele>97.0</ele><time>2026-04-11T16:04:55.999Z</time></trkpt><trkpt lat="42.46259174095077" lon="14.099004598227136"><ele>100.0</ele><time>2026-04-11T16:04:56.999Z</time></trkpt><trkpt lat="42.46271246254284" lon="14.09911534631341"><ele>103.0</ele><time>2026-04-11T16:04:57.999Z</time></trkpt><trkpt lat="42.46284494328165" lon="14.099223298404272"><ele>106.0</ele><time>2026-04-11T16:04:58.999Z</time></trkpt><trkpt lat="42.462976514819715" lon="14.099325964873817"><ele>106.0</ele><time>2026-04-11T16:04:59.999Z</time></trkpt><trkpt lat="42.4630908921937" lon="14.099430207931425"><ele>106.0</ele><time>2026-04-11T16:05:00.999Z</time></trkpt><trkpt lat="42.46318346166534" lon="14.09958593592066"><ele>106.0</ele><time>2026-04-11T16:05:01.999Z</time></trkpt><trkpt lat="42.46329437530741" lon="14.099747920593254"><ele>106.0</ele><time>2026-04-11T16:05:02.999Z</time></trkpt><trkpt lat="42.463388310639765" lon="14.099945722293027"><ele>101.33333333333334</ele><time>2026-04-11T16:05:03.999Z</time></trkpt><trkpt lat="42.463482830911666" lon="14.100107633143288"><ele>96.66666666666667</ele><time>2026-04-11T16:05:04.999Z</time></trkpt><trkpt lat="42.46358552956804" lon="14.100248370918624"><ele>92.0</ele><time>2026-04-11T16:05:05.999Z</time></trkpt><trkpt lat="42.4637131814464" lon="14.1003680888657"><ele>94.5</ele><time>2026-04-11T16:05:06.999Z</time></trkpt><trkpt lat="42.46384717811193" lon="14.100450819397208"><ele>97.0</ele><time>2026-04-11T16:05:07.999Z</time></trkpt><trkpt lat="42.46396168258758" lon="14.100531328522068"><ele>99.5</ele><time>2026-04-11T16:05:08.999Z</time></trkpt><trkpt lat="42.46405167514625" lon="14.100655348967774"><ele>102.0</ele><time>2026-04-11T16:05:09.999Z</time></trkpt><trkpt lat="42.46412029059102" lon="14.100832786952326"><ele>102.0</ele><time>2026-04-11T16:05:10.999Z</time></trkpt><trkpt lat="42.464178547553985" lon="14.101028288949278"><ele>102.0</ele><time>2026-04-11T16:05:11.999Z</time></trkpt><trkpt lat="42.46424020557461" lon="14.10118603788065"><ele>102.0</ele><time>2026-04-11T16:05:12.999Z</time></trkpt><trkpt lat="42.46431319753177" lon="14.101327737899473"><ele>102.0</ele><time>2026-04-11T16:05:13.998Z</time></trkpt><trkpt lat="42.46438322524528" lon="14.101479730299452"><ele>101.66666666666666</ele><time>2026-04-11T16:05:14.998Z</time></trkpt><trkpt lat="42.46443034978733" lon="14.101668553182455"><ele>101.33333333333333</ele><time>2026-04-11T16:05:15.998Z</time></trkpt><trkpt lat="42.46446295953835" lon="14.101885083165717"><ele>101.0</ele><time>2026-04-11T16:05:16.998Z</time></trkpt><trkpt lat="42.46451883638027" lon="14.10209601086631"><ele>101.0</ele><time>2026-04-11T16:05:17.998Z</time></trkpt><trkpt lat="42.464591870197026" lon="14.102273861682336"><ele>101.0</ele><time>2026-04-11T16:05:18.998Z</time></trkpt><trkpt lat="42.46465350034559" lon="14.10243487123783"><ele>101.0</ele><time>2026-04-11T16:05:19.998Z</time></trkpt><trkpt lat="42.46468814173302" lon="14.102589140958715"><ele>101.0</ele><time>2026-04-11T16:05:20.998Z</time></trkpt><trkpt lat="42.46470648582759" lon="14.1027272218272"><ele>102.4</ele><time>2026-04-11T16:05:21.998Z</time></trkpt><trkpt lat="42.464721130257466" lon="14.1028573574658"><ele>103.8</ele><time>2026-04-11T16:05:22.998Z</time></trkpt><trkpt lat="42.46473172971712" lon="14.10296753789014"><ele>105.20000000000002</ele><time>2026-04-11T16:05:23.998Z</time></trkpt><trkpt lat="42.46473900016789" lon="14.103100243341872"><ele>106.60000000000001</ele><time>2026-04-11T16:05:25.998Z</time></trkpt><trkpt lat="42.464644668937844" lon="14.10313002539154"><ele>108.0</ele><time>2026-04-11T16:05:28.998Z</time></trkpt><trkpt lat="42.46451860133806" lon="14.103036480981027"><ele>108.0</ele><time>2026-04-11T16:05:30.998Z</time></trkpt><trkpt lat="42.464448685893686" lon="14.1030365493519"><ele>108.0</ele><time>2026-04-11T16:05:31.998Z</time></trkpt><trkpt lat="42.464389273826576" lon="14.103080520417624"><ele>108.0</ele><time>2026-04-11T16:05:32.998Z</time></trkpt><trkpt lat="42.464357195822494" lon="14.10316390179334"><ele>108.0</ele><time>2026-04-11T16:05:33.998Z</time></trkpt><trkpt lat="42.464369839049176" lon="14.103262424264708"><ele>108.0</ele><time>2026-04-11T16:05:34.998Z</time></trkpt><trkpt lat="42.46441729859993" lon="14.103344516524468"><ele>108.0</ele><time>2026-04-11T16:05:35.998Z</time></trkpt><trkpt lat="42.464495428096704" lon="14.103401423502858"><ele>108.0</ele><time>2026-04-11T16:05:36.998Z</time></trkpt><trkpt lat="42.46457059369454" lon="14.103442331511074"><ele>109.66666666666667</ele><time>2026-04-11T16:05:37.998Z</time></trkpt><trkpt lat="42.464641084792056" lon="14.103482819675815"><ele>111.33333333333334</ele><time>2026-04-11T16:05:38.998Z</time></trkpt><trkpt lat="42.4647177005756" lon="14.103526639176929"><ele>113.0</ele><time>2026-04-11T16:05:39.998Z</time></trkpt><trkpt lat="42.46477561837338" lon="14.103610643494383"><ele>114.66666666666667</ele><time>2026-04-11T16:05:40.998Z</time></trkpt><trkpt lat="42.46474091251546" lon="14.103770375665732"><ele>116.33333333333334</ele><time>2026-04-11T16:05:42.998Z</time></trkpt><trkpt lat="42.46468612678826" lon="14.103821063443169"><ele>118.0</ele><time>2026-04-11T16:05:43.998Z</time></trkpt><trkpt lat="42.46458932064652" lon="14.103828283049866"><ele>118.5</ele><time>2026-04-11T16:05:44.998Z</time></trkpt><trkpt lat="42.46446136069475" lon="14.103884158907785"><ele>119.0</ele><time>2026-04-11T16:05:45.998Z</time></trkpt><trkpt lat="42.464338007713955" lon="14.103926907718387"><ele>119.5</ele><time>2026-04-11T16:05:46.998Z</time></trkpt><trkpt lat="42.46420136372386" lon="14.10395261031198"><ele>120.0</ele><time>2026-04-11T16:05:47.998Z</time></trkpt><trkpt lat="42.46405566875741" lon="14.103973578084215"><ele>120.0</ele><time>2026-04-11T16:05:48.998Z</time></trkpt><trkpt lat="42.4638995146155" lon="14.10399847744193"><ele>120.0</ele><time>2026-04-11T16:05:49.998Z</time></trkpt><trkpt lat="42.46373335239073" lon="14.104030446975566"><ele>120.0</ele><time>2026-04-11T16:05:50.998Z</time></trkpt><trkpt lat="42.46359075250404" lon="14.10408504564452"><ele>122.25</ele><time>2026-04-11T16:05:52Z</time></trkpt><trkpt lat="42.46346548019221" lon="14.104113307796078"><ele>124.5</ele><time>2026-04-11T16:05:53Z</time></trkpt><trkpt lat="42.46335208707036" lon="14.104150357289676"><ele>126.75</ele><time>2026-04-11T16:05:54Z</time></trkpt><trkpt lat="42.463255759301056" lon="14.104205104916833"><ele>129.0</ele><time>2026-04-11T16:05:55Z</time></trkpt><trkpt lat="42.46315556142947" lon="14.104308177519954"><ele>129.0</ele><time>2026-04-11T16:05:56Z</time></trkpt><trkpt lat="42.463051110931474" lon="14.104430829037609"><ele>129.0</ele><time>2026-04-11T16:05:57Z</time></trkpt><trkpt lat="42.46296660341716" lon="14.104549816982441"><ele>129.0</ele><time>2026-04-11T16:05:58Z</time></trkpt><trkpt lat="42.4628777954242" lon="14.104651758541841"><ele>129.0</ele><time>2026-04-11T16:05:59Z</time></trkpt><trkpt lat="42.46280040512914" lon="14.104727795709113"><ele>129.33333333333334</ele><time>2026-04-11T16:06:00Z</time></trkpt><trkpt lat="42.462728233971546" lon="14.104765199048883"><ele>129.66666666666666</ele><time>2026-04-11T16:06:01Z</time></trkpt><trkpt lat="42.4626650259768" lon="14.104792822611634"><ele>130.0</ele><time>2026-04-11T16:06:02Z</time></trkpt><trkpt lat="42.46256889707572" lon="14.10471897647803"><ele>130.33333333333331</ele><time>2026-04-11T16:06:04Z</time></trkpt><trkpt lat="42.462511600277665" lon="14.104658409747094"><ele>130.66666666666666</ele><time>2026-04-11T16:06:05Z</time></trkpt><trkpt lat="42.46241437752401" lon="14.104707597361948"><ele>131.0</ele><time>2026-04-11T16:06:07Z</time></trkpt><trkpt lat="42.46239025684386" lon="14.104791290210748"><ele>131.0</ele><time>2026-04-11T16:06:08Z</time></trkpt><trkpt lat="42.462407675238474" lon="14.10488603024298"><ele>131.0</ele><time>2026-04-11T16:06:09Z</time></trkpt><trkpt lat="42.462449373649996" lon="14.104986679876951"><ele>131.0</ele><time>2026-04-11T16:06:10Z</time></trkpt><trkpt lat="42.46239528576022" lon="14.105167625602126"><ele>131.0</ele><time>2026-04-11T16:06:12Z</time></trkpt><trkpt lat="42.46228309094353" lon="14.105246063447437"><ele>131.0</ele><time>2026-04-11T16:06:13Z</time></trkpt><trkpt lat="42.46217144474516" lon="14.105346351866539"><ele>133.0</ele><time>2026-04-11T16:06:14Z</time></trkpt><trkpt lat="42.462070700864885" lon="14.105450552584363"><ele>135.0</ele><time>2026-04-11T16:06:15Z</time></trkpt><trkpt lat="42.46196256288493" lon="14.105560227374824"><ele>137.0</ele><time>2026-04-11T16:06:16Z</time></trkpt><trkpt lat="42.46184056878402" lon="14.105672280215872"><ele>139.0</ele><time>2026-04-11T16:06:17Z</time></trkpt><trkpt lat="42.46171565147233" lon="14.105793617616918"><ele>139.0</ele><time>2026-04-11T16:06:18Z</time></trkpt><trkpt lat="42.4616033710052" lon="14.105911696184856"><ele>139.0</ele><time>2026-04-11T16:06:18.999Z</time></trkpt><trkpt lat="42.46150067986954" lon="14.106016876703267"><ele>139.0</ele><time>2026-04-11T16:06:19.999Z</time></trkpt><trkpt lat="42.46139894020379" lon="14.106117960848376"><ele>139.0</ele><time>2026-04-11T16:06:20.999Z</time></trkpt><trkpt lat="42.46129583767853" lon="14.106217223313166"><ele>141.8</ele><time>2026-04-11T16:06:21.999Z</time></trkpt><trkpt lat="42.46119283119675" lon="14.106311012801385"><ele>144.60000000000002</ele><time>2026-04-11T16:06:22.999Z</time></trkpt><trkpt lat="42.46109399934596" lon="14.106382109182604"><ele>147.4</ele><time>2026-04-11T16:06:23.999Z</time></trkpt><trkpt lat="42.460988517957524" lon="14.10642487470859"><ele>150.20000000000002</ele><time>2026-04-11T16:06:24.999Z</time></trkpt><trkpt lat="42.46088925059039" lon="14.106451458303649"><ele>153.0</ele><time>2026-04-11T16:06:25.999Z</time></trkpt><trkpt lat="42.46079668694867" lon="14.106490449241338"><ele>153.0</ele><time>2026-04-11T16:06:26.999Z</time></trkpt><trkpt lat="42.46071903922257" lon="14.10654763002088"><ele>153.0</ele><time>2026-04-11T16:06:27.999Z</time></trkpt><trkpt lat="42.46065061802395" lon="14.106618657094192"><ele>153.0</ele><time>2026-04-11T16:06:28.999Z</time></trkpt><trkpt lat="42.46058424401642" lon="14.106715662956171"><ele>153.0</ele><time>2026-04-11T16:06:29.999Z</time></trkpt><trkpt lat="42.46052572473952" lon="14.106822741463255"><ele>153.0</ele><time>2026-04-11T16:06:30.999Z</time></trkpt><trkpt lat="42.46048014657069" lon="14.106949746972969"><ele>154.4</ele><time>2026-04-11T16:06:31.999Z</time></trkpt><trkpt lat="42.460431909906774" lon="14.107076263449416"><ele>155.8</ele><time>2026-04-11T16:06:32.999Z</time></trkpt><trkpt lat="42.46038545215959" lon="14.10718339322307"><ele>157.2</ele><time>2026-04-11T16:06:33.999Z</time></trkpt><trkpt lat="42.46035245618662" lon="14.107302778540106"><ele>158.6</ele><time>2026-04-11T16:06:34.999Z</time></trkpt><trkpt lat="42.46033246624777" lon="14.107434725820832"><ele>160.0</ele><time>2026-04-11T16:06:35.999Z</time></trkpt><trkpt lat="42.46031825155031" lon="14.107559867396374"><ele>160.0</ele><time>2026-04-11T16:06:36.999Z</time></trkpt><trkpt lat="42.46030387516497" lon="14.10768699648547"><ele>160.0</ele><time>2026-04-11T16:06:37.999Z</time></trkpt><trkpt lat="42.460288574351495" lon="14.107793791648207"><ele>160.0</ele><time>2026-04-11T16:06:38.999Z</time></trkpt><trkpt lat="42.460271123486926" lon="14.107883186171946"><ele>160.0</ele><time>2026-04-11T16:06:39.999Z</time></trkpt><trkpt lat="42.460249612337364" lon="14.107966247970918"><ele>160.0</ele><time>2026-04-11T16:06:40.999Z</time></trkpt><trkpt lat="42.46022120225185" lon="14.108044062234402"><ele>160.0</ele><time>2026-04-11T16:06:41.999Z</time></trkpt><trkpt lat="42.46018992616441" lon="14.108129250480165"><ele>160.0</ele><time>2026-04-11T16:06:42.999Z</time></trkpt><trkpt lat="42.460157196886925" lon="14.108212058712713"><ele>159.5</ele><time>2026-04-11T16:06:43.999Z</time></trkpt><trkpt lat="42.460125485221305" lon="14.108293457978112"><ele>159.0</ele><time>2026-04-11T16:06:44.999Z</time></trkpt><trkpt lat="42.46008584643614" lon="14.108392523750638"><ele>158.5</ele><time>2026-04-11T16:06:45.999Z</time></trkpt><trkpt lat="42.46004386197425" lon="14.108489633782943"><ele>158.0</ele><time>2026-04-11T16:06:46.999Z</time></trkpt><trkpt lat="42.46000719845722" lon="14.108584254949445"><ele>157.5</ele><time>2026-04-11T16:06:47.999Z</time></trkpt><trkpt lat="42.45997279434384" lon="14.108694338494947"><ele>157.0</ele><time>2026-04-11T16:06:48.999Z</time></trkpt><trkpt lat="42.45993669164728" lon="14.10881075860961"><ele>157.0</ele><time>2026-04-11T16:06:49.999Z</time></trkpt><trkpt lat="42.45989188950614" lon="14.108921275596689"><ele>157.0</ele><time>2026-04-11T16:06:50.999Z</time></trkpt><trkpt lat="42.459842773177705" lon="14.109017591952359"><ele>157.0</ele><time>2026-04-11T16:06:51.999Z</time></trkpt><trkpt lat="42.459785240768674" lon="14.109107804000462"><ele>157.0</ele><time>2026-04-11T16:06:52.999Z</time></trkpt><trkpt lat="42.45972067628182" lon="14.109183625773218"><ele>157.0</ele><time>2026-04-11T16:06:53.999Z</time></trkpt><trkpt lat="42.45965938380351" lon="14.109254438050977"><ele>157.0</ele><time>2026-04-11T16:06:54.999Z</time></trkpt><trkpt lat="42.45959493048117" lon="14.109325697124408"><ele>158.16666666666669</ele><time>2026-04-11T16:06:55.999Z</time></trkpt><trkpt lat="42.45951878849426" lon="14.109400338904507"><ele>159.33333333333334</ele><time>2026-04-11T16:06:56.999Z</time></trkpt><trkpt lat="42.459435954939316" lon="14.109474763787771"><ele>160.5</ele><time>2026-04-11T16:06:57.999Z</time></trkpt><trkpt lat="42.45936383055449" lon="14.10953982097798"><ele>161.66666666666666</ele><time>2026-04-11T16:06:58.999Z</time></trkpt><trkpt lat="42.45931291341561" lon="14.109599086920547"><ele>162.83333333333331</ele><time>2026-04-11T16:06:59.999Z</time></trkpt><trkpt lat="42.45925082733771" lon="14.109674851355383"><ele>164.0</ele><time>2026-04-11T16:07:00.999Z</time></trkpt><trkpt lat="42.45918993919307" lon="14.109750747863403"><ele>164.0</ele><time>2026-04-11T16:07:01.999Z</time></trkpt><trkpt lat="42.459131872025004" lon="14.10982129207042"><ele>164.0</ele><time>2026-04-11T16:07:02.999Z</time></trkpt><trkpt lat="42.45906105507344" lon="14.109913521707853"><ele>164.0</ele><time>2026-04-11T16:07:03.999Z</time></trkpt><trkpt lat="42.45898798268198" lon="14.110011398011395"><ele>164.0</ele><time>2026-04-11T16:07:04.999Z</time></trkpt><trkpt lat="42.45892618974724" lon="14.110108978241565"><ele>164.0</ele><time>2026-04-11T16:07:05.999Z</time></trkpt><trkpt lat="42.45887319736516" lon="14.110207814015686"><ele>162.79999999999998</ele><time>2026-04-11T16:07:06.999Z</time></trkpt><trkpt lat="42.45881639511006" lon="14.110304453954779"><ele>161.6</ele><time>2026-04-11T16:07:07.999Z</time></trkpt><trkpt lat="42.45876211555231" lon="14.110393664440942"><ele>160.4</ele><time>2026-04-11T16:07:08.999Z</time></trkpt><trkpt lat="42.45870824220564" lon="14.110485029987968"><ele>159.2</ele><time>2026-04-11T16:07:09.999Z</time></trkpt><trkpt lat="42.45865220044308" lon="14.110582979241043"><ele>158.0</ele><time>2026-04-11T16:07:10.999Z</time></trkpt><trkpt lat="42.45858938957287" lon="14.110689705485655"><ele>158.66666666666666</ele><time>2026-04-11T16:07:11.999Z</time></trkpt><trkpt lat="42.45852366709266" lon="14.11079670724464"><ele>159.33333333333331</ele><time>2026-04-11T16:07:12.999Z</time></trkpt><trkpt lat="42.45845784894059" lon="14.110906068121174"><ele>160.0</ele><time>2026-04-11T16:07:13.999Z</time></trkpt><trkpt lat="42.45839875655495" lon="14.1110039138989"><ele>160.66666666666666</ele><time>2026-04-11T16:07:14.999Z</time></trkpt><trkpt lat="42.458346086606454" lon="14.111091838587269"><ele>161.33333333333334</ele><time>2026-04-11T16:07:15.999Z</time></trkpt><trkpt lat="42.45830022521698" lon="14.111154126679422"><ele>162.0</ele><time>2026-04-11T16:07:16.999Z</time></trkpt><trkpt lat="42.45823750139576" lon="14.111222594738154"><ele>162.0</ele><time>2026-04-11T16:07:17.999Z</time></trkpt><trkpt lat="42.45817168789099" lon="14.111257829411796"><ele>162.0</ele><time>2026-04-11T16:07:18.998Z</time></trkpt><trkpt lat="42.45810179007118" lon="14.111267226555134"><ele>162.0</ele><time>2026-04-11T16:07:19.998Z</time></trkpt><trkpt lat="42.45803506725069" lon="14.111238585979129"><ele>162.0</ele><time>2026-04-11T16:07:20.998Z</time></trkpt><trkpt lat="42.457977385981025" lon="14.111171998713521"><ele>162.0</ele><time>2026-04-11T16:07:21.998Z</time></trkpt><trkpt lat="42.45794039693926" lon="14.111081603507563"><ele>162.0</ele><time>2026-04-11T16:07:22.998Z</time></trkpt><trkpt lat="42.45792225849956" lon="14.110975116388227"><ele>162.0</ele><time>2026-04-11T16:07:23.998Z</time></trkpt><trkpt lat="42.45790304649479" lon="14.11088398723133"><ele>164.6</ele><time>2026-04-11T16:07:24.998Z</time></trkpt><trkpt lat="42.45783584131062" lon="14.110764557272223"><ele>167.2</ele><time>2026-04-11T16:07:26.998Z</time></trkpt><trkpt lat="42.45771232410471" lon="14.110770339451731"><ele>169.8</ele><time>2026-04-11T16:07:28.998Z</time></trkpt><trkpt lat="42.45766399993846" lon="14.110825913097885"><ele>172.4</ele><time>2026-04-11T16:07:29.998Z</time></trkpt><trkpt lat="42.457641240294315" lon="14.110908349569273"><ele>175.0</ele><time>2026-04-11T16:07:30.998Z</time></trkpt><trkpt lat="42.45768400037768" lon="14.111019330273148"><ele>175.0</ele><time>2026-04-11T16:07:31.998Z</time></trkpt><trkpt lat="42.457722659860806" lon="14.111136522930657"><ele>175.0</ele><time>2026-04-11T16:07:32.998Z</time></trkpt><trkpt lat="42.45775963317396" lon="14.111248579166192"><ele>175.0</ele><time>2026-04-11T16:07:33.998Z</time></trkpt><trkpt lat="42.45779044520703" lon="14.111377538814649"><ele>175.0</ele><time>2026-04-11T16:07:34.998Z</time></trkpt><trkpt lat="42.45781526925319" lon="14.111503650420065"><ele>175.0</ele><time>2026-04-11T16:07:35.998Z</time></trkpt><trkpt lat="42.457842460980025" lon="14.11162550220685"><ele>175.4</ele><time>2026-04-11T16:07:36.998Z</time></trkpt><trkpt lat="42.45787450155041" lon="14.111755715419841"><ele>175.8</ele><time>2026-04-11T16:07:37.998Z</time></trkpt><trkpt lat="42.45790432064757" lon="14.111884893585403"><ele>176.2</ele><time>2026-04-11T16:07:38.998Z</time></trkpt><trkpt lat="42.457936870991546" lon="14.112002755445024"><ele>176.6</ele><time>2026-04-11T16:07:39.998Z</time></trkpt><trkpt lat="42.45796462593798" lon="14.112121796098485"><ele>177.0</ele><time>2026-04-11T16:07:40.998Z</time></trkpt><trkpt lat="42.457990686486596" lon="14.112232390123728"><ele>176.66666666666666</ele><time>2026-04-11T16:07:41.998Z</time></trkpt><trkpt lat="42.45801689251041" lon="14.112343370556514"><ele>176.33333333333334</ele><time>2026-04-11T16:07:42.998Z</time></trkpt><trkpt lat="42.458041867438794" lon="14.112462928416775"><ele>176.0</ele><time>2026-04-11T16:07:43.998Z</time></trkpt><trkpt lat="42.458066269974076" lon="14.112581085546802"><ele>175.66666666666669</ele><time>2026-04-11T16:07:44.998Z</time></trkpt><trkpt lat="42.458083445050455" lon="14.112699079947271"><ele>175.33333333333334</ele><time>2026-04-11T16:07:45.998Z</time></trkpt><trkpt lat="42.458094209697144" lon="14.11281473186169"><ele>175.0</ele><time>2026-04-11T16:07:46.998Z</time></trkpt><trkpt lat="42.45810135746896" lon="14.112914091183404"><ele>175.0</ele><time>2026-04-11T16:07:47.998Z</time></trkpt><trkpt lat="42.458094311201855" lon="14.113029602786417"><ele>175.0</ele><time>2026-04-11T16:07:48.998Z</time></trkpt><trkpt lat="42.45807648340777" lon="14.1131403917008"><ele>175.0</ele><time>2026-04-11T16:07:49.998Z</time></trkpt><trkpt lat="42.458041278901945" lon="14.113238697140373"><ele>175.0</ele><time>2026-04-11T16:07:50.998Z</time></trkpt><trkpt lat="42.45799186592668" lon="14.113339615653912"><ele>175.0</ele><time>2026-04-11T16:07:51.998Z</time></trkpt><trkpt lat="42.45795013772576" lon="14.113445233894488"><ele>175.0</ele><time>2026-04-11T16:07:52.998Z</time></trkpt><trkpt lat="42.457924625015785" lon="14.113534925141677"><ele>176.0</ele><time>2026-04-11T16:07:53.998Z</time></trkpt><trkpt lat="42.45785503267929" lon="14.113620895261874"><ele>177.0</ele><time>2026-04-11T16:07:55.998Z</time></trkpt><trkpt lat="42.45775941778048" lon="14.113525877172794"><ele>178.0</ele><time>2026-04-11T16:07:58Z</time></trkpt><trkpt lat="42.45769080050334" lon="14.113485395900378"><ele>179.0</ele><time>2026-04-11T16:07:59Z</time></trkpt><trkpt lat="42.457619125261516" lon="14.113420657777242"><ele>180.0</ele><time>2026-04-11T16:08:00Z</time></trkpt><trkpt lat="42.4575381303824" lon="14.113349568944438"><ele>180.0</ele><time>2026-04-11T16:08:01Z</time></trkpt><trkpt lat="42.45745351195366" lon="14.113266719259999"><ele>180.0</ele><time>2026-04-11T16:08:02Z</time></trkpt><trkpt lat="42.45736525338577" lon="14.113201372762283"><ele>180.0</ele><time>2026-04-11T16:08:03Z</time></trkpt><trkpt lat="42.45728837437798" lon="14.113133674367827"><ele>180.0</ele><time>2026-04-11T16:08:04Z</time></trkpt><trkpt lat="42.457216480105245" lon="14.113072089856237"><ele>180.0</ele><time>2026-04-11T16:08:05Z</time></trkpt><trkpt lat="42.45714165079053" lon="14.113015760227148"><ele>179.16666666666666</ele><time>2026-04-11T16:08:06Z</time></trkpt><trkpt lat="42.45706952639071" lon="14.112966173742594"><ele>178.33333333333334</ele><time>2026-04-11T16:08:07Z</time></trkpt><trkpt lat="42.45699502637217" lon="14.112920710680259"><ele>177.5</ele><time>2026-04-11T16:08:08Z</time></trkpt><trkpt lat="42.45692392793306" lon="14.112882534460988"><ele>176.66666666666669</ele><time>2026-04-11T16:08:09Z</time></trkpt><trkpt lat="42.456855638649316" lon="14.112838405099362"><ele>175.83333333333334</ele><time>2026-04-11T16:08:10Z</time></trkpt><trkpt lat="42.45679221542198" lon="14.112796721593037"><ele>175.0</ele><time>2026-04-11T16:08:11Z</time></trkpt><trkpt lat="42.45673155436099" lon="14.11275779356333"><ele>175.0</ele><time>2026-04-11T16:08:12Z</time></trkpt><trkpt lat="42.45662894303224" lon="14.112704528570436"><ele>175.0</ele><time>2026-04-11T16:08:14Z</time></trkpt><trkpt lat="42.456529961604375" lon="14.112680031823576"><ele>175.0</ele><time>2026-04-11T16:08:16Z</time></trkpt><trkpt lat="42.45642573035046" lon="14.11265437983855"><ele>175.0</ele><time>2026-04-11T16:08:18Z</time></trkpt><trkpt lat="42.45631748597576" lon="14.112635470169911"><ele>175.0</ele><time>2026-04-11T16:08:20Z</time></trkpt><trkpt lat="42.45620885609589" lon="14.112620353832027"><ele>174.6</ele><time>2026-04-11T16:08:22Z</time></trkpt><trkpt lat="42.45609857978745" lon="14.112598274402067"><ele>174.2</ele><time>2026-04-11T16:08:24Z</time></trkpt><trkpt lat="42.45598437896824" lon="14.11258023791054"><ele>173.8</ele><time>2026-04-11T16:08:26Z</time></trkpt><trkpt lat="42.45586192760187" lon="14.11256174061692"><ele>173.4</ele><time>2026-04-11T16:08:28Z</time></trkpt><trkpt lat="42.45579926551486" lon="14.112550219219065"><ele>173.0</ele><time>2026-04-11T16:08:29Z</time></trkpt><trkpt lat="42.45573554209118" lon="14.11253498644237"><ele>173.0</ele><time>2026-04-11T16:08:29.999Z</time></trkpt><trkpt lat="42.45560987698208" lon="14.112519867544417"><ele>173.0</ele><time>2026-04-11T16:08:31.999Z</time></trkpt><trkpt lat="42.455544617467915" lon="14.112516981248463"><ele>173.0</ele><time>2026-04-11T16:08:32.999Z</time></trkpt><trkpt lat="42.455478033592506" lon="14.112518460866815"><ele>173.0</ele><time>2026-04-11T16:08:33.999Z</time></trkpt><trkpt lat="42.45540961808811" lon="14.11252205023466"><ele>173.0</ele><time>2026-04-11T16:08:34.999Z</time></trkpt><trkpt lat="42.45534076197245" lon="14.112538983378123"><ele>173.0</ele><time>2026-04-11T16:08:35.999Z</time></trkpt><trkpt lat="42.455262808106795" lon="14.112560395840413"><ele>172.83333333333331</ele><time>2026-04-11T16:08:36.999Z</time></trkpt><trkpt lat="42.455195542140586" lon="14.112578623395255"><ele>172.66666666666666</ele><time>2026-04-11T16:08:37.999Z</time></trkpt><trkpt lat="42.45512167862457" lon="14.112606226456203"><ele>172.5</ele><time>2026-04-11T16:08:38.999Z</time></trkpt><trkpt lat="42.4550472556953" lon="14.112624830103409"><ele>172.33333333333334</ele><time>2026-04-11T16:08:39.999Z</time></trkpt><trkpt lat="42.45496809578671" lon="14.112657847556612"><ele>172.16666666666669</ele><time>2026-04-11T16:08:40.999Z</time></trkpt><trkpt lat="42.45488772557367" lon="14.112687692701488"><ele>172.0</ele><time>2026-04-11T16:08:41.999Z</time></trkpt><trkpt lat="42.454804108406954" lon="14.112711848607809"><ele>172.0</ele><time>2026-04-11T16:08:42.999Z</time></trkpt><trkpt lat="42.45471441373545" lon="14.112732288261238"><ele>172.0</ele><time>2026-04-11T16:08:43.999Z</time></trkpt><trkpt lat="42.45462095385692" lon="14.11274812720944"><ele>172.0</ele><time>2026-04-11T16:08:44.999Z</time></trkpt><trkpt lat="42.45452290826326" lon="14.112753397972357"><ele>172.0</ele><time>2026-04-11T16:08:45.999Z</time></trkpt><trkpt lat="42.454430773001135" lon="14.112761329079408"><ele>172.0</ele><time>2026-04-11T16:08:46.999Z</time></trkpt><trkpt lat="42.45434137456981" lon="14.112766800390462"><ele>171.0</ele><time>2026-04-11T16:08:47.999Z</time></trkpt><trkpt lat="42.45424295510729" lon="14.112769096580614"><ele>170.0</ele><time>2026-04-11T16:08:48.999Z</time></trkpt><trkpt lat="42.45414545851092" lon="14.112770334981885"><ele>169.0</ele><time>2026-04-11T16:08:49.999Z</time></trkpt><trkpt lat="42.454049219213545" lon="14.112768915602066"><ele>168.0</ele><time>2026-04-11T16:08:50.999Z</time></trkpt><trkpt lat="42.45396029738842" lon="14.112755630611392"><ele>167.0</ele><time>2026-04-11T16:08:51.999Z</time></trkpt><trkpt lat="42.45387490223158" lon="14.112726694668487"><ele>167.0</ele><time>2026-04-11T16:08:52.999Z</time></trkpt><trkpt lat="42.45379355004185" lon="14.112684319956847"><ele>167.0</ele><time>2026-04-11T16:08:53.999Z</time></trkpt><trkpt lat="42.453718760172556" lon="14.112630571879443"><ele>167.0</ele><time>2026-04-11T16:08:54.999Z</time></trkpt><trkpt lat="42.45365866031829" lon="14.112556187521289"><ele>167.0</ele><time>2026-04-11T16:08:55.999Z</time></trkpt><trkpt lat="42.45358424086642" lon="14.112479655088144"><ele>167.0</ele><time>2026-04-11T16:08:56.999Z</time></trkpt><trkpt lat="42.4535156800909" lon="14.112409147666629"><ele>167.0</ele><time>2026-04-11T16:08:57.999Z</time></trkpt><trkpt lat="42.4534377918863" lon="14.112357795774818"><ele>165.0</ele><time>2026-04-11T16:08:58.999Z</time></trkpt><trkpt lat="42.4533743883155" lon="14.112282596658996"><ele>163.0</ele><time>2026-04-11T16:08:59.999Z</time></trkpt><trkpt lat="42.4532994926649" lon="14.11221156729164"><ele>161.0</ele><time>2026-04-11T16:09:00.999Z</time></trkpt><trkpt lat="42.45322653856073" lon="14.112147817218654"><ele>159.0</ele><time>2026-04-11T16:09:01.999Z</time></trkpt><trkpt lat="42.45315682355158" lon="14.11207469966022"><ele>157.0</ele><time>2026-04-11T16:09:02.999Z</time></trkpt><trkpt lat="42.45307663652263" lon="14.111994108518434"><ele>157.0</ele><time>2026-04-11T16:09:03.999Z</time></trkpt><trkpt lat="42.45299400470517" lon="14.111924669754044"><ele>157.0</ele><time>2026-04-11T16:09:04.999Z</time></trkpt><trkpt lat="42.45290813924549" lon="14.111867621703022"><ele>157.0</ele><time>2026-04-11T16:09:05.999Z</time></trkpt><trkpt lat="42.45282227733206" lon="14.111818726645147"><ele>157.0</ele><time>2026-04-11T16:09:06.999Z</time></trkpt><trkpt lat="42.45273257409713" lon="14.111780111819087"><ele>157.0</ele><time>2026-04-11T16:09:07.999Z</time></trkpt><trkpt lat="42.45264446630601" lon="14.111738968106817"><ele>158.6</ele><time>2026-04-11T16:09:08.999Z</time></trkpt><trkpt lat="42.452553456430074" lon="14.11170150506782"><ele>160.2</ele><time>2026-04-11T16:09:09.999Z</time></trkpt><trkpt lat="42.45246460890653" lon="14.111660000913277"><ele>161.8</ele><time>2026-04-11T16:09:10.999Z</time></trkpt><trkpt lat="42.45237410617357" lon="14.111635694924122"><ele>163.4</ele><time>2026-04-11T16:09:11.999Z</time></trkpt><trkpt lat="42.452279431895775" lon="14.111621930776044"><ele>165.0</ele><time>2026-04-11T16:09:12.999Z</time></trkpt><trkpt lat="42.45218714932216" lon="14.11161755986693"><ele>164.2</ele><time>2026-04-11T16:09:13.999Z</time></trkpt><trkpt lat="42.45209312753366" lon="14.111618590158455"><ele>163.4</ele><time>2026-04-11T16:09:14.999Z</time></trkpt><trkpt lat="42.45200540669912" lon="14.111625197924548"><ele>162.60000000000002</ele><time>2026-04-11T16:09:15.999Z</time></trkpt><trkpt lat="42.451916195770394" lon="14.111625226672794"><ele>161.8</ele><time>2026-04-11T16:09:16.999Z</time></trkpt><trkpt lat="42.45181851254306" lon="14.111630368107564"><ele>161.0</ele><time>2026-04-11T16:09:17.999Z</time></trkpt><trkpt lat="42.45171662216691" lon="14.11163763487886"><ele>161.0</ele><time>2026-04-11T16:09:18.999Z</time></trkpt><trkpt lat="42.45162487489708" lon="14.111640953496662"><ele>161.0</ele><time>2026-04-11T16:09:19.999Z</time></trkpt><trkpt lat="42.45152420481442" lon="14.111659021714477"><ele>161.0</ele><time>2026-04-11T16:09:20.999Z</time></trkpt><trkpt lat="42.45141565271163" lon="14.11168688228297"><ele>161.0</ele><time>2026-04-11T16:09:21.999Z</time></trkpt><trkpt lat="42.45130541713754" lon="14.111714692663707"><ele>161.0</ele><time>2026-04-11T16:09:22.999Z</time></trkpt><trkpt lat="42.451181915478514" lon="14.111739556494273"><ele>160.75</ele><time>2026-04-11T16:09:23.999Z</time></trkpt><trkpt lat="42.451048629148595" lon="14.111779080969407"><ele>160.5</ele><time>2026-04-11T16:09:24.999Z</time></trkpt><trkpt lat="42.45092357181352" lon="14.111813071305502"><ele>160.25</ele><time>2026-04-11T16:09:25.999Z</time></trkpt><trkpt lat="42.45081122440868" lon="14.111853734615881"><ele>160.0</ele><time>2026-04-11T16:09:26.999Z</time></trkpt><trkpt lat="42.45070271584512" lon="14.111885018743743"><ele>160.0</ele><time>2026-04-11T16:09:27.999Z</time></trkpt><trkpt lat="42.45059298945091" lon="14.111917577627517"><ele>160.0</ele><time>2026-04-11T16:09:28.999Z</time></trkpt><trkpt lat="42.45048400079848" lon="14.111957101216777"><ele>160.0</ele><time>2026-04-11T16:09:29.999Z</time></trkpt><trkpt lat="42.4503781559783" lon="14.111999457069595"><ele>160.0</ele><time>2026-04-11T16:09:30.999Z</time></trkpt><trkpt lat="42.45027426953704" lon="14.112036391219862"><ele>160.0</ele><time>2026-04-11T16:09:31.999Z</time></trkpt><trkpt lat="42.45016900987103" lon="14.112067161761948"><ele>159.0</ele><time>2026-04-11T16:09:32.998Z</time></trkpt><trkpt lat="42.450063429026095" lon="14.112100920086815"><ele>158.0</ele><time>2026-04-11T16:09:33.998Z</time></trkpt><trkpt lat="42.449952631222686" lon="14.112135917018607"><ele>157.0</ele><time>2026-04-11T16:09:34.998Z</time></trkpt><trkpt lat="42.449848163966024" lon="14.112174803298204"><ele>156.0</ele><time>2026-04-11T16:09:35.998Z</time></trkpt><trkpt lat="42.44974435235034" lon="14.112215472766065"><ele>155.0</ele><time>2026-04-11T16:09:36.998Z</time></trkpt><trkpt lat="42.449635231231944" lon="14.11225551676589"><ele>154.6</ele><time>2026-04-11T16:09:37.998Z</time></trkpt><trkpt lat="42.44952901359182" lon="14.112295009628346"><ele>154.2</ele><time>2026-04-11T16:09:38.998Z</time></trkpt><trkpt lat="42.449429861564525" lon="14.112326816864616"><ele>153.8</ele><time>2026-04-11T16:09:39.998Z</time></trkpt><trkpt lat="42.4493312882555" lon="14.112341827181728"><ele>153.4</ele><time>2026-04-11T16:09:40.998Z</time></trkpt><trkpt lat="42.44923368710732" lon="14.112344268304659"><ele>153.0</ele><time>2026-04-11T16:09:41.998Z</time></trkpt><trkpt lat="42.44914224522475" lon="14.112321494806604"><ele>153.0</ele><time>2026-04-11T16:09:42.998Z</time></trkpt><trkpt lat="42.449054780852705" lon="14.112245598218761"><ele>153.0</ele><time>2026-04-11T16:09:43.998Z</time></trkpt><trkpt lat="42.448962663359495" lon="14.112164847530059"><ele>153.0</ele><time>2026-04-11T16:09:44.998Z</time></trkpt><trkpt lat="42.44887317720443" lon="14.112074265940983"><ele>153.0</ele><time>2026-04-11T16:09:45.998Z</time></trkpt><trkpt lat="42.44879060240199" lon="14.111983082154167"><ele>153.0</ele><time>2026-04-11T16:09:46.998Z</time></trkpt><trkpt lat="42.44871291326805" lon="14.11189361077025"><ele>153.0</ele><time>2026-04-11T16:09:47.998Z</time></trkpt><trkpt lat="42.448638531987655" lon="14.111803446833997"><ele>153.0</ele><time>2026-04-11T16:09:48.998Z</time></trkpt><trkpt lat="42.448564261351315" lon="14.111705768776993"><ele>153.0</ele><time>2026-04-11T16:09:49.998Z</time></trkpt><trkpt lat="42.448493948612345" lon="14.111630918693718"><ele>153.0</ele><time>2026-04-11T16:09:50.998Z</time></trkpt><trkpt lat="42.448439360394296" lon="14.111515433961014"><ele>153.0</ele><time>2026-04-11T16:09:52.998Z</time></trkpt><trkpt lat="42.44840374419182" lon="14.11143647394086"><ele>153.0</ele><time>2026-04-11T16:09:54.998Z</time></trkpt><trkpt lat="42.44825613702234" lon="14.111511983480625"><ele>153.0</ele><time>2026-04-11T16:09:57.998Z</time></trkpt><trkpt lat="42.44823442775207" lon="14.111633142190112"><ele>153.0</ele><time>2026-04-11T16:09:59.998Z</time></trkpt><trkpt lat="42.448248140048" lon="14.111814343156151"><ele>153.0</ele><time>2026-04-11T16:10:01.998Z</time></trkpt><trkpt lat="42.44824177429477" lon="14.11193156592032"><ele>153.0</ele><time>2026-04-11T16:10:02.998Z</time></trkpt><trkpt lat="42.44823711145702" lon="14.112050797679387"><ele>153.0</ele><time>2026-04-11T16:10:04Z</time></trkpt><trkpt lat="42.44822883794406" lon="14.112187421430567"><ele>153.0</ele><time>2026-04-11T16:10:05Z</time></trkpt><trkpt lat="42.448212690646045" lon="14.11232272543201"><ele>153.0</ele><time>2026-04-11T16:10:06Z</time></trkpt><trkpt lat="42.4481975902668" lon="14.112453703577536"><ele>153.0</ele><time>2026-04-11T16:10:07Z</time></trkpt><trkpt lat="42.44818013145078" lon="14.112582577911835"><ele>152.8</ele><time>2026-04-11T16:10:08Z</time></trkpt><trkpt lat="42.44816249894956" lon="14.112714587626332"><ele>152.60000000000002</ele><time>2026-04-11T16:10:09Z</time></trkpt><trkpt lat="42.448148986913175" lon="14.11284477762369"><ele>152.39999999999998</ele><time>2026-04-11T16:10:10Z</time></trkpt><trkpt lat="42.44813963913892" lon="14.112977703214737"><ele>152.2</ele><time>2026-04-11T16:10:11Z</time></trkpt><trkpt lat="42.448133655908315" lon="14.11310633691601"><ele>152.0</ele><time>2026-04-11T16:10:12Z</time></trkpt><trkpt lat="42.44813613887603" lon="14.113222674844332"><ele>150.83333333333331</ele><time>2026-04-11T16:10:13Z</time></trkpt><trkpt lat="42.448130047633185" lon="14.113334860350767"><ele>149.66666666666666</ele><time>2026-04-11T16:10:14Z</time></trkpt><trkpt lat="42.448117770462744" lon="14.113436953948742"><ele>148.5</ele><time>2026-04-11T16:10:15Z</time></trkpt><trkpt lat="42.44808119981186" lon="14.113541261950278"><ele>147.33333333333334</ele><time>2026-04-11T16:10:16Z</time></trkpt><trkpt lat="42.448017165863554" lon="14.113636873127488"><ele>146.16666666666669</ele><time>2026-04-11T16:10:17Z</time></trkpt><trkpt lat="42.44794139269592" lon="14.113710913520958"><ele>145.0</ele><time>2026-04-11T16:10:18Z</time></trkpt><trkpt lat="42.44785974660548" lon="14.113768969840105"><ele>143.16666666666669</ele><time>2026-04-11T16:10:19Z</time></trkpt><trkpt lat="42.44778074006456" lon="14.113814725758166"><ele>141.33333333333334</ele><time>2026-04-11T16:10:20Z</time></trkpt><trkpt lat="42.44770164374765" lon="14.1138412498692"><ele>139.5</ele><time>2026-04-11T16:10:21Z</time></trkpt><trkpt lat="42.447610680146866" lon="14.113863499745285"><ele>137.66666666666666</ele><time>2026-04-11T16:10:22Z</time></trkpt><trkpt lat="42.447523780993855" lon="14.113882886479288"><ele>135.83333333333331</ele><time>2026-04-11T16:10:23Z</time></trkpt><trkpt lat="42.447432305828244" lon="14.113893081741367"><ele>134.0</ele><time>2026-04-11T16:10:24Z</time></trkpt><trkpt lat="42.447345113750714" lon="14.113899776338947"><ele>134.0</ele><time>2026-04-11T16:10:25Z</time></trkpt><trkpt lat="42.44725438841432" lon="14.113911421131515"><ele>134.0</ele><time>2026-04-11T16:10:26Z</time></trkpt><trkpt lat="42.447151325641066" lon="14.113921021468382"><ele>134.0</ele><time>2026-04-11T16:10:27Z</time></trkpt><trkpt lat="42.447042779446534" lon="14.113926696736316"><ele>134.0</ele><time>2026-04-11T16:10:28Z</time></trkpt><trkpt lat="42.446936607807764" lon="14.113936933505451"><ele>134.0</ele><time>2026-04-11T16:10:29Z</time></trkpt><trkpt lat="42.44683130073832" lon="14.113949815830512"><ele>133.6</ele><time>2026-04-11T16:10:30Z</time></trkpt><trkpt lat="42.4467312254785" lon="14.11397811468591"><ele>133.2</ele><time>2026-04-11T16:10:31Z</time></trkpt><trkpt lat="42.446637930288595" lon="14.114026734464346"><ele>132.79999999999998</ele><time>2026-04-11T16:10:32Z</time></trkpt><trkpt lat="42.44655086564697" lon="14.114099743306538"><ele>132.4</ele><time>2026-04-11T16:10:33Z</time></trkpt><trkpt lat="42.44646821938367" lon="14.11419816209561"><ele>132.0</ele><time>2026-04-11T16:10:34Z</time></trkpt><trkpt lat="42.44640427071302" lon="14.114325544610994"><ele>132.0</ele><time>2026-04-11T16:10:35Z</time></trkpt><trkpt lat="42.44634747159532" lon="14.11445685887958"><ele>132.0</ele><time>2026-04-11T16:10:36Z</time></trkpt><trkpt lat="42.44629348684331" lon="14.11458022550851"><ele>132.0</ele><time>2026-04-11T16:10:37Z</time></trkpt><trkpt lat="42.446240410444126" lon="14.114712799751157"><ele>132.0</ele><time>2026-04-11T16:10:38Z</time></trkpt><trkpt lat="42.44619053174003" lon="14.11484625119355"><ele>132.0</ele><time>2026-04-11T16:10:39Z</time></trkpt><trkpt lat="42.44612785170877" lon="14.114976890036443"><ele>130.79999999999998</ele><time>2026-04-11T16:10:40Z</time></trkpt><trkpt lat="42.44606579446436" lon="14.115107124943426"><ele>129.6</ele><time>2026-04-11T16:10:41Z</time></trkpt><trkpt lat="42.446008598289694" lon="14.115220123021428"><ele>128.39999999999998</ele><time>2026-04-11T16:10:42Z</time></trkpt><trkpt lat="42.44594935468722" lon="14.115327353024927"><ele>127.19999999999999</ele><time>2026-04-11T16:10:42.999Z</time></trkpt><trkpt lat="42.445881756814785" lon="14.11542594307842"><ele>126.0</ele><time>2026-04-11T16:10:43.999Z</time></trkpt><trkpt lat="42.445791913899065" lon="14.115516202725798"><ele>126.0</ele><time>2026-04-11T16:10:44.999Z</time></trkpt><trkpt lat="42.44568429764013" lon="14.115599345028317"><ele>126.0</ele><time>2026-04-11T16:10:45.999Z</time></trkpt><trkpt lat="42.4455658683397" lon="14.115676441495182"><ele>126.0</ele><time>2026-04-11T16:10:46.999Z</time></trkpt><trkpt lat="42.44545081459303" lon="14.115737876373624"><ele>126.0</ele><time>2026-04-11T16:10:47.999Z</time></trkpt><trkpt lat="42.44534677495314" lon="14.115773366135373"><ele>122.75</ele><time>2026-04-11T16:10:48.999Z</time></trkpt><trkpt lat="42.445243352957306" lon="14.115799526809406"><ele>119.5</ele><time>2026-04-11T16:10:49.999Z</time></trkpt><trkpt lat="42.44513329080737" lon="14.115802876187281"><ele>116.25</ele><time>2026-04-11T16:10:50.999Z</time></trkpt><trkpt lat="42.44501167333852" lon="14.115811738886736"><ele>113.0</ele><time>2026-04-11T16:10:51.999Z</time></trkpt><trkpt lat="42.44488552943216" lon="14.115832612376657"><ele>113.0</ele><time>2026-04-11T16:10:52.999Z</time></trkpt><trkpt lat="42.44476440367128" lon="14.115854880537483"><ele>113.00000000000001</ele><time>2026-04-11T16:10:53.999Z</time></trkpt><trkpt lat="42.44465076153853" lon="14.11588273027099"><ele>113.00000000000001</ele><time>2026-04-11T16:10:54.999Z</time></trkpt><trkpt lat="42.44455144764412" lon="14.115923063514552"><ele>113.0</ele><time>2026-04-11T16:10:55.999Z</time></trkpt><trkpt lat="42.44446471723528" lon="14.115959316147384"><ele>113.0</ele><time>2026-04-11T16:10:56.999Z</time></trkpt><trkpt lat="42.444397797183235" lon="14.115998373261906"><ele>113.16666666666666</ele><time>2026-04-11T16:10:57.999Z</time></trkpt><trkpt lat="42.44432866105738" lon="14.116026090542933"><ele>113.33333333333333</ele><time>2026-04-11T16:10:59.999Z</time></trkpt><trkpt lat="42.44426168436033" lon="14.11607192533411"><ele>113.5</ele><time>2026-04-11T16:11:01.999Z</time></trkpt><trkpt lat="42.444136725718714" lon="14.116087062468216"><ele>113.66666666666666</ele><time>2026-04-11T16:11:03.999Z</time></trkpt><trkpt lat="42.44406798315473" lon="14.116092542461553"><ele>113.83333333333333</ele><time>2026-04-11T16:11:04.999Z</time></trkpt><trkpt lat="42.44399098744342" lon="14.11609530792803"><ele>114.0</ele><time>2026-04-11T16:11:05.999Z</time></trkpt><trkpt lat="42.44391987025429" lon="14.116114837246688"><ele>114.0</ele><time>2026-04-11T16:11:06.999Z</time></trkpt><trkpt lat="42.44385498164469" lon="14.116114710332452"><ele>113.99999999999999</ele><time>2026-04-11T16:11:07.999Z</time></trkpt><trkpt lat="42.443785488127745" lon="14.116119656038641"><ele>114.0</ele><time>2026-04-11T16:11:08.999Z</time></trkpt><trkpt lat="42.44371896519571" lon="14.116127702164269"><ele>114.0</ele><time>2026-04-11T16:11:09.999Z</time></trkpt><trkpt lat="42.44364473090362" lon="14.116143190217082"><ele>113.99999999999999</ele><time>2026-04-11T16:11:10.999Z</time></trkpt><trkpt lat="42.44358000820321" lon="14.116157009820054"><ele>114.0</ele><time>2026-04-11T16:11:11.999Z</time></trkpt><trkpt lat="42.44348625284955" lon="14.116195990389285"><ele>114.0</ele><time>2026-04-11T16:11:13.999Z</time></trkpt><trkpt lat="42.44341535197013" lon="14.116196177625561"><ele>114.0</ele><time>2026-04-11T16:11:15.999Z</time></trkpt><trkpt lat="42.443363796176904" lon="14.116245331303064"><ele>114.0</ele><time>2026-04-11T16:11:17.999Z</time></trkpt><trkpt lat="42.44349275875393" lon="14.116242062351729"><ele>114.0</ele><time>2026-04-11T16:11:22.999Z</time></trkpt><trkpt lat="42.44357401499456" lon="14.116180133428125"><ele>114.0</ele><time>2026-04-11T16:11:23.999Z</time></trkpt><trkpt lat="42.443648598436255" lon="14.11615280197917"><ele>114.0</ele><time>2026-04-11T16:11:24.999Z</time></trkpt><trkpt lat="42.443734016927145" lon="14.11614382465023"><ele>114.0</ele><time>2026-04-11T16:11:25.999Z</time></trkpt><trkpt lat="42.44381304263552" lon="14.11614448655716"><ele>114.0</ele><time>2026-04-11T16:11:26.999Z</time></trkpt><trkpt lat="42.44389507321678" lon="14.116144143833292"><ele>114.0</ele><time>2026-04-11T16:11:27.999Z</time></trkpt><trkpt lat="42.443981013788424" lon="14.116144362897577"><ele>114.0</ele><time>2026-04-11T16:11:28.999Z</time></trkpt><trkpt lat="42.444052878154835" lon="14.11614139729056"><ele>114.0</ele><time>2026-04-11T16:11:29.999Z</time></trkpt><trkpt lat="42.44412493984068" lon="14.116134009140547"><ele>114.0</ele><time>2026-04-11T16:11:30.999Z</time></trkpt><trkpt lat="42.44419096439376" lon="14.116114234349917"><ele>114.0</ele><time>2026-04-11T16:11:31.999Z</time></trkpt><trkpt lat="42.44425945612981" lon="14.116085070353163"><ele>114.0</ele><time>2026-04-11T16:11:32.999Z</time></trkpt><trkpt lat="42.444331198783324" lon="14.116057651890928"><ele>113.99999999999999</ele><time>2026-04-11T16:11:33.999Z</time></trkpt><trkpt lat="42.44439665894644" lon="14.11602930663815"><ele>114.0</ele><time>2026-04-11T16:11:34.999Z</time></trkpt><trkpt lat="42.44446428887466" lon="14.11598901031807"><ele>114.0</ele><time>2026-04-11T16:11:35.999Z</time></trkpt><trkpt lat="42.44452526996076" lon="14.115949132723422"><ele>113.99999999999999</ele><time>2026-04-11T16:11:36.999Z</time></trkpt><trkpt lat="42.444591923054965" lon="14.11591739556987"><ele>114.0</ele><time>2026-04-11T16:11:37.999Z</time></trkpt><trkpt lat="42.44465760590493" lon="14.115890040355978"><ele>114.0</ele><time>2026-04-11T16:11:38.999Z</time></trkpt><trkpt lat="42.44472233988654" lon="14.1158682393562"><ele>114.0</ele><time>2026-04-11T16:11:39.999Z</time></trkpt><trkpt lat="42.44483648634129" lon="14.11584230776131"><ele>114.0</ele><time>2026-04-11T16:11:41.999Z</time></trkpt><trkpt lat="42.44489846202821" lon="14.11586784365911"><ele>114.0</ele><time>2026-04-11T16:11:43.999Z</time></trkpt><trkpt lat="42.44476792924245" lon="14.115903406734638"><ele>114.0</ele><time>2026-04-11T16:11:48.998Z</time></trkpt><trkpt lat="42.44468979323395" lon="14.115912163929508"><ele>114.0</ele><time>2026-04-11T16:11:49.998Z</time></trkpt><trkpt lat="42.44461915099879" lon="14.115936222941123"><ele>114.0</ele><time>2026-04-11T16:11:50.998Z</time></trkpt><trkpt lat="42.44453366977151" lon="14.115979221680039"><ele>114.0</ele><time>2026-04-11T16:11:52.998Z</time></trkpt><trkpt lat="42.44453712165573" lon="14.115889568878098"><ele>114.0</ele><time>2026-04-11T16:19:50.999Z</time></trkpt><trkpt lat="42.44455257873248" lon="14.115975341003471"><ele>114.0</ele><time>2026-04-11T16:21:30Z</time></trkpt><trkpt lat="42.44446271336522" lon="14.115943451112082"><ele>114.0</ele><time>2026-04-11T16:27:58.999Z</time></trkpt><trkpt lat="42.44454466649071" lon="14.11597699683942"><ele>114.0</ele><time>2026-04-11T16:31:24Z</time></trkpt><trkpt lat="42.444390553798534" lon="14.116026051298805"><ele>114.0</ele><time>2026-04-11T16:31:39.999Z</time></trkpt><trkpt lat="42.44426604514023" lon="14.116073437317649"><ele>114.0</ele><time>2026-04-11T16:31:40.999Z</time></trkpt><trkpt lat="42.44418774196735" lon="14.116088523119243"><ele>114.0</ele><time>2026-04-11T16:31:41.999Z</time></trkpt><trkpt lat="42.44410846525125" lon="14.1161598297435"><ele>114.0</ele><time>2026-04-11T16:31:43.999Z</time></trkpt><trkpt lat="42.444157682490165" lon="14.11609583704185"><ele>114.0</ele><time>2026-04-11T16:31:49.999Z</time></trkpt><trkpt lat="42.44424592888469" lon="14.116100048064846"><ele>114.0</ele><time>2026-04-11T16:31:50.999Z</time></trkpt><trkpt lat="42.44433273369744" lon="14.116069850167523"><ele>114.0</ele><time>2026-04-11T16:31:51.999Z</time></trkpt><trkpt lat="42.444413632345515" lon="14.116029935049013"><ele>114.0</ele><time>2026-04-11T16:31:52.999Z</time></trkpt><trkpt lat="42.44450175358525" lon="14.115990879304286"><ele>114.0</ele><time>2026-04-11T16:31:53.999Z</time></trkpt><trkpt lat="42.44458341448416" lon="14.115948214592324"><ele>114.0</ele><time>2026-04-11T16:31:54.999Z</time></trkpt><trkpt lat="42.444669861233336" lon="14.115916528367366"><ele>114.0</ele><time>2026-04-11T16:31:55.999Z</time></trkpt><trkpt lat="42.44474999222042" lon="14.115886145533926"><ele>113.75</ele><time>2026-04-11T16:31:56.999Z</time></trkpt><trkpt lat="42.44481284079924" lon="14.115881057312764"><ele>113.5</ele><time>2026-04-11T16:31:57.999Z</time></trkpt><trkpt lat="42.44487823251741" lon="14.115871314558168"><ele>113.25</ele><time>2026-04-11T16:31:59.999Z</time></trkpt><trkpt lat="42.44503638967139" lon="14.115642511337894"><ele>113.0</ele><time>2026-04-11T16:32:04.999Z</time></trkpt><trkpt lat="42.44471778340362" lon="14.115906112331974"><ele>113.16666666666666</ele><time>2026-04-11T16:32:05.999Z</time></trkpt><trkpt lat="42.44462865820139" lon="14.115945650446816"><ele>113.33333333333333</ele><time>2026-04-11T16:32:06.999Z</time></trkpt><trkpt lat="42.44454510025629" lon="14.115992435611846"><ele>113.5</ele><time>2026-04-11T16:32:08.999Z</time></trkpt><trkpt lat="42.44447902506443" lon="14.11595014863049"><ele>113.66666666666666</ele><time>2026-04-11T16:32:36.998Z</time></trkpt><trkpt lat="42.444548329395644" lon="14.11596355463996"><ele>113.83333333333333</ele><time>2026-04-11T16:32:48.998Z</time></trkpt><trkpt lat="42.44446443121937" lon="14.115996315004395"><ele>114.0</ele><time>2026-04-11T16:35:41Z</time></trkpt><trkpt lat="42.44438829044705" lon="14.116010506722953"><ele>114.0</ele><time>2026-04-11T16:35:42Z</time></trkpt><trkpt lat="42.44430523482" lon="14.11604191893118"><ele>114.0</ele><time>2026-04-11T16:35:43Z</time></trkpt><trkpt lat="42.444221881989506" lon="14.116086689644543"><ele>114.0</ele><time>2026-04-11T16:35:44Z</time></trkpt><trkpt lat="42.44412511202664" lon="14.116089378312642"><ele>114.0</ele><time>2026-04-11T16:35:45Z</time></trkpt><trkpt lat="42.444017268588766" lon="14.116095170164794"><ele>114.0</ele><time>2026-04-11T16:35:46Z</time></trkpt><trkpt lat="42.44389012643982" lon="14.116097005715858"><ele>115.0</ele><time>2026-04-11T16:35:47Z</time></trkpt><trkpt lat="42.44374666475484" lon="14.116127939407322"><ele>116.0</ele><time>2026-04-11T16:35:48Z</time></trkpt><trkpt lat="42.44362719934212" lon="14.116128821852513"><ele>117.0</ele><time>2026-04-11T16:35:49Z</time></trkpt><trkpt lat="42.443522942732855" lon="14.116169442308498"><ele>118.0</ele><time>2026-04-11T16:35:50Z</time></trkpt><trkpt lat="42.443440357233335" lon="14.116205669645394"><ele>118.0</ele><time>2026-04-11T16:35:50.999Z</time></trkpt><trkpt lat="42.44336161893896" lon="14.11626075786453"><ele>118.00000000000001</ele><time>2026-04-11T16:35:51.999Z</time></trkpt><trkpt lat="42.44328680879735" lon="14.116336707292048"><ele>118.00000000000001</ele><time>2026-04-11T16:35:52.999Z</time></trkpt><trkpt lat="42.44319460937248" lon="14.11647226798176"><ele>118.0</ele><time>2026-04-11T16:35:53.999Z</time></trkpt><trkpt lat="42.44312192004902" lon="14.116607618160678"><ele>118.0</ele><time>2026-04-11T16:35:54.999Z</time></trkpt><trkpt lat="42.443072910426864" lon="14.116727258992645"><ele>118.66666666666667</ele><time>2026-04-11T16:35:55.999Z</time></trkpt><trkpt lat="42.44300868003246" lon="14.116798165326786"><ele>119.33333333333334</ele><time>2026-04-11T16:35:56.999Z</time></trkpt><trkpt lat="42.44295989167396" lon="14.1168684494872"><ele>120.0</ele><time>2026-04-11T16:35:57.999Z</time></trkpt><trkpt lat="42.442890803434466" lon="14.116885652792375"><ele>120.66666666666666</ele><time>2026-04-11T16:35:58.999Z</time></trkpt><trkpt lat="42.44281862880117" lon="14.11689434383919"><ele>121.33333333333333</ele><time>2026-04-11T16:35:59.999Z</time></trkpt><trkpt lat="42.44273370918303" lon="14.116886013579416"><ele>122.0</ele><time>2026-04-11T16:36:00.999Z</time></trkpt><trkpt lat="42.442634247196025" lon="14.116866845525102"><ele>122.0</ele><time>2026-04-11T16:36:01.999Z</time></trkpt><trkpt lat="42.44253004276897" lon="14.116854433164036"><ele>122.0</ele><time>2026-04-11T16:36:02.999Z</time></trkpt><trkpt lat="42.44241497420686" lon="14.116857025262316"><ele>122.0</ele><time>2026-04-11T16:36:03.999Z</time></trkpt><trkpt lat="42.44228452037294" lon="14.116838588933893"><ele>122.0</ele><time>2026-04-11T16:36:04.999Z</time></trkpt><trkpt lat="42.442150188367506" lon="14.116823664028654"><ele>121.0</ele><time>2026-04-11T16:36:05.999Z</time></trkpt><trkpt lat="42.44201577159011" lon="14.116815362663187"><ele>120.0</ele><time>2026-04-11T16:36:06.999Z</time></trkpt><trkpt lat="42.44187751638619" lon="14.116811457246845"><ele>119.0</ele><time>2026-04-11T16:36:07.999Z</time></trkpt><trkpt lat="42.44175393724345" lon="14.116804034205002"><ele>118.0</ele><time>2026-04-11T16:36:08.999Z</time></trkpt><trkpt lat="42.44163525985576" lon="14.116791865091438"><ele>118.0</ele><time>2026-04-11T16:36:09.999Z</time></trkpt><trkpt lat="42.44152662043306" lon="14.116756434495056"><ele>118.00000000000001</ele><time>2026-04-11T16:36:10.999Z</time></trkpt><trkpt lat="42.441423166894104" lon="14.116716945424395"><ele>118.00000000000001</ele><time>2026-04-11T16:36:11.999Z</time></trkpt><trkpt lat="42.441330458586705" lon="14.116672557944309"><ele>118.0</ele><time>2026-04-11T16:36:12.999Z</time></trkpt><trkpt lat="42.44122827807078" lon="14.116617885289847"><ele>118.0</ele><time>2026-04-11T16:36:13.999Z</time></trkpt><trkpt lat="42.441119809532374" lon="14.116564882588143"><ele>114.75</ele><time>2026-04-11T16:36:14.999Z</time></trkpt><trkpt lat="42.44100190804398" lon="14.116540183082165"><ele>111.5</ele><time>2026-04-11T16:36:15.999Z</time></trkpt><trkpt lat="42.440888953945496" lon="14.116514937365524"><ele>108.25</ele><time>2026-04-11T16:36:16.999Z</time></trkpt><trkpt lat="42.44074183859607" lon="14.116513854383378"><ele>105.0</ele><time>2026-04-11T16:36:17.999Z</time></trkpt><trkpt lat="42.44058894993071" lon="14.116528156077168"><ele>104.0</ele><time>2026-04-11T16:36:18.999Z</time></trkpt><trkpt lat="42.44046108947945" lon="14.11650681455031"><ele>103.0</ele><time>2026-04-11T16:36:19.999Z</time></trkpt><trkpt lat="42.44034246376024" lon="14.116493292758785"><ele>102.0</ele><time>2026-04-11T16:36:20.999Z</time></trkpt><trkpt lat="42.440230263343416" lon="14.116471756663993"><ele>101.0</ele><time>2026-04-11T16:36:21.999Z</time></trkpt><trkpt lat="42.440115111486456" lon="14.11644419495159"><ele>101.0</ele><time>2026-04-11T16:36:22.999Z</time></trkpt><trkpt lat="42.439996058210646" lon="14.11641640262412"><ele>101.0</ele><time>2026-04-11T16:36:23.999Z</time></trkpt><trkpt lat="42.43987526777966" lon="14.116394208969481"><ele>101.0</ele><time>2026-04-11T16:36:24.999Z</time></trkpt><trkpt lat="42.439754297462464" lon="14.116401006350609"><ele>101.0</ele><time>2026-04-11T16:36:25.999Z</time></trkpt><trkpt lat="42.43963747905735" lon="14.116403849535414"><ele>102.75</ele><time>2026-04-11T16:36:26.999Z</time></trkpt><trkpt lat="42.43952108474674" lon="14.116412501148607"><ele>104.5</ele><time>2026-04-11T16:36:27.999Z</time></trkpt><trkpt lat="42.43939145541911" lon="14.116450221078056"><ele>106.25</ele><time>2026-04-11T16:36:28.999Z</time></trkpt><trkpt lat="42.439256344689184" lon="14.116501854841443"><ele>108.0</ele><time>2026-04-11T16:36:29.999Z</time></trkpt><trkpt lat="42.43911302352205" lon="14.116563078693067"><ele>107.25</ele><time>2026-04-11T16:36:30.999Z</time></trkpt><trkpt lat="42.43896519981623" lon="14.116629138341471"><ele>106.5</ele><time>2026-04-11T16:36:31.999Z</time></trkpt><trkpt lat="42.43883482432417" lon="14.11667371772658"><ele>105.75</ele><time>2026-04-11T16:36:32.999Z</time></trkpt><trkpt lat="42.43872519884849" lon="14.116709708371637"><ele>105.0</ele><time>2026-04-11T16:36:33.999Z</time></trkpt><trkpt lat="42.43862780878621" lon="14.116738302704595"><ele>105.0</ele><time>2026-04-11T16:36:34.999Z</time></trkpt><trkpt lat="42.43854108725221" lon="14.116764531160701"><ele>105.0</ele><time>2026-04-11T16:36:35.999Z</time></trkpt><trkpt lat="42.438455789596226" lon="14.11678182688768"><ele>105.0</ele><time>2026-04-11T16:36:36.999Z</time></trkpt><trkpt lat="42.43837196905837" lon="14.116805165354814"><ele>105.0</ele><time>2026-04-11T16:36:37.999Z</time></trkpt><trkpt lat="42.43828584311333" lon="14.116846909901545"><ele>105.0</ele><time>2026-04-11T16:36:38.999Z</time></trkpt><trkpt lat="42.43819509851753" lon="14.11690863473692"><ele>105.0</ele><time>2026-04-11T16:36:39.999Z</time></trkpt><trkpt lat="42.43810181532355" lon="14.116980309150971"><ele>105.0</ele><time>2026-04-11T16:36:40.999Z</time></trkpt><trkpt lat="42.43802090364436" lon="14.117045776061163"><ele>105.0</ele><time>2026-04-11T16:36:41.999Z</time></trkpt><trkpt lat="42.4379505030415" lon="14.117097137987685"><ele>105.0</ele><time>2026-04-11T16:36:42.999Z</time></trkpt><trkpt lat="42.43788600245719" lon="14.11713556286149"><ele>105.0</ele><time>2026-04-11T16:36:43.999Z</time></trkpt><trkpt lat="42.437786169877135" lon="14.11720700042157"><ele>103.8</ele><time>2026-04-11T16:36:45.999Z</time></trkpt><trkpt lat="42.43770366705243" lon="14.117297082031568"><ele>102.6</ele><time>2026-04-11T16:36:47.998Z</time></trkpt><trkpt lat="42.43764500992903" lon="14.117357436605017"><ele>101.4</ele><time>2026-04-11T16:36:48.998Z</time></trkpt><trkpt lat="42.43758362635581" lon="14.117445895128027"><ele>100.2</ele><time>2026-04-11T16:36:49.998Z</time></trkpt><trkpt lat="42.43752309696666" lon="14.117550824886882"><ele>99.0</ele><time>2026-04-11T16:36:50.998Z</time></trkpt><trkpt lat="42.43746044078418" lon="14.117669480135518"><ele>99.0</ele><time>2026-04-11T16:36:51.998Z</time></trkpt><trkpt lat="42.437401689037685" lon="14.117792796990845"><ele>99.0</ele><time>2026-04-11T16:36:52.998Z</time></trkpt><trkpt lat="42.43734843635114" lon="14.11790056032847"><ele>99.0</ele><time>2026-04-11T16:36:53.998Z</time></trkpt><trkpt lat="42.43728618713725" lon="14.118007455850538"><ele>99.0</ele><time>2026-04-11T16:36:54.998Z</time></trkpt><trkpt lat="42.43721692180627" lon="14.118119072837269"><ele>99.0</ele><time>2026-04-11T16:36:55.998Z</time></trkpt><trkpt lat="42.43714443617357" lon="14.118239048785783"><ele>97.25</ele><time>2026-04-11T16:36:56.998Z</time></trkpt><trkpt lat="42.43707095078223" lon="14.118369768431737"><ele>95.5</ele><time>2026-04-11T16:36:57.998Z</time></trkpt><trkpt lat="42.436988741721194" lon="14.118521264245377"><ele>93.75</ele><time>2026-04-11T16:36:58.998Z</time></trkpt><trkpt lat="42.436906788656664" lon="14.118671774935086"><ele>92.0</ele><time>2026-04-11T16:36:59.998Z</time></trkpt><trkpt lat="42.43682170983136" lon="14.118823881676628"><ele>92.0</ele><time>2026-04-11T16:37:00.998Z</time></trkpt><trkpt lat="42.436737486693815" lon="14.118971508126217"><ele>92.0</ele><time>2026-04-11T16:37:01.998Z</time></trkpt><trkpt lat="42.43665499800721" lon="14.119109456520738"><ele>92.0</ele><time>2026-04-11T16:37:02.998Z</time></trkpt><trkpt lat="42.43657494595379" lon="14.119237773883764"><ele>92.0</ele><time>2026-04-11T16:37:03.998Z</time></trkpt><trkpt lat="42.43649891213106" lon="14.119362689143035"><ele>92.39999999999999</ele><time>2026-04-11T16:37:04.998Z</time></trkpt><trkpt lat="42.43642743084901" lon="14.119479306518922"><ele>92.8</ele><time>2026-04-11T16:37:05.998Z</time></trkpt><trkpt lat="42.43635423681672" lon="14.119599707584001"><ele>93.2</ele><time>2026-04-11T16:37:06.998Z</time></trkpt><trkpt lat="42.43627906245352" lon="14.119721400872178"><ele>93.6</ele><time>2026-04-11T16:37:07.998Z</time></trkpt><trkpt lat="42.4362094589229" lon="14.119820443417446"><ele>94.0</ele><time>2026-04-11T16:37:08.998Z</time></trkpt><trkpt lat="42.436137584877" lon="14.119906306345857"><ele>95.33333333333333</ele><time>2026-04-11T16:37:09.998Z</time></trkpt><trkpt lat="42.436076761329254" lon="14.119982674435171"><ele>96.66666666666666</ele><time>2026-04-11T16:37:10.998Z</time></trkpt><trkpt lat="42.43601414155548" lon="14.120050763488823"><ele>98.0</ele><time>2026-04-11T16:37:11.998Z</time></trkpt><trkpt lat="42.4359530553747" lon="14.120121357863097"><ele>99.33333333333333</ele><time>2026-04-11T16:37:12.998Z</time></trkpt><trkpt lat="42.43589668525047" lon="14.120191045215678"><ele>100.66666666666667</ele><time>2026-04-11T16:37:13.998Z</time></trkpt><trkpt lat="42.4358451042342" lon="14.120255969196885"><ele>102.0</ele><time>2026-04-11T16:37:14.998Z</time></trkpt><trkpt lat="42.435791083711266" lon="14.120325948725165"><ele>102.0</ele><time>2026-04-11T16:37:15.998Z</time></trkpt><trkpt lat="42.43573134875365" lon="14.120396722234053"><ele>102.0</ele><time>2026-04-11T16:37:16.998Z</time></trkpt><trkpt lat="42.43566751942166" lon="14.12045998966978"><ele>102.0</ele><time>2026-04-11T16:37:17.998Z</time></trkpt><trkpt lat="42.43558800106919" lon="14.120513672773939"><ele>102.0</ele><time>2026-04-11T16:37:18.998Z</time></trkpt><trkpt lat="42.43549662355978" lon="14.12054508924496"><ele>102.0</ele><time>2026-04-11T16:37:20Z</time></trkpt><trkpt lat="42.43539811675964" lon="14.120568938502538"><ele>102.0</ele><time>2026-04-11T16:37:21Z</time></trkpt><trkpt lat="42.435295569659786" lon="14.120584451932888"><ele>98.39999999999999</ele><time>2026-04-11T16:37:22Z</time></trkpt><trkpt lat="42.435179954385006" lon="14.120602258791115"><ele>94.8</ele><time>2026-04-11T16:37:23Z</time></trkpt><trkpt lat="42.43507407051175" lon="14.120612833284868"><ele>91.2</ele><time>2026-04-11T16:37:24Z</time></trkpt><trkpt lat="42.43497731191102" lon="14.1206281224598"><ele>87.6</ele><time>2026-04-11T16:37:25Z</time></trkpt><trkpt lat="42.43488300127325" lon="14.12065202775724"><ele>84.0</ele><time>2026-04-11T16:37:26Z</time></trkpt><trkpt lat="42.43478909403289" lon="14.120699896954617"><ele>88.5</ele><time>2026-04-11T16:37:27Z</time></trkpt><trkpt lat="42.43469459484252" lon="14.120765683419583"><ele>93.0</ele><time>2026-04-11T16:37:28Z</time></trkpt><trkpt lat="42.434597085950415" lon="14.120846523086925"><ele>97.5</ele><time>2026-04-11T16:37:29Z</time></trkpt><trkpt lat="42.4344968209357" lon="14.120941595843805"><ele>102.0</ele><time>2026-04-11T16:37:30Z</time></trkpt><trkpt lat="42.434401165152536" lon="14.121038299942192"><ele>102.0</ele><time>2026-04-11T16:37:31Z</time></trkpt><trkpt lat="42.434310954859285" lon="14.1211283127209"><ele>102.0</ele><time>2026-04-11T16:37:32Z</time></trkpt><trkpt lat="42.43422465485095" lon="14.12121779044083"><ele>102.0</ele><time>2026-04-11T16:37:33Z</time></trkpt><trkpt lat="42.434138815343765" lon="14.121308363678802"><ele>102.0</ele><time>2026-04-11T16:37:34Z</time></trkpt><trkpt lat="42.43405382359008" lon="14.121391121019483"><ele>102.0</ele><time>2026-04-11T16:37:35Z</time></trkpt><trkpt lat="42.433968254710635" lon="14.121462329087446"><ele>102.0</ele><time>2026-04-11T16:37:36Z</time></trkpt><trkpt lat="42.43388291163617" lon="14.12152774119346"><ele>102.0</ele><time>2026-04-11T16:37:37Z</time></trkpt><trkpt lat="42.43379278431755" lon="14.12157337316175"><ele>102.0</ele><time>2026-04-11T16:37:38Z</time></trkpt><trkpt lat="42.43369614257661" lon="14.121573167649036"><ele>102.0</ele><time>2026-04-11T16:37:39Z</time></trkpt><trkpt lat="42.43360276747363" lon="14.121542274531535"><ele>102.0</ele><time>2026-04-11T16:37:40Z</time></trkpt><trkpt lat="42.433507291721476" lon="14.121536217014132"><ele>102.19999999999999</ele><time>2026-04-11T16:37:41Z</time></trkpt><trkpt lat="42.43342319937323" lon="14.121559938614743"><ele>102.4</ele><time>2026-04-11T16:37:42Z</time></trkpt><trkpt lat="42.43330951488564" lon="14.121679573728786"><ele>102.6</ele><time>2026-04-11T16:37:44Z</time></trkpt><trkpt lat="42.4332608401874" lon="14.12177688477259"><ele>102.80000000000001</ele><time>2026-04-11T16:37:45Z</time></trkpt><trkpt lat="42.43320978466403" lon="14.121872800841166"><ele>103.0</ele><time>2026-04-11T16:37:46Z</time></trkpt><trkpt lat="42.43313518338403" lon="14.12196394437032"><ele>103.0</ele><time>2026-04-11T16:37:47Z</time></trkpt><trkpt lat="42.43303030227491" lon="14.122020445648923"><ele>103.0</ele><time>2026-04-11T16:37:48Z</time></trkpt><trkpt lat="42.43292333394468" lon="14.122045015580754"><ele>103.0</ele><time>2026-04-11T16:37:49Z</time></trkpt><trkpt lat="42.43281426008982" lon="14.122069157040027"><ele>103.0</ele><time>2026-04-11T16:37:50Z</time></trkpt><trkpt lat="42.43272702329008" lon="14.12209252038551"><ele>103.0</ele><time>2026-04-11T16:37:51Z</time></trkpt><trkpt lat="42.432660955193164" lon="14.122110870405795"><ele>102.0</ele><time>2026-04-11T16:37:52Z</time></trkpt><trkpt lat="42.43257008759615" lon="14.122145646196964"><ele>101.0</ele><time>2026-04-11T16:37:54Z</time></trkpt><trkpt lat="42.43253114121242" lon="14.122215504195879"><ele>100.0</ele><time>2026-04-11T16:37:56Z</time></trkpt><trkpt lat="42.43250181188963" lon="14.12234543702116"><ele>99.0</ele><time>2026-04-11T16:37:59Z</time></trkpt><trkpt lat="42.43248012428248" lon="14.122522115921209"><ele>98.0</ele><time>2026-04-11T16:38:01Z</time></trkpt><trkpt lat="42.43245709863952" lon="14.122634421711806"><ele>97.99999999999999</ele><time>2026-04-11T16:38:02Z</time></trkpt><trkpt lat="42.43243569614355" lon="14.122740395739282"><ele>98.0</ele><time>2026-04-11T16:38:02.999Z</time></trkpt><trkpt lat="42.432398474900474" lon="14.12283361674015"><ele>98.0</ele><time>2026-04-11T16:38:03.999Z</time></trkpt><trkpt lat="42.43232545725621" lon="14.122908502920795"><ele>98.0</ele><time>2026-04-11T16:38:04.999Z</time></trkpt><trkpt lat="42.43225236491562" lon="14.122993491356539"><ele>97.99999999999999</ele><time>2026-04-11T16:38:05.999Z</time></trkpt><trkpt lat="42.432187994643705" lon="14.123089545893611"><ele>98.0</ele><time>2026-04-11T16:38:06.999Z</time></trkpt><trkpt lat="42.43211279400715" lon="14.123157788587266"><ele>98.49999999999999</ele><time>2026-04-11T16:38:07.999Z</time></trkpt><trkpt lat="42.4320491427196" lon="14.123230557853931"><ele>99.0</ele><time>2026-04-11T16:38:08.999Z</time></trkpt><trkpt lat="42.43200045270772" lon="14.123316355653843"><ele>99.5</ele><time>2026-04-11T16:38:09.999Z</time></trkpt><trkpt lat="42.43195614863265" lon="14.123427945203302"><ele>100.0</ele><time>2026-04-11T16:38:10.999Z</time></trkpt><trkpt lat="42.43192516844488" lon="14.12353358703033"><ele>100.49999999999999</ele><time>2026-04-11T16:38:11.999Z</time></trkpt><trkpt lat="42.43189043485786" lon="14.123650349960359"><ele>101.0</ele><time>2026-04-11T16:38:12.999Z</time></trkpt><trkpt lat="42.431852809234265" lon="14.123757637262273"><ele>100.99999999999999</ele><time>2026-04-11T16:38:13.999Z</time></trkpt><trkpt lat="42.43181006936873" lon="14.1238705906638"><ele>101.0</ele><time>2026-04-11T16:38:14.999Z</time></trkpt><trkpt lat="42.43176644259654" lon="14.123986340813195"><ele>101.0</ele><time>2026-04-11T16:38:15.999Z</time></trkpt><trkpt lat="42.43172367322135" lon="14.124094725256283"><ele>101.0</ele><time>2026-04-11T16:38:16.999Z</time></trkpt><trkpt lat="42.431683437492076" lon="14.124196206469469"><ele>100.99999999999999</ele><time>2026-04-11T16:38:17.999Z</time></trkpt><trkpt lat="42.431643601275425" lon="14.124292634347261"><ele>101.0</ele><time>2026-04-11T16:38:18.999Z</time></trkpt><trkpt lat="42.43160308397855" lon="14.124386296279514"><ele>100.6</ele><time>2026-04-11T16:38:19.999Z</time></trkpt><trkpt lat="42.43155388998692" lon="14.124504078909665"><ele>100.19999999999999</ele><time>2026-04-11T16:38:20.999Z</time></trkpt><trkpt lat="42.43149656230131" lon="14.124626629302897"><ele>99.80000000000001</ele><time>2026-04-11T16:38:21.999Z</time></trkpt><trkpt lat="42.43142698114236" lon="14.124748587226867"><ele>99.4</ele><time>2026-04-11T16:38:22.999Z</time></trkpt><trkpt lat="42.43136211715715" lon="14.124867741594356"><ele>99.0</ele><time>2026-04-11T16:38:23.999Z</time></trkpt><trkpt lat="42.43129299499203" lon="14.124982417773444"><ele>99.0</ele><time>2026-04-11T16:38:24.999Z</time></trkpt><trkpt lat="42.431221665876556" lon="14.12509409160801"><ele>99.0</ele><time>2026-04-11T16:38:25.999Z</time></trkpt><trkpt lat="42.43115060725562" lon="14.125210629650097"><ele>99.0</ele><time>2026-04-11T16:38:26.999Z</time></trkpt><trkpt lat="42.43108282432358" lon="14.125323284259368"><ele>99.0</ele><time>2026-04-11T16:38:27.999Z</time></trkpt><trkpt lat="42.431018313433206" lon="14.125436751240441"><ele>99.0</ele><time>2026-04-11T16:38:28.999Z</time></trkpt><trkpt lat="42.43095312026131" lon="14.125542906799478"><ele>99.0</ele><time>2026-04-11T16:38:29.999Z</time></trkpt><trkpt lat="42.43089564602969" lon="14.125646076001077"><ele>99.0</ele><time>2026-04-11T16:38:30.999Z</time></trkpt><trkpt lat="42.43084064646699" lon="14.125753064411402"><ele>99.0</ele><time>2026-04-11T16:38:31.999Z</time></trkpt><trkpt lat="42.43077575385271" lon="14.125835847493002"><ele>99.0</ele><time>2026-04-11T16:38:32.999Z</time></trkpt><trkpt lat="42.43072251008703" lon="14.125936926947194"><ele>99.0</ele><time>2026-04-11T16:38:33.999Z</time></trkpt><trkpt lat="42.43066720024573" lon="14.126045628304665"><ele>97.16666666666667</ele><time>2026-04-11T16:38:34.999Z</time></trkpt><trkpt lat="42.430611199812496" lon="14.126144070013767"><ele>95.33333333333333</ele><time>2026-04-11T16:38:35.999Z</time></trkpt><trkpt lat="42.43054786049394" lon="14.126231643467365"><ele>93.5</ele><time>2026-04-11T16:38:36.999Z</time></trkpt><trkpt lat="42.43049155595847" lon="14.126324788746853"><ele>91.66666666666666</ele><time>2026-04-11T16:38:37.999Z</time></trkpt><trkpt lat="42.43045291898194" lon="14.126422931539253"><ele>89.83333333333333</ele><time>2026-04-11T16:38:38.999Z</time></trkpt><trkpt lat="42.430395248309196" lon="14.126507824997981"><ele>88.0</ele><time>2026-04-11T16:38:39.999Z</time></trkpt><trkpt lat="42.43034533028105" lon="14.126594406636825"><ele>86.60000000000001</ele><time>2026-04-11T16:38:40.999Z</time></trkpt><trkpt lat="42.43029212432687" lon="14.126679265915099"><ele>85.2</ele><time>2026-04-11T16:38:41.999Z</time></trkpt><trkpt lat="42.43022894588335" lon="14.126777582371055"><ele>83.8</ele><time>2026-04-11T16:38:43.999Z</time></trkpt><trkpt lat="42.43017040602621" lon="14.12687590605787"><ele>82.4</ele><time>2026-04-11T16:38:47.999Z</time></trkpt><trkpt lat="42.43011932268045" lon="14.126940114300591"><ele>81.0</ele><time>2026-04-11T16:38:49.999Z</time></trkpt><trkpt lat="42.43003055954694" lon="14.127038743115559"><ele>81.0</ele><time>2026-04-11T16:38:51.999Z</time></trkpt><trkpt lat="42.429979874836064" lon="14.127093155216874"><ele>81.0</ele><time>2026-04-11T16:38:52.999Z</time></trkpt><trkpt lat="42.42992570586165" lon="14.12714121149952"><ele>81.0</ele><time>2026-04-11T16:38:53.999Z</time></trkpt><trkpt lat="42.42983772560215" lon="14.127241893472082"><ele>81.0</ele><time>2026-04-11T16:38:55.999Z</time></trkpt><trkpt lat="42.42974607224722" lon="14.127327214419667"><ele>81.0</ele><time>2026-04-11T16:38:57.999Z</time></trkpt><trkpt lat="42.42965717326847" lon="14.127447679179076"><ele>80.66666666666667</ele><time>2026-04-11T16:38:59.999Z</time></trkpt><trkpt lat="42.429568196262636" lon="14.127558441366103"><ele>80.33333333333333</ele><time>2026-04-11T16:39:01.999Z</time></trkpt><trkpt lat="42.42952124902297" lon="14.127616812509068"><ele>80.0</ele><time>2026-04-11T16:39:02.998Z</time></trkpt><trkpt lat="42.42947258079347" lon="14.127674070636242"><ele>79.66666666666666</ele><time>2026-04-11T16:39:03.998Z</time></trkpt><trkpt lat="42.4294162026951" lon="14.127744254314068"><ele>79.33333333333333</ele><time>2026-04-11T16:39:04.998Z</time></trkpt><trkpt lat="42.42935093121912" lon="14.127831944300747"><ele>79.0</ele><time>2026-04-11T16:39:05.998Z</time></trkpt><trkpt lat="42.42928064355278" lon="14.12791846337062"><ele>79.0</ele><time>2026-04-11T16:39:06.998Z</time></trkpt><trkpt lat="42.42921872686365" lon="14.128000177356514"><ele>79.0</ele><time>2026-04-11T16:39:07.998Z</time></trkpt><trkpt lat="42.42916259149217" lon="14.128077714034"><ele>79.0</ele><time>2026-04-11T16:39:08.998Z</time></trkpt><trkpt lat="42.42910356870518" lon="14.128162202205933"><ele>79.0</ele><time>2026-04-11T16:39:09.998Z</time></trkpt><trkpt lat="42.42904728937475" lon="14.128251676418934"><ele>79.0</ele><time>2026-04-11T16:39:10.998Z</time></trkpt><trkpt lat="42.42899043314717" lon="14.128332103680817"><ele>79.0</ele><time>2026-04-11T16:39:11.998Z</time></trkpt><trkpt lat="42.42893112519684" lon="14.12841203529164"><ele>79.33333333333333</ele><time>2026-04-11T16:39:12.998Z</time></trkpt><trkpt lat="42.42887132552837" lon="14.128490298341534"><ele>79.66666666666666</ele><time>2026-04-11T16:39:13.998Z</time></trkpt><trkpt lat="42.428814349019106" lon="14.128578719472806"><ele>80.0</ele><time>2026-04-11T16:39:14.998Z</time></trkpt><trkpt lat="42.428742255518365" lon="14.128647439833589"><ele>80.33333333333333</ele><time>2026-04-11T16:39:15.998Z</time></trkpt><trkpt lat="42.42868890971134" lon="14.128740832611935"><ele>80.66666666666667</ele><time>2026-04-11T16:39:16.998Z</time></trkpt><trkpt lat="42.428614299882526" lon="14.128831875025405"><ele>81.0</ele><time>2026-04-11T16:39:17.998Z</time></trkpt><trkpt lat="42.428553395856326" lon="14.12893248834419"><ele>81.0</ele><time>2026-04-11T16:39:18.998Z</time></trkpt><trkpt lat="42.42849209765821" lon="14.129022839975603"><ele>81.0</ele><time>2026-04-11T16:39:19.998Z</time></trkpt><trkpt lat="42.428431165706535" lon="14.129108645669795"><ele>81.0</ele><time>2026-04-11T16:39:20.998Z</time></trkpt><trkpt lat="42.42837222255792" lon="14.129194144350697"><ele>81.0</ele><time>2026-04-11T16:39:21.998Z</time></trkpt><trkpt lat="42.42830962021787" lon="14.129280435866148"><ele>81.0</ele><time>2026-04-11T16:39:22.998Z</time></trkpt><trkpt lat="42.428250275947" lon="14.129364195607808"><ele>81.0</ele><time>2026-04-11T16:39:23.998Z</time></trkpt><trkpt lat="42.428199050344865" lon="14.129439400226216"><ele>81.28571428571429</ele><time>2026-04-11T16:39:24.998Z</time></trkpt><trkpt lat="42.428144664702835" lon="14.129515684559312"><ele>81.57142857142857</ele><time>2026-04-11T16:39:26Z</time></trkpt><trkpt lat="42.42809566337862" lon="14.129587057173664"><ele>81.85714285714286</ele><time>2026-04-11T16:39:27Z</time></trkpt><trkpt lat="42.428048024744925" lon="14.129656736324087"><ele>82.14285714285714</ele><time>2026-04-11T16:39:28Z</time></trkpt><trkpt lat="42.42800170343158" lon="14.129720785390099"><ele>82.42857142857143</ele><time>2026-04-11T16:39:29Z</time></trkpt><trkpt lat="42.427961401291846" lon="14.129786356952154"><ele>82.71428571428571</ele><time>2026-04-11T16:39:30Z</time></trkpt><trkpt lat="42.427907221252255" lon="14.129847305139572"><ele>83.0</ele><time>2026-04-11T16:39:31Z</time></trkpt><trkpt lat="42.42785174925869" lon="14.129928914522289"><ele>82.0</ele><time>2026-04-11T16:39:32Z</time></trkpt><trkpt lat="42.42779974747235" lon="14.13000541855312"><ele>81.0</ele><time>2026-04-11T16:39:33Z</time></trkpt><trkpt lat="42.427755492260744" lon="14.130078619513252"><ele>80.0</ele><time>2026-04-11T16:39:34Z</time></trkpt><trkpt lat="42.427708756835116" lon="14.130142141145896"><ele>79.0</ele><time>2026-04-11T16:39:35Z</time></trkpt><trkpt lat="42.427665131115745" lon="14.130216178167021"><ele>78.0</ele><time>2026-04-11T16:39:36Z</time></trkpt><trkpt lat="42.427622029324816" lon="14.130290249194664"><ele>77.0</ele><time>2026-04-11T16:39:37Z</time></trkpt><trkpt lat="42.427571681996355" lon="14.13036931740521"><ele>76.0</ele><time>2026-04-11T16:39:38Z</time></trkpt><trkpt lat="42.42751954651949" lon="14.130453170952345"><ele>76.0</ele><time>2026-04-11T16:39:39Z</time></trkpt><trkpt lat="42.4274572747804" lon="14.130535812309272"><ele>76.0</ele><time>2026-04-11T16:39:40Z</time></trkpt><trkpt lat="42.427396078918264" lon="14.130608104782352"><ele>76.0</ele><time>2026-04-11T16:39:41Z</time></trkpt><trkpt lat="42.42733534195106" lon="14.130681367171372"><ele>76.0</ele><time>2026-04-11T16:39:42Z</time></trkpt><trkpt lat="42.42728487979091" lon="14.130749976953116"><ele>76.0</ele><time>2026-04-11T16:39:43Z</time></trkpt><trkpt lat="42.42722573222627" lon="14.130810358639787"><ele>76.0</ele><time>2026-04-11T16:39:44Z</time></trkpt><trkpt lat="42.427166220894726" lon="14.130845629909663"><ele>76.2</ele><time>2026-04-11T16:39:45Z</time></trkpt><trkpt lat="42.42706561199853" lon="14.130944467729918"><ele>76.39999999999999</ele><time>2026-04-11T16:39:47Z</time></trkpt><trkpt lat="42.427004627561956" lon="14.131029010251064"><ele>76.6</ele><time>2026-04-11T16:39:48Z</time></trkpt><trkpt lat="42.42692736346555" lon="14.131097116496171"><ele>76.8</ele><time>2026-04-11T16:39:49Z</time></trkpt><trkpt lat="42.42683667793234" lon="14.131163951092157"><ele>77.0</ele><time>2026-04-11T16:39:50Z</time></trkpt><trkpt lat="42.42676054073847" lon="14.131236581506835"><ele>77.0</ele><time>2026-04-11T16:39:51Z</time></trkpt><trkpt lat="42.42668854392055" lon="14.131302757178796"><ele>77.0</ele><time>2026-04-11T16:39:52Z</time></trkpt><trkpt lat="42.42662068602791" lon="14.131365137530702"><ele>77.0</ele><time>2026-04-11T16:39:53Z</time></trkpt><trkpt lat="42.42655428436077" lon="14.131439976816297"><ele>77.0</ele><time>2026-04-11T16:39:54Z</time></trkpt><trkpt lat="42.42647809930001" lon="14.131518677430389"><ele>77.0</ele><time>2026-04-11T16:39:55Z</time></trkpt><trkpt lat="42.426402528653696" lon="14.131593916149507"><ele>77.0</ele><time>2026-04-11T16:39:56Z</time></trkpt><trkpt lat="42.42632944992563" lon="14.131666947136326"><ele>76.0</ele><time>2026-04-11T16:39:57Z</time></trkpt><trkpt lat="42.42626724177919" lon="14.131739353231282"><ele>75.0</ele><time>2026-04-11T16:39:58Z</time></trkpt><trkpt lat="42.42620340322966" lon="14.131832558256061"><ele>74.0</ele><time>2026-04-11T16:39:59Z</time></trkpt><trkpt lat="42.426159429497346" lon="14.131907378842511"><ele>73.0</ele><time>2026-04-11T16:40:00Z</time></trkpt><trkpt lat="42.42611417811194" lon="14.131998994043958"><ele>72.0</ele><time>2026-04-11T16:40:01Z</time></trkpt><trkpt lat="42.42605985157626" lon="14.13209484226424"><ele>71.0</ele><time>2026-04-11T16:40:02Z</time></trkpt><trkpt lat="42.42600898135337" lon="14.13219375231507"><ele>71.0</ele><time>2026-04-11T16:40:03Z</time></trkpt><trkpt lat="42.425961094065656" lon="14.132307937358558"><ele>71.0</ele><time>2026-04-11T16:40:04Z</time></trkpt><trkpt lat="42.425916670435676" lon="14.132414216079741"><ele>71.0</ele><time>2026-04-11T16:40:05Z</time></trkpt><trkpt lat="42.42587368390536" lon="14.13252960645162"><ele>71.0</ele><time>2026-04-11T16:40:06Z</time></trkpt><trkpt lat="42.42584159729015" lon="14.132638080694335"><ele>71.0</ele><time>2026-04-11T16:40:07Z</time></trkpt><trkpt lat="42.42580154996175" lon="14.132758794343916"><ele>71.0</ele><time>2026-04-11T16:40:08Z</time></trkpt><trkpt lat="42.4257572170038" lon="14.132891985595437"><ele>71.0</ele><time>2026-04-11T16:40:09Z</time></trkpt><trkpt lat="42.42571314422369" lon="14.133024624783834"><ele>71.0</ele><time>2026-04-11T16:40:10Z</time></trkpt><trkpt lat="42.42566534658237" lon="14.13315116885395"><ele>71.0</ele><time>2026-04-11T16:40:11Z</time></trkpt><trkpt lat="42.425611124261565" lon="14.133272667245095"><ele>71.0</ele><time>2026-04-11T16:40:11.999Z</time></trkpt><trkpt lat="42.42555481656163" lon="14.133391953599864"><ele>71.0</ele><time>2026-04-11T16:40:12.999Z</time></trkpt><trkpt lat="42.42549456018446" lon="14.13350194034423"><ele>71.0</ele><time>2026-04-11T16:40:13.999Z</time></trkpt><trkpt lat="42.42542632839306" lon="14.1336134917701"><ele>71.0</ele><time>2026-04-11T16:40:14.999Z</time></trkpt><trkpt lat="42.42535220635501" lon="14.13373236009056"><ele>71.0</ele><time>2026-04-11T16:40:15.999Z</time></trkpt><trkpt lat="42.42526226846011" lon="14.1338609448303"><ele>70.75</ele><time>2026-04-11T16:40:16.999Z</time></trkpt><trkpt lat="42.4251615897436" lon="14.133997602035127"><ele>70.5</ele><time>2026-04-11T16:40:17.999Z</time></trkpt><trkpt lat="42.4250681562465" lon="14.13412794071843"><ele>70.25</ele><time>2026-04-11T16:40:18.999Z</time></trkpt><trkpt lat="42.424982710480634" lon="14.134260459064565"><ele>70.0</ele><time>2026-04-11T16:40:19.999Z</time></trkpt><trkpt lat="42.42490272535778" lon="14.134396449696947"><ele>70.0</ele><time>2026-04-11T16:40:20.999Z</time></trkpt><trkpt lat="42.42482092382362" lon="14.134527757733798"><ele>70.0</ele><time>2026-04-11T16:40:21.999Z</time></trkpt><trkpt lat="42.42474269796343" lon="14.134657302383927"><ele>70.0</ele><time>2026-04-11T16:40:22.999Z</time></trkpt><trkpt lat="42.42466482348669" lon="14.13478405384746"><ele>70.0</ele><time>2026-04-11T16:40:23.999Z</time></trkpt><trkpt lat="42.42458909433618" lon="14.134907095432126"><ele>67.75</ele><time>2026-04-11T16:40:24.999Z</time></trkpt><trkpt lat="42.424520646057395" lon="14.135030166049086"><ele>65.5</ele><time>2026-04-11T16:40:25.999Z</time></trkpt><trkpt lat="42.42444616384595" lon="14.135156569272675"><ele>63.25</ele><time>2026-04-11T16:40:26.999Z</time></trkpt><trkpt lat="42.42437877890334" lon="14.135276033547362"><ele>61.0</ele><time>2026-04-11T16:40:27.999Z</time></trkpt><trkpt lat="42.424306437032314" lon="14.13538931394429"><ele>60.99999999999999</ele><time>2026-04-11T16:40:28.999Z</time></trkpt><trkpt lat="42.42424747494884" lon="14.135495869022204"><ele>61.0</ele><time>2026-04-11T16:40:29.999Z</time></trkpt><trkpt lat="42.42417816981347" lon="14.135575828523265"><ele>61.0</ele><time>2026-04-11T16:40:30.999Z</time></trkpt><trkpt lat="42.42413227537698" lon="14.135650049356395"><ele>61.0</ele><time>2026-04-11T16:40:31.999Z</time></trkpt><trkpt lat="42.424098848105935" lon="14.135730526098389"><ele>60.99999999999999</ele><time>2026-04-11T16:40:32.999Z</time></trkpt><trkpt lat="42.42402326933494" lon="14.135843302014168"><ele>61.0</ele><time>2026-04-11T16:40:34.999Z</time></trkpt><trkpt lat="42.423955706589226" lon="14.135928493589459"><ele>61.0</ele><time>2026-04-11T16:40:36.999Z</time></trkpt><trkpt lat="42.423845636651" lon="14.13603563953136"><ele>60.99999999999999</ele><time>2026-04-11T16:40:38.999Z</time></trkpt><trkpt lat="42.423775120413936" lon="14.136088015025422"><ele>60.99999999999999</ele><time>2026-04-11T16:40:39.999Z</time></trkpt><trkpt lat="42.42370008267125" lon="14.136139541414533"><ele>61.0</ele><time>2026-04-11T16:40:40.999Z</time></trkpt><trkpt lat="42.423629485212864" lon="14.136189719506056"><ele>61.0</ele><time>2026-04-11T16:40:41.999Z</time></trkpt><trkpt lat="42.42355189529211" lon="14.136254355333978"><ele>59.4</ele><time>2026-04-11T16:40:42.999Z</time></trkpt><trkpt lat="42.42347150239959" lon="14.13631418286318"><ele>57.8</ele><time>2026-04-11T16:40:43.999Z</time></trkpt><trkpt lat="42.423394379335924" lon="14.136349907771535"><ele>56.199999999999996</ele><time>2026-04-11T16:40:44.999Z</time></trkpt><trkpt lat="42.42332285103216" lon="14.136421670767156"><ele>54.599999999999994</ele><time>2026-04-11T16:40:45.999Z</time></trkpt><trkpt lat="42.42323202491973" lon="14.13647438334531"><ele>53.0</ele><time>2026-04-11T16:40:46.999Z</time></trkpt><trkpt lat="42.42313904647641" lon="14.136537416535322"><ele>52.8</ele><time>2026-04-11T16:40:47.999Z</time></trkpt><trkpt lat="42.423031687766176" lon="14.136608957456161"><ele>52.599999999999994</ele><time>2026-04-11T16:40:48.999Z</time></trkpt><trkpt lat="42.42292583696264" lon="14.136676281133184"><ele>52.400000000000006</ele><time>2026-04-11T16:40:49.999Z</time></trkpt><trkpt lat="42.42283936626567" lon="14.136744478357413"><ele>52.2</ele><time>2026-04-11T16:40:50.999Z</time></trkpt><trkpt lat="42.422752766547774" lon="14.136804223865347"><ele>52.0</ele><time>2026-04-11T16:40:51.999Z</time></trkpt><trkpt lat="42.422675705416374" lon="14.136866202309168"><ele>51.99999999999999</ele><time>2026-04-11T16:40:52.999Z</time></trkpt><trkpt lat="42.42260842928652" lon="14.13693601048003"><ele>52.0</ele><time>2026-04-11T16:40:53.999Z</time></trkpt><trkpt lat="42.42254931245274" lon="14.137005941420691"><ele>52.0</ele><time>2026-04-11T16:40:54.999Z</time></trkpt><trkpt lat="42.422497657739314" lon="14.13707779942801"><ele>52.0</ele><time>2026-04-11T16:40:55.999Z</time></trkpt><trkpt lat="42.42246755784253" lon="14.13716328320379"><ele>51.99999999999999</ele><time>2026-04-11T16:40:56.999Z</time></trkpt><trkpt lat="42.42246330780688" lon="14.137264019989212"><ele>52.0</ele><time>2026-04-11T16:40:57.999Z</time></trkpt><trkpt lat="42.422472415055395" lon="14.13736362711958"><ele>52.33333333333333</ele><time>2026-04-11T16:40:58.999Z</time></trkpt><trkpt lat="42.4224565892543" lon="14.137516738943448"><ele>52.666666666666664</ele><time>2026-04-11T16:41:00.999Z</time></trkpt><trkpt lat="42.42241231879836" lon="14.13759044081132"><ele>53.0</ele><time>2026-04-11T16:41:01.999Z</time></trkpt><trkpt lat="42.422359445191454" lon="14.13766353156775"><ele>53.33333333333333</ele><time>2026-04-11T16:41:02.999Z</time></trkpt><trkpt lat="42.42231225415981" lon="14.13774042183973"><ele>53.666666666666664</ele><time>2026-04-11T16:41:03.999Z</time></trkpt><trkpt lat="42.42224897642312" lon="14.137813687079975"><ele>54.0</ele><time>2026-04-11T16:41:04.999Z</time></trkpt><trkpt lat="42.42221129757175" lon="14.137919456857144"><ele>54.0</ele><time>2026-04-11T16:41:05.999Z</time></trkpt><trkpt lat="42.422159193677814" lon="14.138021314922877"><ele>54.00000000000001</ele><time>2026-04-11T16:41:06.999Z</time></trkpt><trkpt lat="42.422091868557324" lon="14.13811137739124"><ele>54.00000000000001</ele><time>2026-04-11T16:41:07.999Z</time></trkpt><trkpt lat="42.42203296982546" lon="14.138207662504271"><ele>54.0</ele><time>2026-04-11T16:41:08.999Z</time></trkpt><trkpt lat="42.42197949807309" lon="14.138311055379981"><ele>54.0</ele><time>2026-04-11T16:41:09.999Z</time></trkpt><trkpt lat="42.42191636422672" lon="14.138394930823956"><ele>51.833333333333336</ele><time>2026-04-11T16:41:10.998Z</time></trkpt><trkpt lat="42.421851752891826" lon="14.138473145448987"><ele>49.666666666666664</ele><time>2026-04-11T16:41:11.998Z</time></trkpt><trkpt lat="42.4217956532314" lon="14.138555185523611"><ele>47.5</ele><time>2026-04-11T16:41:12.998Z</time></trkpt><trkpt lat="42.42175074369368" lon="14.138623209784805"><ele>45.33333333333333</ele><time>2026-04-11T16:41:13.998Z</time></trkpt><trkpt lat="42.42171118155941" lon="14.138697968645928"><ele>43.166666666666664</ele><time>2026-04-11T16:41:14.998Z</time></trkpt><trkpt lat="42.4216942716995" lon="14.138856345806108"><ele>41.0</ele><time>2026-04-11T16:41:16.998Z</time></trkpt><trkpt lat="42.42173241415285" lon="14.138957772275486"><ele>41.285714285714285</ele><time>2026-04-11T16:41:17.998Z</time></trkpt><trkpt lat="42.42178670304575" lon="14.139056658546837"><ele>41.57142857142857</ele><time>2026-04-11T16:41:18.998Z</time></trkpt><trkpt lat="42.42183373509371" lon="14.139144446399454"><ele>41.85714285714286</ele><time>2026-04-11T16:41:19.998Z</time></trkpt><trkpt lat="42.42186250997878" lon="14.139232915405598"><ele>42.14285714285714</ele><time>2026-04-11T16:41:20.998Z</time></trkpt><trkpt lat="42.42186402976381" lon="14.1393188042489"><ele>42.42857142857143</ele><time>2026-04-11T16:41:21.998Z</time></trkpt><trkpt lat="42.42183511858294" lon="14.139398196015097"><ele>42.714285714285715</ele><time>2026-04-11T16:41:22.998Z</time></trkpt><trkpt lat="42.421781599518376" lon="14.13945862908647"><ele>43.0</ele><time>2026-04-11T16:41:23.998Z</time></trkpt><trkpt lat="42.421712682907064" lon="14.13948254925955"><ele>43.0</ele><time>2026-04-11T16:41:24.998Z</time></trkpt><trkpt lat="42.42163953249539" lon="14.13945991824447"><ele>43.0</ele><time>2026-04-11T16:41:25.998Z</time></trkpt><trkpt lat="42.42155983396962" lon="14.139380510187161"><ele>43.0</ele><time>2026-04-11T16:41:26.998Z</time></trkpt><trkpt lat="42.4214653114341" lon="14.139337914388054"><ele>43.0</ele><time>2026-04-11T16:41:27.998Z</time></trkpt><trkpt lat="42.42140693877312" lon="14.139290898716943"><ele>43.0</ele><time>2026-04-11T16:41:28.998Z</time></trkpt><trkpt lat="42.4213356304458" lon="14.139251906534211"><ele>43.0</ele><time>2026-04-11T16:41:31Z</time></trkpt><trkpt lat="42.421281402375186" lon="14.139198710438418"><ele>40.0</ele><time>2026-04-11T16:41:37Z</time></trkpt><trkpt lat="42.42121043205827" lon="14.139352095391205"><ele>37.0</ele><time>2026-04-11T16:41:38Z</time></trkpt><trkpt lat="42.42117269011299" lon="14.139474084194568"><ele>34.0</ele><time>2026-04-11T16:41:39Z</time></trkpt><trkpt lat="42.421134522588915" lon="14.139583739378978"><ele>31.0</ele><time>2026-04-11T16:41:40Z</time></trkpt><trkpt lat="42.42108890923875" lon="14.139714071773282"><ele>28.0</ele><time>2026-04-11T16:41:41Z</time></trkpt><trkpt lat="42.421039343976084" lon="14.13984038028137"><ele>28.4</ele><time>2026-04-11T16:41:42Z</time></trkpt><trkpt lat="42.420997874919735" lon="14.139962446986669"><ele>28.799999999999997</ele><time>2026-04-11T16:41:43Z</time></trkpt><trkpt lat="42.42094883943168" lon="14.140093376661014"><ele>29.2</ele><time>2026-04-11T16:41:44Z</time></trkpt><trkpt lat="42.420904047300176" lon="14.140221761732892"><ele>29.6</ele><time>2026-04-11T16:41:45Z</time></trkpt><trkpt lat="42.42085566998172" lon="14.140340276844585"><ele>30.0</ele><time>2026-04-11T16:41:46Z</time></trkpt><trkpt lat="42.42081302781507" lon="14.140472385303186"><ele>30.0</ele><time>2026-04-11T16:41:47Z</time></trkpt><trkpt lat="42.42076976339629" lon="14.140606225216757"><ele>30.0</ele><time>2026-04-11T16:41:48Z</time></trkpt><trkpt lat="42.42072480346566" lon="14.140735825249664"><ele>30.0</ele><time>2026-04-11T16:41:49Z</time></trkpt><trkpt lat="42.420677906689136" lon="14.140871889733985"><ele>30.0</ele><time>2026-04-11T16:41:50Z</time></trkpt><trkpt lat="42.420638133639784" lon="14.141004852894003"><ele>30.0</ele><time>2026-04-11T16:41:51Z</time></trkpt><trkpt lat="42.420610396786174" lon="14.14114848222306"><ele>29.5</ele><time>2026-04-11T16:41:52Z</time></trkpt><trkpt lat="42.42058905555084" lon="14.141310180556204"><ele>29.0</ele><time>2026-04-11T16:41:53Z</time></trkpt><trkpt lat="42.42057321558836" lon="14.141488664700764"><ele>28.5</ele><time>2026-04-11T16:41:54Z</time></trkpt><trkpt lat="42.42057177755922" lon="14.141684590283976"><ele>28.0</ele><time>2026-04-11T16:41:55Z</time></trkpt><trkpt lat="42.42058684898429" lon="14.14190746468362"><ele>28.0</ele><time>2026-04-11T16:41:56Z</time></trkpt><trkpt lat="42.42062036964479" lon="14.142138312226685"><ele>28.0</ele><time>2026-04-11T16:41:57Z</time></trkpt><trkpt lat="42.42067927011089" lon="14.142349325493493"><ele>28.0</ele><time>2026-04-11T16:41:58Z</time></trkpt><trkpt lat="42.42072368649756" lon="14.142543649759947"><ele>28.0</ele><time>2026-04-11T16:41:59Z</time></trkpt><trkpt lat="42.420761011113015" lon="14.142729848208525"><ele>28.0</ele><time>2026-04-11T16:42:00Z</time></trkpt><trkpt lat="42.42079404626455" lon="14.142906852635463"><ele>28.0</ele><time>2026-04-11T16:42:01Z</time></trkpt><trkpt lat="42.42082699354026" lon="14.143080647150052"><ele>28.0</ele><time>2026-04-11T16:42:02Z</time></trkpt><trkpt lat="42.42085972013192" lon="14.143257484140033"><ele>28.666666666666668</ele><time>2026-04-11T16:42:03Z</time></trkpt><trkpt lat="42.42089568193104" lon="14.143452326952698"><ele>29.333333333333336</ele><time>2026-04-11T16:42:04Z</time></trkpt><trkpt lat="42.42093618391575" lon="14.143660752795892"><ele>30.0</ele><time>2026-04-11T16:42:05Z</time></trkpt><trkpt lat="42.420982055847524" lon="14.14388802798799"><ele>29.333333333333336</ele><time>2026-04-11T16:42:06Z</time></trkpt><trkpt lat="42.421027506848404" lon="14.144123041685512"><ele>28.666666666666668</ele><time>2026-04-11T16:42:07Z</time></trkpt><trkpt lat="42.42106961968592" lon="14.144342292999726"><ele>28.0</ele><time>2026-04-11T16:42:08Z</time></trkpt><trkpt lat="42.42110872328053" lon="14.144546452940531"><ele>28.0</ele><time>2026-04-11T16:42:09Z</time></trkpt><trkpt lat="42.421140505180844" lon="14.144742645103642"><ele>28.0</ele><time>2026-04-11T16:42:10Z</time></trkpt><trkpt lat="42.42116748781664" lon="14.144925949390684"><ele>28.0</ele><time>2026-04-11T16:42:11Z</time></trkpt><trkpt lat="42.42119426363733" lon="14.145075269813924"><ele>28.0</ele><time>2026-04-11T16:42:12Z</time></trkpt><trkpt lat="42.421220978773576" lon="14.14519835736672"><ele>27.599999999999998</ele><time>2026-04-11T16:42:13Z</time></trkpt><trkpt lat="42.421230433007175" lon="14.145292953324434"><ele>27.199999999999996</ele><time>2026-04-11T16:42:14Z</time></trkpt><trkpt lat="42.421226426855" lon="14.145421964127364"><ele>26.8</ele><time>2026-04-11T16:42:16Z</time></trkpt><trkpt lat="42.42135861126352" lon="14.145408697972993"><ele>26.4</ele><time>2026-04-11T16:42:19Z</time></trkpt><trkpt lat="42.421411834389" lon="14.145326401193634"><ele>26.0</ele><time>2026-04-11T16:42:20.999Z</time></trkpt><trkpt lat="42.4214690589131" lon="14.14525041722601"><ele>27.25</ele><time>2026-04-11T16:42:21.999Z</time></trkpt><trkpt lat="42.42151720812636" lon="14.14512917288244"><ele>28.5</ele><time>2026-04-11T16:42:22.999Z</time></trkpt><trkpt lat="42.42155760001144" lon="14.144998821887834"><ele>29.75</ele><time>2026-04-11T16:42:23.999Z</time></trkpt><trkpt lat="42.42160920868151" lon="14.144855341034438"><ele>31.0</ele><time>2026-04-11T16:42:24.999Z</time></trkpt><trkpt lat="42.42166404458643" lon="14.144692011150333"><ele>31.25</ele><time>2026-04-11T16:42:25.999Z</time></trkpt><trkpt lat="42.421724853086744" lon="14.144526526496506"><ele>31.5</ele><time>2026-04-11T16:42:26.999Z</time></trkpt><trkpt lat="42.421791525820474" lon="14.14436627439377"><ele>31.75</ele><time>2026-04-11T16:42:27.999Z</time></trkpt><trkpt lat="42.421848158412146" lon="14.14420617204755"><ele>32.0</ele><time>2026-04-11T16:42:28.999Z</time></trkpt><trkpt lat="42.421903390398356" lon="14.14404586048974"><ele>31.333333333333332</ele><time>2026-04-11T16:42:29.999Z</time></trkpt><trkpt lat="42.421962687565994" lon="14.14386502470861"><ele>30.666666666666664</ele><time>2026-04-11T16:42:30.999Z</time></trkpt><trkpt lat="42.422032931092346" lon="14.143673823232016"><ele>30.0</ele><time>2026-04-11T16:42:31.999Z</time></trkpt><trkpt lat="42.422102767645704" lon="14.143477057336916"><ele>30.333333333333336</ele><time>2026-04-11T16:42:32.999Z</time></trkpt><trkpt lat="42.42218152689152" lon="14.143273960511499"><ele>30.666666666666668</ele><time>2026-04-11T16:42:33.999Z</time></trkpt><trkpt lat="42.42225895054451" lon="14.143066780650901"><ele>31.0</ele><time>2026-04-11T16:42:34.999Z</time></trkpt><trkpt lat="42.42233071661516" lon="14.142880134270632"><ele>31.0</ele><time>2026-04-11T16:42:35.999Z</time></trkpt><trkpt lat="42.42239911705128" lon="14.142702452958636"><ele>31.0</ele><time>2026-04-11T16:42:36.999Z</time></trkpt><trkpt lat="42.4224691962613" lon="14.1425210917006"><ele>31.0</ele><time>2026-04-11T16:42:37.999Z</time></trkpt><trkpt lat="42.422525609410876" lon="14.142347422202475"><ele>31.0</ele><time>2026-04-11T16:42:38.999Z</time></trkpt><trkpt lat="42.42258461931297" lon="14.142181120107331"><ele>30.5</ele><time>2026-04-11T16:42:39.999Z</time></trkpt><trkpt lat="42.42264461543222" lon="14.142033842991667"><ele>30.0</ele><time>2026-04-11T16:42:40.999Z</time></trkpt><trkpt lat="42.422704532467186" lon="14.141874789418578"><ele>29.5</ele><time>2026-04-11T16:42:41.999Z</time></trkpt><trkpt lat="42.422767041128395" lon="14.141705697106012"><ele>29.0</ele><time>2026-04-11T16:42:42.999Z</time></trkpt><trkpt lat="42.4228288931173" lon="14.141523357847188"><ele>29.0</ele><time>2026-04-11T16:42:43.999Z</time></trkpt><trkpt lat="42.42289417023307" lon="14.14133625117333"><ele>29.0</ele><time>2026-04-11T16:42:44.999Z</time></trkpt><trkpt lat="42.4229598632824" lon="14.141155144636699"><ele>29.0</ele><time>2026-04-11T16:42:45.999Z</time></trkpt><trkpt lat="42.42301873216998" lon="14.140980411981712"><ele>29.0</ele><time>2026-04-11T16:42:46.999Z</time></trkpt><trkpt lat="42.42308344871145" lon="14.140808591726083"><ele>29.5</ele><time>2026-04-11T16:42:47.999Z</time></trkpt><trkpt lat="42.42314593374407" lon="14.140638709580642"><ele>30.0</ele><time>2026-04-11T16:42:48.999Z</time></trkpt><trkpt lat="42.42319912976483" lon="14.140481063316612"><ele>30.5</ele><time>2026-04-11T16:42:49.999Z</time></trkpt><trkpt lat="42.42324751360884" lon="14.140338813398097"><ele>31.0</ele><time>2026-04-11T16:42:50.999Z</time></trkpt><trkpt lat="42.42330702354101" lon="14.14019455193556"><ele>31.0</ele><time>2026-04-11T16:42:51.999Z</time></trkpt><trkpt lat="42.423368196021435" lon="14.140037017572213"><ele>31.0</ele><time>2026-04-11T16:42:52.999Z</time></trkpt><trkpt lat="42.4234253517206" lon="14.139883991750228"><ele>31.0</ele><time>2026-04-11T16:42:53.999Z</time></trkpt><trkpt lat="42.4234714644351" lon="14.139742810566624"><ele>31.0</ele><time>2026-04-11T16:42:54.999Z</time></trkpt><trkpt lat="42.42351495955571" lon="14.139600930274383"><ele>31.75</ele><time>2026-04-11T16:42:55.999Z</time></trkpt><trkpt lat="42.42354457521186" lon="14.13944001457594"><ele>32.5</ele><time>2026-04-11T16:42:56.999Z</time></trkpt><trkpt lat="42.423566198445535" lon="14.139273348450786"><ele>33.25</ele><time>2026-04-11T16:42:57.999Z</time></trkpt><trkpt lat="42.423592979089165" lon="14.139112561303516"><ele>34.0</ele><time>2026-04-11T16:42:58.999Z</time></trkpt><trkpt lat="42.42365102804384" lon="14.138968125250798"><ele>34.0</ele><time>2026-04-11T16:42:59.999Z</time></trkpt><trkpt lat="42.423735416681275" lon="14.13882316935139"><ele>34.0</ele><time>2026-04-11T16:43:00.999Z</time></trkpt><trkpt lat="42.42384147114415" lon="14.138676503908103"><ele>34.0</ele><time>2026-04-11T16:43:01.999Z</time></trkpt><trkpt lat="42.42396193302812" lon="14.13854206245685"><ele>34.0</ele><time>2026-04-11T16:43:02.999Z</time></trkpt><trkpt lat="42.42408445533541" lon="14.138401648599055"><ele>34.0</ele><time>2026-04-11T16:43:03.999Z</time></trkpt><trkpt lat="42.42421060351978" lon="14.138254870177414"><ele>34.0</ele><time>2026-04-11T16:43:04.999Z</time></trkpt><trkpt lat="42.42433895032209" lon="14.138102252017294"><ele>34.0</ele><time>2026-04-11T16:43:05.999Z</time></trkpt><trkpt lat="42.42446609758695" lon="14.137945604100587"><ele>35.333333333333336</ele><time>2026-04-11T16:43:06.999Z</time></trkpt><trkpt lat="42.42459596631701" lon="14.137786683149196"><ele>36.666666666666664</ele><time>2026-04-11T16:43:07.999Z</time></trkpt><trkpt lat="42.42471814039799" lon="14.137634367450028"><ele>38.0</ele><time>2026-04-11T16:43:08.999Z</time></trkpt><trkpt lat="42.42483688174936" lon="14.137495128014047"><ele>39.666666666666664</ele><time>2026-04-11T16:43:09.999Z</time></trkpt><trkpt lat="42.42495884074479" lon="14.137354277036948"><ele>41.333333333333336</ele><time>2026-04-11T16:43:10.999Z</time></trkpt><trkpt lat="42.42507455629301" lon="14.137217215633784"><ele>43.0</ele><time>2026-04-11T16:43:11.999Z</time></trkpt><trkpt lat="42.42518291070888" lon="14.137082863209715"><ele>43.0</ele><time>2026-04-11T16:43:12.999Z</time></trkpt><trkpt lat="42.4252931691559" lon="14.136942323558808"><ele>43.0</ele><time>2026-04-11T16:43:13.999Z</time></trkpt><trkpt lat="42.42540338917134" lon="14.136804110840064"><ele>43.0</ele><time>2026-04-11T16:43:14.999Z</time></trkpt><trkpt lat="42.425516900919185" lon="14.136656488747947"><ele>44.0</ele><time>2026-04-11T16:43:15.999Z</time></trkpt><trkpt lat="42.42562547333535" lon="14.136500869429689"><ele>45.0</ele><time>2026-04-11T16:43:16.999Z</time></trkpt><trkpt lat="42.4257335742049" lon="14.136344984165328"><ele>46.0</ele><time>2026-04-11T16:43:17.999Z</time></trkpt><trkpt lat="42.42584095580354" lon="14.136195386428293"><ele>46.0</ele><time>2026-04-11T16:43:18.999Z</time></trkpt><trkpt lat="42.425950811453866" lon="14.136046197124935"><ele>46.0</ele><time>2026-04-11T16:43:19.999Z</time></trkpt><trkpt lat="42.426058087603835" lon="14.135903281115922"><ele>46.0</ele><time>2026-04-11T16:43:20.998Z</time></trkpt><trkpt lat="42.4261667649186" lon="14.135762247708715"><ele>47.0</ele><time>2026-04-11T16:43:21.998Z</time></trkpt><trkpt lat="42.42627206167375" lon="14.135614476333838"><ele>48.0</ele><time>2026-04-11T16:43:22.998Z</time></trkpt><trkpt lat="42.42637829880456" lon="14.135465898614767"><ele>49.0</ele><time>2026-04-11T16:43:23.998Z</time></trkpt><trkpt lat="42.426484520860846" lon="14.13531880410117"><ele>49.0</ele><time>2026-04-11T16:43:24.998Z</time></trkpt><trkpt lat="42.42659797194383" lon="14.135166600218927"><ele>49.0</ele><time>2026-04-11T16:43:25.998Z</time></trkpt><trkpt lat="42.42671376368413" lon="14.135005578572535"><ele>49.0</ele><time>2026-04-11T16:43:26.998Z</time></trkpt><trkpt lat="42.426830100437435" lon="14.134842875588312"><ele>47.666666666666664</ele><time>2026-04-11T16:43:27.998Z</time></trkpt><trkpt lat="42.426947793088274" lon="14.134677642142533"><ele>46.33333333333333</ele><time>2026-04-11T16:43:28.998Z</time></trkpt><trkpt lat="42.42706636366727" lon="14.134515573392559"><ele>45.0</ele><time>2026-04-11T16:43:29.998Z</time></trkpt><trkpt lat="42.427183196923686" lon="14.134353552619233"><ele>45.0</ele><time>2026-04-11T16:43:30.998Z</time></trkpt><trkpt lat="42.4273010421007" lon="14.13418705510875"><ele>45.0</ele><time>2026-04-11T16:43:31.998Z</time></trkpt><trkpt lat="42.42743764505323" lon="14.133995918698893"><ele>45.0</ele><time>2026-04-11T16:43:32.998Z</time></trkpt><trkpt lat="42.427578362905166" lon="14.133799478830635"><ele>46.0</ele><time>2026-04-11T16:43:33.998Z</time></trkpt><trkpt lat="42.427725537691366" lon="14.133610811675352"><ele>47.0</ele><time>2026-04-11T16:43:34.998Z</time></trkpt><trkpt lat="42.4278775356327" lon="14.13340601789982"><ele>48.0</ele><time>2026-04-11T16:43:36Z</time></trkpt><trkpt lat="42.42801911250443" lon="14.133214565256882"><ele>48.0</ele><time>2026-04-11T16:43:37Z</time></trkpt><trkpt lat="42.428154137250175" lon="14.133034060146048"><ele>48.0</ele><time>2026-04-11T16:43:38Z</time></trkpt><trkpt lat="42.42828601716465" lon="14.132857649497705"><ele>48.0</ele><time>2026-04-11T16:43:39Z</time></trkpt><trkpt lat="42.42842488831062" lon="14.132685903181827"><ele>48.0</ele><time>2026-04-11T16:43:40Z</time></trkpt><trkpt lat="42.428562649099774" lon="14.132533547551688"><ele>48.0</ele><time>2026-04-11T16:43:41Z</time></trkpt><trkpt lat="42.42871389510404" lon="14.132384540982857"><ele>48.0</ele><time>2026-04-11T16:43:42Z</time></trkpt><trkpt lat="42.42887670572199" lon="14.132223731902354"><ele>47.0</ele><time>2026-04-11T16:43:43Z</time></trkpt><trkpt lat="42.42902362469661" lon="14.132063871667985"><ele>46.0</ele><time>2026-04-11T16:43:44Z</time></trkpt><trkpt lat="42.429169881534065" lon="14.131890356607455"><ele>45.0</ele><time>2026-04-11T16:43:45Z</time></trkpt><trkpt lat="42.42931563477362" lon="14.131702534021422"><ele>44.666666666666664</ele><time>2026-04-11T16:43:46Z</time></trkpt><trkpt lat="42.42946449143601" lon="14.131493373383694"><ele>44.33333333333333</ele><time>2026-04-11T16:43:47Z</time></trkpt><trkpt lat="42.42961921468712" lon="14.131280874233944"><ele>44.0</ele><time>2026-04-11T16:43:48Z</time></trkpt><trkpt lat="42.42977517086883" lon="14.131060265234943"><ele>44.0</ele><time>2026-04-11T16:43:49Z</time></trkpt><trkpt lat="42.42992756154222" lon="14.130836087062892"><ele>44.0</ele><time>2026-04-11T16:43:50Z</time></trkpt><trkpt lat="42.43007334136176" lon="14.13061514164618"><ele>44.0</ele><time>2026-04-11T16:43:51Z</time></trkpt><trkpt lat="42.43022306987269" lon="14.130393231129903"><ele>43.666666666666664</ele><time>2026-04-11T16:43:52Z</time></trkpt><trkpt lat="42.43038086938443" lon="14.130165813039953"><ele>43.333333333333336</ele><time>2026-04-11T16:43:53Z</time></trkpt><trkpt lat="42.43052743614755" lon="14.12994931763129"><ele>43.0</ele><time>2026-04-11T16:43:54Z</time></trkpt><trkpt lat="42.43067431366022" lon="14.129727412533047"><ele>44.66666666666667</ele><time>2026-04-11T16:43:55Z</time></trkpt><trkpt lat="42.430818804621126" lon="14.129502051796138"><ele>46.333333333333336</ele><time>2026-04-11T16:43:56Z</time></trkpt><trkpt lat="42.43096953837191" lon="14.129282688663306"><ele>48.0</ele><time>2026-04-11T16:43:57Z</time></trkpt><trkpt lat="42.431122716244325" lon="14.129066216051996"><ele>48.5</ele><time>2026-04-11T16:43:58Z</time></trkpt><trkpt lat="42.43128101903124" lon="14.12884459951738"><ele>49.0</ele><time>2026-04-11T16:43:59Z</time></trkpt><trkpt lat="42.431443591802775" lon="14.128625988242332"><ele>49.0</ele><time>2026-04-11T16:44:00Z</time></trkpt><trkpt lat="42.431607079263074" lon="14.128400549638194"><ele>49.0</ele><time>2026-04-11T16:44:01Z</time></trkpt><trkpt lat="42.43176934249265" lon="14.128170277165514"><ele>51.0</ele><time>2026-04-11T16:44:02Z</time></trkpt><trkpt lat="42.43192823446722" lon="14.127943505786387"><ele>53.0</ele><time>2026-04-11T16:44:03Z</time></trkpt><trkpt lat="42.43209077761356" lon="14.127722984083277"><ele>53.0</ele><time>2026-04-11T16:44:04Z</time></trkpt><trkpt lat="42.43226866377984" lon="14.127487020171126"><ele>53.0</ele><time>2026-04-11T16:44:05Z</time></trkpt><trkpt lat="42.43244222539077" lon="14.127254407978427"><ele>53.0</ele><time>2026-04-11T16:44:06Z</time></trkpt><trkpt lat="42.4326198955701" lon="14.127011004740067"><ele>53.0</ele><time>2026-04-11T16:44:07Z</time></trkpt><trkpt lat="42.43279848435125" lon="14.126770536648595"><ele>53.0</ele><time>2026-04-11T16:44:08Z</time></trkpt><trkpt lat="42.43296237249757" lon="14.126539617671908"><ele>53.0</ele><time>2026-04-11T16:44:09Z</time></trkpt><trkpt lat="42.43312799275316" lon="14.126317678176802"><ele>53.0</ele><time>2026-04-11T16:44:10Z</time></trkpt><trkpt lat="42.43330500495137" lon="14.126077038855712"><ele>53.0</ele><time>2026-04-11T16:44:11Z</time></trkpt><trkpt lat="42.43348502375" lon="14.125837962122565"><ele>53.0</ele><time>2026-04-11T16:44:12Z</time></trkpt><trkpt lat="42.433658714251145" lon="14.125595050660504"><ele>53.0</ele><time>2026-04-11T16:44:13Z</time></trkpt><trkpt lat="42.43383310242342" lon="14.125344345242672"><ele>53.0</ele><time>2026-04-11T16:44:14Z</time></trkpt><trkpt lat="42.434008272201645" lon="14.125095019939568"><ele>53.0</ele><time>2026-04-11T16:44:15Z</time></trkpt><trkpt lat="42.4341844402583" lon="14.124852919963983"><ele>58.5</ele><time>2026-04-11T16:44:16Z</time></trkpt><trkpt lat="42.43434351568837" lon="14.124624373230839"><ele>64.0</ele><time>2026-04-11T16:44:17Z</time></trkpt><trkpt lat="42.43450665367315" lon="14.124404121831983"><ele>65.0</ele><time>2026-04-11T16:44:18Z</time></trkpt><trkpt lat="42.43467676803795" lon="14.124178324338594"><ele>66.0</ele><time>2026-04-11T16:44:19Z</time></trkpt><trkpt lat="42.43484513616625" lon="14.123950639412607"><ele>66.0</ele><time>2026-04-11T16:44:20Z</time></trkpt><trkpt lat="42.435013932674615" lon="14.12374836177132"><ele>66.0</ele><time>2026-04-11T16:44:21Z</time></trkpt><trkpt lat="42.435278564206826" lon="14.123439556873135"><ele>66.0</ele><time>2026-04-11T16:44:23Z</time></trkpt><trkpt lat="42.4353819275926" lon="14.123313049562537"><ele>66.0</ele><time>2026-04-11T16:44:24Z</time></trkpt><trkpt lat="42.43546698573729" lon="14.123212538392565"><ele>66.0</ele><time>2026-04-11T16:44:25Z</time></trkpt><trkpt lat="42.43553782592127" lon="14.123140176927901"><ele>66.0</ele><time>2026-04-11T16:44:26Z</time></trkpt><trkpt lat="42.43562457999544" lon="14.123086417996834"><ele>66.0</ele><time>2026-04-11T16:44:27Z</time></trkpt><trkpt lat="42.43572353086892" lon="14.123070780135102"><ele>65.5</ele><time>2026-04-11T16:44:28Z</time></trkpt><trkpt lat="42.43584504396787" lon="14.123084851791017"><ele>65.0</ele><time>2026-04-11T16:44:29Z</time></trkpt><trkpt lat="42.43598432659309" lon="14.123135823903471"><ele>64.5</ele><time>2026-04-11T16:44:30Z</time></trkpt><trkpt lat="42.436146784051026" lon="14.123192944935102"><ele>64.0</ele><time>2026-04-11T16:44:31Z</time></trkpt><trkpt lat="42.43632702844076" lon="14.123235904573436"><ele>62.0</ele><time>2026-04-11T16:44:32Z</time></trkpt><trkpt lat="42.43651361098278" lon="14.123280992865354"><ele>60.0</ele><time>2026-04-11T16:44:33Z</time></trkpt><trkpt lat="42.436664927369044" lon="14.12332776244922"><ele>58.0</ele><time>2026-04-11T16:44:33.999Z</time></trkpt><trkpt lat="42.43680159837166" lon="14.123379615975614"><ele>58.0</ele><time>2026-04-11T16:44:34.999Z</time></trkpt><trkpt lat="42.43693309336487" lon="14.123436126635475"><ele>58.0</ele><time>2026-04-11T16:44:35.999Z</time></trkpt><trkpt lat="42.43705525907591" lon="14.123507270569071"><ele>58.0</ele><time>2026-04-11T16:44:36.999Z</time></trkpt><trkpt lat="42.437148388516455" lon="14.123602876897023"><ele>58.0</ele><time>2026-04-11T16:44:37.999Z</time></trkpt><trkpt lat="42.437229198968986" lon="14.123662561480604"><ele>59.33333333333333</ele><time>2026-04-11T16:44:38.999Z</time></trkpt><trkpt lat="42.437284146900076" lon="14.123738876027007"><ele>60.666666666666664</ele><time>2026-04-11T16:44:39.999Z</time></trkpt><trkpt lat="42.437331344031314" lon="14.12380298146617"><ele>62.0</ele><time>2026-04-11T16:44:40.999Z</time></trkpt><trkpt lat="42.43738256363847" lon="14.12387136913033"><ele>63.33333333333333</ele><time>2026-04-11T16:44:41.999Z</time></trkpt><trkpt lat="42.4374370853585" lon="14.123944404079122"><ele>64.66666666666667</ele><time>2026-04-11T16:44:42.999Z</time></trkpt><trkpt lat="42.437491424601035" lon="14.124028802229885"><ele>66.0</ele><time>2026-04-11T16:44:43.999Z</time></trkpt><trkpt lat="42.43753913337853" lon="14.124130267021787"><ele>66.0</ele><time>2026-04-11T16:44:44.999Z</time></trkpt><trkpt lat="42.43757452296329" lon="14.124244719610282"><ele>66.0</ele><time>2026-04-11T16:44:45.999Z</time></trkpt><trkpt lat="42.437601868962254" lon="14.12435883652837"><ele>66.0</ele><time>2026-04-11T16:44:46.999Z</time></trkpt><trkpt lat="42.437645013103335" lon="14.124464850228552"><ele>66.0</ele><time>2026-04-11T16:44:47.999Z</time></trkpt><trkpt lat="42.437704220865996" lon="14.124561347597266"><ele>66.0</ele><time>2026-04-11T16:44:48.999Z</time></trkpt><trkpt lat="42.437772214792645" lon="14.124638285502018"><ele>66.0</ele><time>2026-04-11T16:44:49.999Z</time></trkpt><trkpt lat="42.43784737082596" lon="14.124708560541773"><ele>66.0</ele><time>2026-04-11T16:44:50.999Z</time></trkpt><trkpt lat="42.43791106689177" lon="14.12475387115243"><ele>66.0</ele><time>2026-04-11T16:44:51.999Z</time></trkpt><trkpt lat="42.43798621903866" lon="14.12479127638753"><ele>66.0</ele><time>2026-04-11T16:44:52.999Z</time></trkpt><trkpt lat="42.43807396718484" lon="14.124856051064146"><ele>66.0</ele><time>2026-04-11T16:44:54.999Z</time></trkpt><trkpt lat="42.43812441761694" lon="14.124922694607326"><ele>66.0</ele><time>2026-04-11T16:44:56.999Z</time></trkpt><trkpt lat="42.438140267456795" lon="14.125017394573065"><ele>66.0</ele><time>2026-04-11T16:45:01.999Z</time></trkpt><trkpt lat="42.43810969316465" lon="14.124929838376568"><ele>66.0</ele><time>2026-04-11T16:45:06.999Z</time></trkpt><trkpt lat="42.4380735425288" lon="14.124806650960311"><ele>66.0</ele><time>2026-04-11T16:45:08.999Z</time></trkpt><trkpt lat="42.437998439899154" lon="14.124778943818487"><ele>66.0</ele><time>2026-04-11T16:45:09.999Z</time></trkpt><trkpt lat="42.43791345988702" lon="14.12474109037946"><ele>66.0</ele><time>2026-04-11T16:45:10.999Z</time></trkpt><trkpt lat="42.43781723385116" lon="14.124673015339845"><ele>66.0</ele><time>2026-04-11T16:45:11.999Z</time></trkpt><trkpt lat="42.43774160654366" lon="14.124599232901463"><ele>66.0</ele><time>2026-04-11T16:45:12.999Z</time></trkpt><trkpt lat="42.437676551600724" lon="14.124508749043658"><ele>66.0</ele><time>2026-04-11T16:45:13.999Z</time></trkpt><trkpt lat="42.437620517984776" lon="14.124414901932315"><ele>66.0</ele><time>2026-04-11T16:45:14.999Z</time></trkpt><trkpt lat="42.437577513093245" lon="14.12429485300637"><ele>66.0</ele><time>2026-04-11T16:45:15.999Z</time></trkpt><trkpt lat="42.43754163629348" lon="14.124149370484732"><ele>66.0</ele><time>2026-04-11T16:45:16.999Z</time></trkpt><trkpt lat="42.43750391795444" lon="14.124031424787862"><ele>66.33333333333333</ele><time>2026-04-11T16:45:17.999Z</time></trkpt><trkpt lat="42.437444158898046" lon="14.123915512966034"><ele>66.66666666666667</ele><time>2026-04-11T16:45:18.999Z</time></trkpt><trkpt lat="42.43737763000251" lon="14.123844667483153"><ele>67.0</ele><time>2026-04-11T16:45:19.999Z</time></trkpt><trkpt lat="42.43732184786433" lon="14.123741381948"><ele>67.33333333333334</ele><time>2026-04-11T16:45:21.999Z</time></trkpt><trkpt lat="42.43740296313129" lon="14.123690984091791"><ele>67.66666666666667</ele><time>2026-04-11T16:45:25.999Z</time></trkpt><trkpt lat="42.43746646832659" lon="14.123680143357154"><ele>68.0</ele><time>2026-04-11T16:45:26.999Z</time></trkpt><trkpt lat="42.43753021420633" lon="14.123734253685459"><ele>68.0</ele><time>2026-04-11T16:45:27.999Z</time></trkpt><trkpt lat="42.43761665860172" lon="14.123777006991228"><ele>68.0</ele><time>2026-04-11T16:45:28.999Z</time></trkpt><trkpt lat="42.43769661692325" lon="14.12378122191282"><ele>68.0</ele><time>2026-04-11T16:45:29.999Z</time></trkpt><trkpt lat="42.437788694929" lon="14.123774576966133"><ele>68.0</ele><time>2026-04-11T16:45:30.999Z</time></trkpt><trkpt lat="42.43789350775813" lon="14.12373960290966"><ele>68.0</ele><time>2026-04-11T16:45:31.999Z</time></trkpt><trkpt lat="42.437987243156485" lon="14.123730146902613"><ele>68.25</ele><time>2026-04-11T16:45:32.999Z</time></trkpt><trkpt lat="42.43810638877467" lon="14.1236782771965"><ele>68.5</ele><time>2026-04-11T16:45:33.999Z</time></trkpt><trkpt lat="42.43823353725702" lon="14.123643982985502"><ele>68.75</ele><time>2026-04-11T16:45:34.998Z</time></trkpt><trkpt lat="42.43834749167307" lon="14.123603465312186"><ele>69.0</ele><time>2026-04-11T16:45:35.998Z</time></trkpt><trkpt lat="42.438438245607855" lon="14.123572791798399"><ele>69.0</ele><time>2026-04-11T16:45:36.998Z</time></trkpt><trkpt lat="42.43854293836549" lon="14.123540295830605"><ele>69.0</ele><time>2026-04-11T16:45:37.998Z</time></trkpt><trkpt lat="42.438651156573655" lon="14.123526741841122"><ele>69.0</ele><time>2026-04-11T16:45:38.998Z</time></trkpt><trkpt lat="42.43876418028484" lon="14.123515153762767"><ele>69.0</ele><time>2026-04-11T16:45:39.998Z</time></trkpt><trkpt lat="42.43887891061869" lon="14.123508420091133"><ele>69.0</ele><time>2026-04-11T16:45:41Z</time></trkpt><trkpt lat="42.43899444956805" lon="14.123498968934395"><ele>71.75</ele><time>2026-04-11T16:45:42Z</time></trkpt><trkpt lat="42.43910172727573" lon="14.123490027965405"><ele>74.5</ele><time>2026-04-11T16:45:43Z</time></trkpt><trkpt lat="42.43920940273273" lon="14.123455260688356"><ele>77.25</ele><time>2026-04-11T16:45:44Z</time></trkpt><trkpt lat="42.439325839288166" lon="14.123395598116682"><ele>80.0</ele><time>2026-04-11T16:45:45Z</time></trkpt><trkpt lat="42.43944512018044" lon="14.123327912753835"><ele>80.0</ele><time>2026-04-11T16:45:46Z</time></trkpt><trkpt lat="42.43956946507904" lon="14.123272402222428"><ele>80.0</ele><time>2026-04-11T16:45:47Z</time></trkpt><trkpt lat="42.43968645840574" lon="14.123232290828705"><ele>80.0</ele><time>2026-04-11T16:45:48Z</time></trkpt><trkpt lat="42.439789285332594" lon="14.123238519521978"><ele>80.0</ele><time>2026-04-11T16:45:49Z</time></trkpt><trkpt lat="42.439899334065835" lon="14.123220599119406"><ele>84.75</ele><time>2026-04-11T16:45:50Z</time></trkpt><trkpt lat="42.44001481774739" lon="14.123234823148529"><ele>89.5</ele><time>2026-04-11T16:45:51Z</time></trkpt><trkpt lat="42.44013547061605" lon="14.123256096823761"><ele>94.25</ele><time>2026-04-11T16:45:52Z</time></trkpt><trkpt lat="42.440258557584414" lon="14.123275185937361"><ele>99.0</ele><time>2026-04-11T16:45:53Z</time></trkpt><trkpt lat="42.44037694893348" lon="14.123298314752942"><ele>100.75</ele><time>2026-04-11T16:45:54Z</time></trkpt><trkpt lat="42.44048597299617" lon="14.123322814581218"><ele>102.5</ele><time>2026-04-11T16:45:55Z</time></trkpt><trkpt lat="42.44059659452749" lon="14.12336044048011"><ele>104.25</ele><time>2026-04-11T16:45:56Z</time></trkpt><trkpt lat="42.44070593427112" lon="14.123423730895075"><ele>106.0</ele><time>2026-04-11T16:45:57Z</time></trkpt><trkpt lat="42.44081418092231" lon="14.123492792214748"><ele>106.0</ele><time>2026-04-11T16:45:58Z</time></trkpt><trkpt lat="42.44092675545305" lon="14.12356744770922"><ele>106.0</ele><time>2026-04-11T16:45:59Z</time></trkpt><trkpt lat="42.441024097684455" lon="14.123633319590665"><ele>106.0</ele><time>2026-04-11T16:46:00Z</time></trkpt><trkpt lat="42.441119390548565" lon="14.123688370431108"><ele>106.0</ele><time>2026-04-11T16:46:01Z</time></trkpt><trkpt lat="42.44121010462195" lon="14.123742717242203"><ele>106.0</ele><time>2026-04-11T16:46:02Z</time></trkpt><trkpt lat="42.44129418547247" lon="14.123802097109497"><ele>107.75</ele><time>2026-04-11T16:46:03Z</time></trkpt><trkpt lat="42.44138708017049" lon="14.123855007376875"><ele>109.5</ele><time>2026-04-11T16:46:04Z</time></trkpt><trkpt lat="42.44149480590914" lon="14.123890723214226"><ele>111.25</ele><time>2026-04-11T16:46:05Z</time></trkpt><trkpt lat="42.44161709521457" lon="14.123907774571624"><ele>113.0</ele><time>2026-04-11T16:46:06Z</time></trkpt><trkpt lat="42.44173796625164" lon="14.123923109914957"><ele>113.0</ele><time>2026-04-11T16:46:07Z</time></trkpt><trkpt lat="42.44184939247516" lon="14.123939227375834"><ele>113.0</ele><time>2026-04-11T16:46:08Z</time></trkpt><trkpt lat="42.44196793560047" lon="14.123955386367623"><ele>113.0</ele><time>2026-04-11T16:46:09Z</time></trkpt><trkpt lat="42.44209221528633" lon="14.12395020069389"><ele>113.0</ele><time>2026-04-11T16:46:10Z</time></trkpt><trkpt lat="42.44221655128969" lon="14.12393310591288"><ele>111.0</ele><time>2026-04-11T16:46:11Z</time></trkpt><trkpt lat="42.44233670830012" lon="14.123897748941536"><ele>109.0</ele><time>2026-04-11T16:46:12Z</time></trkpt><trkpt lat="42.4424479293841" lon="14.123875929085369"><ele>107.0</ele><time>2026-04-11T16:46:13Z</time></trkpt><trkpt lat="42.44255713932679" lon="14.1238667995745"><ele>105.0</ele><time>2026-04-11T16:46:14Z</time></trkpt><trkpt lat="42.442660308983584" lon="14.123818627932312"><ele>105.0</ele><time>2026-04-11T16:46:15Z</time></trkpt><trkpt lat="42.44276775839025" lon="14.12379177531493"><ele>105.0</ele><time>2026-04-11T16:46:16Z</time></trkpt><trkpt lat="42.442873514931236" lon="14.123755706666419"><ele>105.0</ele><time>2026-04-11T16:46:17Z</time></trkpt><trkpt lat="42.442977507776284" lon="14.123717171743236"><ele>105.0</ele><time>2026-04-11T16:46:18Z</time></trkpt><trkpt lat="42.443080688303276" lon="14.12367568285227"><ele>105.0</ele><time>2026-04-11T16:46:19Z</time></trkpt><trkpt lat="42.443184754807355" lon="14.123642662560567"><ele>106.2</ele><time>2026-04-11T16:46:20Z</time></trkpt><trkpt lat="42.44328736773754" lon="14.12361220418251"><ele>107.4</ele><time>2026-04-11T16:46:21Z</time></trkpt><trkpt lat="42.443379428424" lon="14.123584211470872"><ele>108.6</ele><time>2026-04-11T16:46:22Z</time></trkpt><trkpt lat="42.44347141967742" lon="14.123553432431235"><ele>109.8</ele><time>2026-04-11T16:46:23Z</time></trkpt><trkpt lat="42.443576718013354" lon="14.123523395246758"><ele>111.0</ele><time>2026-04-11T16:46:24Z</time></trkpt><trkpt lat="42.4436806674117" lon="14.123490552209116"><ele>111.0</ele><time>2026-04-11T16:46:25Z</time></trkpt><trkpt lat="42.44377371874341" lon="14.123464712634599"><ele>111.0</ele><time>2026-04-11T16:46:26Z</time></trkpt><trkpt lat="42.44386216456121" lon="14.12344035258887"><ele>111.0</ele><time>2026-04-11T16:46:27Z</time></trkpt><trkpt lat="42.44395144895076" lon="14.12343439904841"><ele>111.0</ele><time>2026-04-11T16:46:28Z</time></trkpt><trkpt lat="42.44405334155445" lon="14.123456370256442"><ele>111.0</ele><time>2026-04-11T16:46:29Z</time></trkpt><trkpt lat="42.44414826076136" lon="14.123470378346479"><ele>111.25</ele><time>2026-04-11T16:46:30Z</time></trkpt><trkpt lat="42.44423662554542" lon="14.123460913254753"><ele>111.5</ele><time>2026-04-11T16:46:31Z</time></trkpt><trkpt lat="42.44433123560734" lon="14.123417850115384"><ele>111.75</ele><time>2026-04-11T16:46:32Z</time></trkpt><trkpt lat="42.44443155674948" lon="14.123317329697196"><ele>112.0</ele><time>2026-04-11T16:46:33Z</time></trkpt><trkpt lat="42.44452816157487" lon="14.123174212959894"><ele>112.0</ele><time>2026-04-11T16:46:34Z</time></trkpt><trkpt lat="42.44461830262319" lon="14.123047223453217"><ele>111.99999999999999</ele><time>2026-04-11T16:46:35Z</time></trkpt><trkpt lat="42.444691806977396" lon="14.12295339280887"><ele>111.99999999999999</ele><time>2026-04-11T16:46:36Z</time></trkpt><trkpt lat="42.44475981006583" lon="14.122861755819285"><ele>112.0</ele><time>2026-04-11T16:46:37Z</time></trkpt><trkpt lat="42.444848656976184" lon="14.122807065146537"><ele>112.0</ele><time>2026-04-11T16:46:38Z</time></trkpt><trkpt lat="42.444952460591004" lon="14.122755865833538"><ele>114.8</ele><time>2026-04-11T16:46:39Z</time></trkpt><trkpt lat="42.4450472509456" lon="14.122693486266527"><ele>117.6</ele><time>2026-04-11T16:46:40Z</time></trkpt><trkpt lat="42.44513957711388" lon="14.122654673053637"><ele>120.39999999999999</ele><time>2026-04-11T16:46:40.999Z</time></trkpt><trkpt lat="42.44522453231756" lon="14.122587094177739"><ele>123.19999999999999</ele><time>2026-04-11T16:46:41.999Z</time></trkpt><trkpt lat="42.44532065446139" lon="14.122509270780611"><ele>126.0</ele><time>2026-04-11T16:46:42.999Z</time></trkpt><trkpt lat="42.445397325406084" lon="14.122425276147213"><ele>126.4</ele><time>2026-04-11T16:46:43.999Z</time></trkpt><trkpt lat="42.4454722379061" lon="14.122329585069219"><ele>126.8</ele><time>2026-04-11T16:46:44.999Z</time></trkpt><trkpt lat="42.445538904686885" lon="14.122227619567791"><ele>127.20000000000002</ele><time>2026-04-11T16:46:45.999Z</time></trkpt><trkpt lat="42.445610988720134" lon="14.12212430603831"><ele>127.60000000000001</ele><time>2026-04-11T16:46:46.999Z</time></trkpt><trkpt lat="42.445689653314" lon="14.122037663079883"><ele>128.0</ele><time>2026-04-11T16:46:47.999Z</time></trkpt><trkpt lat="42.445780030094525" lon="14.121968767435089"><ele>128.0</ele><time>2026-04-11T16:46:48.999Z</time></trkpt><trkpt lat="42.445879640662035" lon="14.121923907760022"><ele>128.0</ele><time>2026-04-11T16:46:49.999Z</time></trkpt><trkpt lat="42.4459890669173" lon="14.121889742178436"><ele>128.0</ele><time>2026-04-11T16:46:50.999Z</time></trkpt><trkpt lat="42.44610916797008" lon="14.121861860593784"><ele>128.0</ele><time>2026-04-11T16:46:51.999Z</time></trkpt><trkpt lat="42.44623659788103" lon="14.121843103936206"><ele>128.8</ele><time>2026-04-11T16:46:52.999Z</time></trkpt><trkpt lat="42.446364017436125" lon="14.121813811259376"><ele>129.60000000000002</ele><time>2026-04-11T16:46:53.999Z</time></trkpt><trkpt lat="42.44646713366614" lon="14.121779788058037"><ele>130.39999999999998</ele><time>2026-04-11T16:46:54.999Z</time></trkpt><trkpt lat="42.44656603088331" lon="14.121749268538549"><ele>131.2</ele><time>2026-04-11T16:46:55.999Z</time></trkpt><trkpt lat="42.44667574816739" lon="14.121728528456966"><ele>132.0</ele><time>2026-04-11T16:46:56.999Z</time></trkpt><trkpt lat="42.44678792519594" lon="14.121724984334504"><ele>132.0</ele><time>2026-04-11T16:46:57.999Z</time></trkpt><trkpt lat="42.44690264461834" lon="14.121737806312742"><ele>132.0</ele><time>2026-04-11T16:46:58.999Z</time></trkpt><trkpt lat="42.447006563490326" lon="14.121760044189605"><ele>132.0</ele><time>2026-04-11T16:46:59.999Z</time></trkpt><trkpt lat="42.44709540231611" lon="14.121771197661733"><ele>132.0</ele><time>2026-04-11T16:47:00.999Z</time></trkpt><trkpt lat="42.44719043702274" lon="14.121785744340709"><ele>132.0</ele><time>2026-04-11T16:47:01.999Z</time></trkpt><trkpt lat="42.44728701127769" lon="14.121793608268261"><ele>132.6</ele><time>2026-04-11T16:47:02.999Z</time></trkpt><trkpt lat="42.44738688853051" lon="14.12180605970012"><ele>133.2</ele><time>2026-04-11T16:47:03.999Z</time></trkpt><trkpt lat="42.447476248989545" lon="14.12182620777056"><ele>133.8</ele><time>2026-04-11T16:47:04.999Z</time></trkpt><trkpt lat="42.44755864880488" lon="14.121869060090894"><ele>134.4</ele><time>2026-04-11T16:47:05.999Z</time></trkpt><trkpt lat="42.447630721267814" lon="14.121941317430094"><ele>135.0</ele><time>2026-04-11T16:47:06.999Z</time></trkpt><trkpt lat="42.44770801397127" lon="14.122004757277566"><ele>135.0</ele><time>2026-04-11T16:47:07.999Z</time></trkpt><trkpt lat="42.44780132543059" lon="14.122057724669311"><ele>135.0</ele><time>2026-04-11T16:47:08.999Z</time></trkpt><trkpt lat="42.44789379331426" lon="14.122123812982029"><ele>135.0</ele><time>2026-04-11T16:47:09.999Z</time></trkpt><trkpt lat="42.44798630760411" lon="14.122192005664946"><ele>135.0</ele><time>2026-04-11T16:47:10.999Z</time></trkpt><trkpt lat="42.44808140813934" lon="14.122257975369651"><ele>135.0</ele><time>2026-04-11T16:47:11.999Z</time></trkpt><trkpt lat="42.44817464889551" lon="14.122319332460236"><ele>134.0</ele><time>2026-04-11T16:47:12.999Z</time></trkpt><trkpt lat="42.44826580628079" lon="14.122376960457574"><ele>133.0</ele><time>2026-04-11T16:47:13.999Z</time></trkpt><trkpt lat="42.44834782365642" lon="14.122428680924173"><ele>132.0</ele><time>2026-04-11T16:47:14.999Z</time></trkpt><trkpt lat="42.44843239618839" lon="14.122486046342821"><ele>131.0</ele><time>2026-04-11T16:47:15.999Z</time></trkpt><trkpt lat="42.44851741496255" lon="14.122536094221108"><ele>130.0</ele><time>2026-04-11T16:47:16.999Z</time></trkpt><trkpt lat="42.44860909633755" lon="14.122584888988959"><ele>130.0</ele><time>2026-04-11T16:47:17.999Z</time></trkpt><trkpt lat="42.44870491946954" lon="14.122621042377263"><ele>130.0</ele><time>2026-04-11T16:47:18.999Z</time></trkpt><trkpt lat="42.4488073037336" lon="14.122638415865579"><ele>130.0</ele><time>2026-04-11T16:47:19.999Z</time></trkpt><trkpt lat="42.44890734051053" lon="14.12265236452194"><ele>130.0</ele><time>2026-04-11T16:47:20.999Z</time></trkpt><trkpt lat="42.44900526810398" lon="14.122656522595609"><ele>130.0</ele><time>2026-04-11T16:47:21.999Z</time></trkpt><trkpt lat="42.44910007081372" lon="14.122660192213761"><ele>130.4</ele><time>2026-04-11T16:47:22.999Z</time></trkpt><trkpt lat="42.449196593815316" lon="14.122653946892406"><ele>130.8</ele><time>2026-04-11T16:47:23.999Z</time></trkpt><trkpt lat="42.44929169222844" lon="14.122643103878133"><ele>131.2</ele><time>2026-04-11T16:47:24.999Z</time></trkpt><trkpt lat="42.44938847898916" lon="14.122634299912972"><ele>131.6</ele><time>2026-04-11T16:47:25.999Z</time></trkpt><trkpt lat="42.44949248332868" lon="14.122634285244368"><ele>132.0</ele><time>2026-04-11T16:47:26.999Z</time></trkpt><trkpt lat="42.44960871241523" lon="14.122636277763233"><ele>132.5</ele><time>2026-04-11T16:47:27.999Z</time></trkpt><trkpt lat="42.44973053561384" lon="14.122636846932297"><ele>133.0</ele><time>2026-04-11T16:47:28.999Z</time></trkpt><trkpt lat="42.44985883567726" lon="14.12263525014673"><ele>133.5</ele><time>2026-04-11T16:47:29.999Z</time></trkpt><trkpt lat="42.44998404147473" lon="14.122633595633786"><ele>134.0</ele><time>2026-04-11T16:47:30.999Z</time></trkpt><trkpt lat="42.45009440278462" lon="14.122637438861563"><ele>134.0</ele><time>2026-04-11T16:47:31.999Z</time></trkpt><trkpt lat="42.450197975557366" lon="14.12264689779913"><ele>134.0</ele><time>2026-04-11T16:47:32.999Z</time></trkpt><trkpt lat="42.45029505564408" lon="14.12266087471657"><ele>134.0</ele><time>2026-04-11T16:47:33.999Z</time></trkpt><trkpt lat="42.450383970777416" lon="14.122664167289914"><ele>134.0</ele><time>2026-04-11T16:47:34.999Z</time></trkpt><trkpt lat="42.45048100929213" lon="14.122657053542246"><ele>134.0</ele><time>2026-04-11T16:47:35.999Z</time></trkpt><trkpt lat="42.45056876995113" lon="14.122639858088148"><ele>134.0</ele><time>2026-04-11T16:47:36.999Z</time></trkpt><trkpt lat="42.45068472782927" lon="14.122636895753558"><ele>134.0</ele><time>2026-04-11T16:47:37.999Z</time></trkpt><trkpt lat="42.450799934192716" lon="14.122643509850942"><ele>134.0</ele><time>2026-04-11T16:47:38.999Z</time></trkpt><trkpt lat="42.45091648574308" lon="14.12265606456163"><ele>134.0</ele><time>2026-04-11T16:47:39.999Z</time></trkpt><trkpt lat="42.451028443218526" lon="14.122668232739423"><ele>134.0</ele><time>2026-04-11T16:47:40.999Z</time></trkpt><trkpt lat="42.451138377598056" lon="14.122677825812369"><ele>134.0</ele><time>2026-04-11T16:47:41.998Z</time></trkpt><trkpt lat="42.45124683439065" lon="14.122681464898802"><ele>134.0</ele><time>2026-04-11T16:47:42.998Z</time></trkpt><trkpt lat="42.45135834257969" lon="14.12268264156729"><ele>134.0</ele><time>2026-04-11T16:47:43.998Z</time></trkpt><trkpt lat="42.45147497260228" lon="14.122688779444932"><ele>134.0</ele><time>2026-04-11T16:47:44.998Z</time></trkpt><trkpt lat="42.451585161829904" lon="14.122692780471402"><ele>134.2</ele><time>2026-04-11T16:47:45.998Z</time></trkpt><trkpt lat="42.451691815363205" lon="14.122691559391914"><ele>134.4</ele><time>2026-04-11T16:47:47Z</time></trkpt><trkpt lat="42.45179528818566" lon="14.122690182489846"><ele>134.6</ele><time>2026-04-11T16:47:48Z</time></trkpt><trkpt lat="42.45189429983746" lon="14.122684136973511"><ele>134.8</ele><time>2026-04-11T16:47:49Z</time></trkpt><trkpt lat="42.451991238657634" lon="14.12267901098314"><ele>135.0</ele><time>2026-04-11T16:47:50Z</time></trkpt><trkpt lat="42.452091921460145" lon="14.122698881351864"><ele>133.75</ele><time>2026-04-11T16:47:51Z</time></trkpt><trkpt lat="42.45219421525386" lon="14.122698657025866"><ele>132.5</ele><time>2026-04-11T16:47:52Z</time></trkpt><trkpt lat="42.452297256781236" lon="14.122684529689865"><ele>131.25</ele><time>2026-04-11T16:47:53Z</time></trkpt><trkpt lat="42.45241543171912" lon="14.122691117154044"><ele>130.0</ele><time>2026-04-11T16:47:54Z</time></trkpt><trkpt lat="42.452542908735474" lon="14.122667817570205"><ele>130.0</ele><time>2026-04-11T16:47:55Z</time></trkpt><trkpt lat="42.45266085951694" lon="14.122630390418962"><ele>130.0</ele><time>2026-04-11T16:47:56Z</time></trkpt><trkpt lat="42.452763840573716" lon="14.122586111307742"><ele>130.0</ele><time>2026-04-11T16:47:57Z</time></trkpt><trkpt lat="42.45285846577388" lon="14.12254125438887"><ele>130.0</ele><time>2026-04-11T16:47:58Z</time></trkpt><trkpt lat="42.45294687179" lon="14.122510243758779"><ele>130.0</ele><time>2026-04-11T16:47:59Z</time></trkpt><trkpt lat="42.45303178765483" lon="14.12248994444701"><ele>130.6</ele><time>2026-04-11T16:48:00Z</time></trkpt><trkpt lat="42.45313877846842" lon="14.12248631048469"><ele>131.2</ele><time>2026-04-11T16:48:01Z</time></trkpt><trkpt lat="42.453244814251214" lon="14.122487824381025"><ele>131.8</ele><time>2026-04-11T16:48:02Z</time></trkpt><trkpt lat="42.453359790618116" lon="14.122498476038968"><ele>132.4</ele><time>2026-04-11T16:48:03Z</time></trkpt><trkpt lat="42.4534683481127" lon="14.122487082560015"><ele>133.0</ele><time>2026-04-11T16:48:04Z</time></trkpt><trkpt lat="42.45358608315074" lon="14.122441825236498"><ele>135.0</ele><time>2026-04-11T16:48:05Z</time></trkpt><trkpt lat="42.45370475575235" lon="14.122370973003038"><ele>137.0</ele><time>2026-04-11T16:48:06Z</time></trkpt><trkpt lat="42.453814457707125" lon="14.122282361001849"><ele>139.0</ele><time>2026-04-11T16:48:07Z</time></trkpt><trkpt lat="42.453915368314036" lon="14.12218897456062"><ele>141.0</ele><time>2026-04-11T16:48:08Z</time></trkpt><trkpt lat="42.45401439669801" lon="14.122108390198228"><ele>141.0</ele><time>2026-04-11T16:48:09Z</time></trkpt><trkpt lat="42.454099072431326" lon="14.122051414790267"><ele>141.0</ele><time>2026-04-11T16:48:10Z</time></trkpt><trkpt lat="42.454175616196856" lon="14.122008289399904"><ele>141.0</ele><time>2026-04-11T16:48:11Z</time></trkpt><trkpt lat="42.454255620164794" lon="14.121995308382258"><ele>141.0</ele><time>2026-04-11T16:48:12Z</time></trkpt><trkpt lat="42.4543406455347" lon="14.122013051999408"><ele>141.0</ele><time>2026-04-11T16:48:13Z</time></trkpt><trkpt lat="42.454414524449646" lon="14.12206895890215"><ele>141.0</ele><time>2026-04-11T16:48:14Z</time></trkpt><trkpt lat="42.454484133623176" lon="14.12215572254144"><ele>141.0</ele><time>2026-04-11T16:48:15Z</time></trkpt><trkpt lat="42.45455091394927" lon="14.12226964512907"><ele>141.0</ele><time>2026-04-11T16:48:16Z</time></trkpt><trkpt lat="42.45460620142673" lon="14.122395449178851"><ele>141.0</ele><time>2026-04-11T16:48:17Z</time></trkpt><trkpt lat="42.45466353353764" lon="14.12252717069016"><ele>141.0</ele><time>2026-04-11T16:48:18Z</time></trkpt><trkpt lat="42.45472608133554" lon="14.122645776537524"><ele>141.0</ele><time>2026-04-11T16:48:19Z</time></trkpt><trkpt lat="42.45478657296091" lon="14.122747801958269"><ele>143.0</ele><time>2026-04-11T16:48:20Z</time></trkpt><trkpt lat="42.454857303625445" lon="14.122853824165198"><ele>145.0</ele><time>2026-04-11T16:48:21Z</time></trkpt><trkpt lat="42.45493539983691" lon="14.122960745380123"><ele>147.0</ele><time>2026-04-11T16:48:22Z</time></trkpt><trkpt lat="42.4550159790143" lon="14.123064736305519"><ele>149.0</ele><time>2026-04-11T16:48:23Z</time></trkpt><trkpt lat="42.45508512417456" lon="14.123155159845133"><ele>151.0</ele><time>2026-04-11T16:48:24Z</time></trkpt><trkpt lat="42.455143278371175" lon="14.12324475902049"><ele>151.0</ele><time>2026-04-11T16:48:25Z</time></trkpt><trkpt lat="42.455202641798095" lon="14.123331245374153"><ele>151.0</ele><time>2026-04-11T16:48:26Z</time></trkpt><trkpt lat="42.45525950886445" lon="14.123416994926643"><ele>151.0</ele><time>2026-04-11T16:48:27Z</time></trkpt><trkpt lat="42.455315828470155" lon="14.123505989228773"><ele>151.0</ele><time>2026-04-11T16:48:28Z</time></trkpt><trkpt lat="42.45538594467166" lon="14.123607368912202"><ele>151.0</ele><time>2026-04-11T16:48:29Z</time></trkpt><trkpt lat="42.45546666125525" lon="14.123725990578745"><ele>151.0</ele><time>2026-04-11T16:48:30Z</time></trkpt><trkpt lat="42.455560240670195" lon="14.12384307461976"><ele>151.0</ele><time>2026-04-11T16:48:31Z</time></trkpt><trkpt lat="42.45565128973756" lon="14.12394349904754"><ele>151.0</ele><time>2026-04-11T16:48:32Z</time></trkpt><trkpt lat="42.455733563964955" lon="14.124026045978578"><ele>151.0</ele><time>2026-04-11T16:48:33Z</time></trkpt><trkpt lat="42.4558174831025" lon="14.124111454522046"><ele>152.8</ele><time>2026-04-11T16:48:34Z</time></trkpt><trkpt lat="42.45590275589535" lon="14.12420151034561"><ele>154.6</ele><time>2026-04-11T16:48:35Z</time></trkpt><trkpt lat="42.45599188529017" lon="14.124285803296782"><ele>156.4</ele><time>2026-04-11T16:48:36Z</time></trkpt><trkpt lat="42.45607861140726" lon="14.124361040295264"><ele>158.2</ele><time>2026-04-11T16:48:37Z</time></trkpt><trkpt lat="42.45616484122594" lon="14.124440000900439"><ele>160.0</ele><time>2026-04-11T16:48:38Z</time></trkpt><trkpt lat="42.45623903173087" lon="14.12451495423287"><ele>160.0</ele><time>2026-04-11T16:48:39Z</time></trkpt><trkpt lat="42.45630726701717" lon="14.12457975681356"><ele>160.0</ele><time>2026-04-11T16:48:40Z</time></trkpt><trkpt lat="42.456369883061114" lon="14.124647433981707"><ele>160.0</ele><time>2026-04-11T16:48:41Z</time></trkpt><trkpt lat="42.45645073557024" lon="14.12473162925838"><ele>160.0</ele><time>2026-04-11T16:48:42Z</time></trkpt><trkpt lat="42.45654909278197" lon="14.124802415623744"><ele>160.0</ele><time>2026-04-11T16:48:43Z</time></trkpt><trkpt lat="42.45664947166739" lon="14.124850895671791"><ele>160.0</ele><time>2026-04-11T16:48:44Z</time></trkpt><trkpt lat="42.45674217269052" lon="14.12489172855057"><ele>160.0</ele><time>2026-04-11T16:48:45Z</time></trkpt><trkpt lat="42.456830125026755" lon="14.124927892473536"><ele>160.0</ele><time>2026-04-11T16:48:46Z</time></trkpt><trkpt lat="42.45690540459944" lon="14.124952933243966"><ele>160.0</ele><time>2026-04-11T16:48:47Z</time></trkpt><trkpt lat="42.45697482091661" lon="14.124977302349134"><ele>160.0</ele><time>2026-04-11T16:48:48Z</time></trkpt><trkpt lat="42.45706987164597" lon="14.124979677900898"><ele>160.0</ele><time>2026-04-11T16:48:50Z</time></trkpt><trkpt lat="42.45714085975599" lon="14.125126686946073"><ele>161.4</ele><time>2026-04-11T16:48:52Z</time></trkpt><trkpt lat="42.457175010142365" lon="14.125247177709895"><ele>162.8</ele><time>2026-04-11T16:48:53Z</time></trkpt><trkpt lat="42.45720555717756" lon="14.12537847825855"><ele>164.2</ele><time>2026-04-11T16:48:54Z</time></trkpt><trkpt lat="42.45724282706319" lon="14.125525057299221"><ele>165.6</ele><time>2026-04-11T16:48:54.999Z</time></trkpt><trkpt lat="42.45728922498365" lon="14.125689549117524"><ele>167.0</ele><time>2026-04-11T16:48:55.999Z</time></trkpt><trkpt lat="42.45734928025767" lon="14.125868176966405"><ele>167.0</ele><time>2026-04-11T16:48:56.999Z</time></trkpt><trkpt lat="42.45741714983449" lon="14.126038165101896"><ele>167.0</ele><time>2026-04-11T16:48:57.999Z</time></trkpt><trkpt lat="42.45750002388091" lon="14.126210413078514"><ele>167.0</ele><time>2026-04-11T16:48:58.999Z</time></trkpt><trkpt lat="42.457597430781526" lon="14.126393076718458"><ele>164.25</ele><time>2026-04-11T16:48:59.999Z</time></trkpt><trkpt lat="42.45768968142067" lon="14.126568323015364"><ele>161.5</ele><time>2026-04-11T16:49:00.999Z</time></trkpt><trkpt lat="42.45777246456207" lon="14.126734125098643"><ele>158.75</ele><time>2026-04-11T16:49:01.999Z</time></trkpt><trkpt lat="42.457851779077096" lon="14.126893007834248"><ele>156.0</ele><time>2026-04-11T16:49:02.999Z</time></trkpt><trkpt lat="42.457928773409655" lon="14.127018977552176"><ele>157.75</ele><time>2026-04-11T16:49:03.999Z</time></trkpt><trkpt lat="42.45803436432405" lon="14.12713625947149"><ele>159.5</ele><time>2026-04-11T16:49:04.999Z</time></trkpt><trkpt lat="42.458162008152" lon="14.127243894490475"><ele>161.25</ele><time>2026-04-11T16:49:05.999Z</time></trkpt><trkpt lat="42.458269349086386" lon="14.127368575531113"><ele>163.0</ele><time>2026-04-11T16:49:06.999Z</time></trkpt><trkpt lat="42.45835245512659" lon="14.127534674398301"><ele>163.0</ele><time>2026-04-11T16:49:07.999Z</time></trkpt><trkpt lat="42.45842831849674" lon="14.127738956190688"><ele>163.0</ele><time>2026-04-11T16:49:08.999Z</time></trkpt><trkpt lat="42.45850168282015" lon="14.127951035522452"><ele>163.0</ele><time>2026-04-11T16:49:09.999Z</time></trkpt><trkpt lat="42.45856546782646" lon="14.12813803332772"><ele>161.0</ele><time>2026-04-11T16:49:10.999Z</time></trkpt><trkpt lat="42.458625122681994" lon="14.128317878483546"><ele>159.0</ele><time>2026-04-11T16:49:11.999Z</time></trkpt><trkpt lat="42.458676808006864" lon="14.128500408651856"><ele>157.0</ele><time>2026-04-11T16:49:12.999Z</time></trkpt><trkpt lat="42.458702572030234" lon="14.128697877565017"><ele>155.0</ele><time>2026-04-11T16:49:13.999Z</time></trkpt><trkpt lat="42.458698466420806" lon="14.128903716148452"><ele>156.66666666666666</ele><time>2026-04-11T16:49:14.999Z</time></trkpt><trkpt lat="42.45867369143814" lon="14.129105362863086"><ele>158.33333333333334</ele><time>2026-04-11T16:49:15.999Z</time></trkpt><trkpt lat="42.458621666634954" lon="14.129307691491626"><ele>160.0</ele><time>2026-04-11T16:49:16.998Z</time></trkpt><trkpt lat="42.45854838737917" lon="14.129510632970852"><ele>160.0</ele><time>2026-04-11T16:49:17.998Z</time></trkpt><trkpt lat="42.45847026256739" lon="14.129691162719405"><ele>160.0</ele><time>2026-04-11T16:49:18.998Z</time></trkpt><trkpt lat="42.45837011481055" lon="14.129837806019962"><ele>160.0</ele><time>2026-04-11T16:49:19.998Z</time></trkpt><trkpt lat="42.45826272574066" lon="14.129990180815208"><ele>160.33333333333334</ele><time>2026-04-11T16:49:20.998Z</time></trkpt><trkpt lat="42.45813998993001" lon="14.130141734505571"><ele>160.66666666666666</ele><time>2026-04-11T16:49:21.998Z</time></trkpt><trkpt lat="42.45800206458637" lon="14.13030982338649"><ele>161.0</ele><time>2026-04-11T16:49:22.998Z</time></trkpt><trkpt lat="42.457850257492204" lon="14.130458616978649"><ele>161.0</ele><time>2026-04-11T16:49:23.998Z</time></trkpt><trkpt lat="42.457706969776304" lon="14.13062217316741"><ele>161.0</ele><time>2026-04-11T16:49:24.998Z</time></trkpt><trkpt lat="42.45757344716006" lon="14.130826715908688"><ele>161.0</ele><time>2026-04-11T16:49:25.998Z</time></trkpt><trkpt lat="42.457453515808766" lon="14.13107068566891"><ele>160.5</ele><time>2026-04-11T16:49:26.998Z</time></trkpt><trkpt lat="42.45734346888312" lon="14.131339403667322"><ele>160.0</ele><time>2026-04-11T16:49:27.998Z</time></trkpt><trkpt lat="42.45722925688983" lon="14.1316295654275"><ele>162.0</ele><time>2026-04-11T16:49:28.998Z</time></trkpt><trkpt lat="42.45711418076511" lon="14.131908439061364"><ele>164.0</ele><time>2026-04-11T16:49:29.998Z</time></trkpt><trkpt lat="42.45700865337723" lon="14.132158843295521"><ele>166.0</ele><time>2026-04-11T16:49:30.998Z</time></trkpt><trkpt lat="42.456916628434065" lon="14.132388934775104"><ele>166.0</ele><time>2026-04-11T16:49:31.998Z</time></trkpt><trkpt lat="42.456844362012816" lon="14.132624448142"><ele>166.0</ele><time>2026-04-11T16:49:32.998Z</time></trkpt><trkpt lat="42.45679550743529" lon="14.13290077419036"><ele>166.0</ele><time>2026-04-11T16:49:33.998Z</time></trkpt><trkpt lat="42.45676302642443" lon="14.133185551676883"><ele>166.66666666666669</ele><time>2026-04-11T16:49:34.998Z</time></trkpt><trkpt lat="42.45672983157251" lon="14.133480148485368"><ele>167.33333333333334</ele><time>2026-04-11T16:49:35.998Z</time></trkpt><trkpt lat="42.45668354984814" lon="14.133773594166241"><ele>168.0</ele><time>2026-04-11T16:49:36.998Z</time></trkpt><trkpt lat="42.45660666795505" lon="14.134036212296312"><ele>168.0</ele><time>2026-04-11T16:49:37.998Z</time></trkpt><trkpt lat="42.45653281143175" lon="14.134285236622087"><ele>168.0</ele><time>2026-04-11T16:49:38.998Z</time></trkpt><trkpt lat="42.45645728346669" lon="14.134538398261935"><ele>168.0</ele><time>2026-04-11T16:49:39.998Z</time></trkpt><trkpt lat="42.45637776969918" lon="14.134758401439232"><ele>167.33333333333334</ele><time>2026-04-11T16:49:40.998Z</time></trkpt><trkpt lat="42.45631349667273" lon="14.134959535648589"><ele>166.66666666666669</ele><time>2026-04-11T16:49:41.998Z</time></trkpt><trkpt lat="42.45625856543924" lon="14.135148587398668"><ele>166.0</ele><time>2026-04-11T16:49:42.998Z</time></trkpt><trkpt lat="42.456210123012006" lon="14.135324647579615"><ele>168.8</ele><time>2026-04-11T16:49:43.998Z</time></trkpt><trkpt lat="42.45616123834503" lon="14.135486481451522"><ele>171.60000000000002</ele><time>2026-04-11T16:49:44.998Z</time></trkpt><trkpt lat="42.45611333143543" lon="14.135627144420232"><ele>174.4</ele><time>2026-04-11T16:49:45.998Z</time></trkpt><trkpt lat="42.4560466537427" lon="14.13572807490471"><ele>177.2</ele><time>2026-04-11T16:49:46.998Z</time></trkpt><trkpt lat="42.4560021790163" lon="14.13580323601221"><ele>180.0</ele><time>2026-04-11T16:49:47.998Z</time></trkpt><trkpt lat="42.45596633438423" lon="14.13588629831572"><ele>180.0</ele><time>2026-04-11T16:49:48.998Z</time></trkpt><trkpt lat="42.45587675240732" lon="14.135962859680602"><ele>180.0</ele><time>2026-04-11T16:49:50.998Z</time></trkpt><trkpt lat="42.455967495536605" lon="14.136093359321974"><ele>180.0</ele><time>2026-04-11T16:49:52.999Z</time></trkpt><trkpt lat="42.456068580049724" lon="14.136121013110685"><ele>180.0</ele><time>2026-04-11T16:49:54.999Z</time></trkpt><trkpt lat="42.45618604700614" lon="14.136159423523669"><ele>180.0</ele><time>2026-04-11T16:49:56.999Z</time></trkpt><trkpt lat="42.4562727639457" lon="14.136202757519937"><ele>180.0</ele><time>2026-04-11T16:49:57.999Z</time></trkpt><trkpt lat="42.45635631080608" lon="14.136234352579264"><ele>180.0</ele><time>2026-04-11T16:49:58.999Z</time></trkpt><trkpt lat="42.45643567997957" lon="14.136258423566897"><ele>180.0</ele><time>2026-04-11T16:49:59.999Z</time></trkpt><trkpt lat="42.45650965082782" lon="14.136286615739023"><ele>180.0</ele><time>2026-04-11T16:50:00.999Z</time></trkpt><trkpt lat="42.45657427320619" lon="14.136304765531623"><ele>180.0</ele><time>2026-04-11T16:50:01.999Z</time></trkpt><trkpt lat="42.45665359331667" lon="14.136304983518823"><ele>177.83333333333334</ele><time>2026-04-11T16:50:03Z</time></trkpt><trkpt lat="42.456739906430144" lon="14.136285881366058"><ele>175.66666666666666</ele><time>2026-04-11T16:50:03.999Z</time></trkpt><trkpt lat="42.45680965055141" lon="14.136259346293025"><ele>173.5</ele><time>2026-04-11T16:50:05Z</time></trkpt><trkpt lat="42.4568800014379" lon="14.136237664325725"><ele>171.33333333333331</ele><time>2026-04-11T16:50:06Z</time></trkpt><trkpt lat="42.45696483199362" lon="14.136220809081953"><ele>169.16666666666666</ele><time>2026-04-11T16:50:07Z</time></trkpt><trkpt lat="42.45704258351146" lon="14.136217592399502"><ele>167.0</ele><time>2026-04-11T16:50:07.999Z</time></trkpt><trkpt lat="42.457115213669354" lon="14.136210797658544"><ele>165.2</ele><time>2026-04-11T16:50:08.999Z</time></trkpt><trkpt lat="42.457192007784315" lon="14.136208385737817"><ele>163.39999999999998</ele><time>2026-04-11T16:50:09.999Z</time></trkpt><trkpt lat="42.45730662784017" lon="14.136214130587893"><ele>161.60000000000002</ele><time>2026-04-11T16:50:11.999Z</time></trkpt><trkpt lat="42.45740839663037" lon="14.136206217619135"><ele>159.8</ele><time>2026-04-11T16:50:13.999Z</time></trkpt><trkpt lat="42.45750727865128" lon="14.136176950473835"><ele>158.0</ele><time>2026-04-11T16:50:15.999Z</time></trkpt><trkpt lat="42.45759659717204" lon="14.136155992283115"><ele>158.0</ele><time>2026-04-11T16:50:17.999Z</time></trkpt><trkpt lat="42.45767499781608" lon="14.136142156108843"><ele>158.0</ele><time>2026-04-11T16:50:19.999Z</time></trkpt><trkpt lat="42.4577494170657" lon="14.136138079615272"><ele>158.0</ele><time>2026-04-11T16:50:22.999Z</time></trkpt></trkseg></trk></gpx>